[[{"header":{"parameterUnit":"m.s-1","parameterCategory":1,"la1":30.6,"la2":28.766,"lo1":-90.7593,"lo2":-88.6598,"dy":0.0162,"dx":0.0183,"nx":116,"ny":114,"refTime":"2024-05-16T18:00:00:Z","depth":0,"parameterNumber":2,"parameterNumberName":"U-component_of_WINDS"},"data":[0.0,0.0,0.0,0.0,0.0,0.0,0.0,0.0,0.0,0.0,0.0,0.0,0.0,0.0,0.0,0.0,0.0,0.0,0.0,0.0,0.0,0.0,0.0,0.0,0.0,0.0,0.0,0.0,0.0,0.0,0.0,0.0,0.0,0.0,0.0,0.0,0.0,0.0,0.0,0.0,0.0,0.0,0.0,0.0,0.0,0.0,0.0,0.0,0.0,0.0,0.0,0.0,0.0,0.0,0.0,0.0,0.0,0.0,0.0,0.0,0.0,0.0,0.0,0.0,0.0,0.0,0.0,0.0,0.0,0.0,0.0,0.0,0.0,0.0,0.0,0.0,0.0,0.0,0.0,0.0,0.0,0.0,0.0,0.0,0.0,0.0,0.0,0.0,0.0,0.0,0.0,0.0,0.0,0.0,0.0,0.0,0.0,0.0,0.0,0.0,0.0,0.0,0.0,0.0,0.0,0.0,0.0,0.0,0.0,0.0,0.0,0.0,0.0,0.0,0.0,0.0,0.0,0.0,0.0,0.0,0.0,0.0,0.0,0.0,0.0,0.0,0.0,0.0,0.0,0.0,0.0,0.0,0.0,0.0,0.0,0.0,0.0,0.0,0.0,0.0,0.0,0.0,0.0,0.0,0.0,0.0,0.0,0.0,0.0,0.0,0.0,0.0,0.0,0.0,0.0,0.0,0.0,0.0,0.0,0.0,0.0,0.0,0.0,0.0,0.0,0.0,0.0,0.0,0.0,0.0,0.0,0.0,0.0,0.0,0.0,0.0,0.0,0.0,0.0,0.0,0.0,0.0,0.0,0.0,0.0,0.0,0.0,0.0,0.0,0.0,0.0,0.0,0.0,0.0,0.0,0.0,0.0,0.0,0.0,0.0,0.0,0.0,0.0,0.0,0.0,0.0,0.0,0.0,0.0,0.0,0.0,0.0,0.0,0.0,0.0,0.0,0.0,0.0,0.0,0.0,0.0,0.0,0.0,0.0,0.0,0.0,0.0,0.0,0.0,0.0,0.0,0.0,0.0,0.0,0.0,0.0,0.0,0.0,0.0,0.0,0.0,0.0,0.0,0.0,0.0,0.0,0.0,0.0,0.0,0.0,0.0,0.0,0.0,0.0,0.0,0.0,0.0,0.0,0.0,0.0,0.0,0.0,0.0,0.0,0.0,0.0,0.0,0.0,0.0,0.0,0.0,0.0,0.0,0.0,0.0,0.0,0.0,0.0,0.0,0.0,0.0,0.0,0.0,0.0,0.0,0.0,0.0,0.0,0.0,0.0,0.0,0.0,0.0,0.0,0.0,0.0,0.0,0.0,0.0,0.0,0.0,0.0,0.0,0.0,0.0,0.0,0.0,0.0,0.0,0.0,0.0,0.0,0.0,0.0,0.0,0.0,0.0,0.0,0.0,0.0,0.0,0.0,0.0,0.0,0.0,0.0,0.0,0.0,0.0,0.0,0.0,0.0,0.0,0.0,0.0,0.0,0.0,0.0,0.0,0.0,0.0,0.0,0.0,0.0,0.0,0.0,0.0,0.0,0.0,0.0,0.0,0.0,0.0,0.0,0.0,0.0,0.0,0.0,0.0,0.0,0.0,0.0,0.0,0.0,0.0,0.0,0.0,0.0,0.0,0.0,0.0,0.0,0.0,0.0,0.0,0.0,0.0,0.0,0.0,0.0,0.0,0.0,0.0,0.0,0.0,0.0,0.0,0.0,0.0,0.0,0.0,0.0,0.0,0.0,0.0,0.0,0.0,0.0,0.0,0.0,0.0,0.0,0.0,0.0,0.0,0.0,0.0,0.0,0.0,0.0,0.0,0.0,0.0,0.0,0.0,0.0,0.0,0.0,0.0,0.0,0.0,0.0,0.0,0.0,0.0,0.0,0.0,0.0,0.0,0.0,0.0,0.0,0.0,0.0,0.0,0.0,0.0,0.0,0.0,0.0,0.0,0.0,0.0,0.0,0.0,0.0,0.0,0.0,0.0,0.0,0.0,0.0,0.0,0.0,0.0,0.0,0.0,0.0,0.0,0.0,0.0,0.0,0.0,0.0,0.0,0.0,0.0,0.0,0.0,0.0,0.0,0.0,0.0,0.0,0.0,0.0,0.0,0.0,0.0,0.0,0.0,0.0,0.0,0.0,0.0,0.0,0.0,0.0,0.0,0.0,0.0,0.0,0.0,0.0,0.0,0.0,0.0,0.0,0.0,0.0,0.0,0.0,0.0,0.0,0.0,0.0,0.0,0.0,0.0,0.0,0.0,0.0,0.0,0.0,0.0,0.0,0.0,0.0,0.0,0.0,0.0,0.0,0.0,0.0,0.0,0.0,0.0,0.0,0.0,0.0,0.0,0.0,0.0,0.0,0.0,0.0,0.0,0.0,0.0,0.0,0.0,0.0,0.0,0.0,0.0,0.0,0.0,0.0,0.0,0.0,0.0,0.0,0.0,0.0,0.0,0.0,0.0,0.0,0.0,0.0,0.0,0.0,0.0,0.0,0.0,0.0,0.0,0.0,0.0,0.0,0.0,0.0,0.0,0.0,0.0,0.0,0.0,0.0,0.0,0.0,0.0,0.0,0.0,0.0,0.0,0.0,0.0,0.0,0.0,0.0,0.0,0.0,0.0,0.0,0.0,0.0,0.0,0.0,0.0,0.0,0.0,0.0,0.0,0.0,0.0,0.0,0.0,0.0,0.0,0.0,0.0,0.0,0.0,0.0,0.0,0.0,0.0,0.0,0.0,0.0,0.0,0.0,0.0,0.0,0.0,0.0,0.0,0.0,0.0,0.0,0.0,0.0,0.0,0.0,0.0,0.0,0.0,0.0,0.0,0.0,0.0,0.0,0.0,0.0,0.0,0.0,0.0,0.0,0.0,0.0,0.0,0.0,0.0,0.0,0.0,0.0,0.0,0.0,0.0,0.0,0.0,0.0,0.0,0.0,0.0,0.0,0.0,0.0,0.0,0.0,0.0,0.0,0.0,0.0,0.0,0.0,0.0,0.0,0.0,0.0,0.0,0.0,0.0,0.0,0.0,0.0,0.0,0.0,0.0,0.0,0.0,0.0,0.0,0.0,0.0,0.0,0.0,0.0,0.0,0.0,0.0,0.0,0.0,0.0,0.0,0.0,0.0,0.0,0.0,0.0,0.0,0.0,0.0,0.0,0.0,0.0,0.0,0.0,0.0,0.0,0.0,0.0,0.0,0.0,0.0,0.0,0.0,0.0,0.0,0.0,0.0,0.0,0.0,0.0,0.0,0.0,0.0,0.0,0.0,0.0,0.0,0.0,0.0,0.0,0.0,0.0,0.0,0.0,0.0,0.0,0.0,0.0,0.0,0.0,0.0,0.0,0.0,0.0,0.0,0.0,0.0,0.0,0.0,0.0,0.0,0.0,0.0,0.0,0.0,0.0,0.0,0.0,0.0,0.0,0.0,0.0,0.0,0.0,0.0,0.0,0.0,0.0,0.0,0.0,0.0,0.0,0.0,0.0,0.0,0.0,0.0,0.0,0.0,0.0,0.0,0.0,0.0,0.0,0.0,0.0,0.0,0.0,0.0,0.0,0.0,0.0,0.0,0.0,0.0,0.0,0.0,0.0,0.0,0.0,0.0,0.0,0.0,0.0,0.0,0.0,0.0,0.0,0.0,0.0,0.0,0.0,0.0,0.0,0.0,0.0,0.0,0.0,0.0,0.0,0.0,0.0,0.0,0.0,0.0,0.0,0.0,0.0,0.0,0.0,0.0,0.0,0.0,0.0,0.0,0.0,0.0,0.0,0.0,0.0,0.0,0.0,0.0,0.0,0.0,0.0,0.0,0.0,0.0,0.0,0.0,0.0,0.0,0.0,0.0,0.0,0.0,0.0,0.0,0.0,0.0,0.0,0.0,0.0,0.0,0.0,0.0,0.0,0.0,0.0,0.0,0.0,0.0,0.0,0.0,0.0,0.0,0.0,0.0,0.0,0.0,0.0,0.0,0.0,0.0,0.0,0.0,0.0,0.0,0.0,0.0,0.0,0.0,0.0,0.0,0.0,0.0,0.0,0.0,0.0,0.0,0.0,0.0,0.0,0.0,0.0,0.0,0.0,0.0,0.0,0.0,0.0,0.0,0.0,0.0,0.0,0.0,0.0,0.0,0.0,0.0,0.0,0.0,0.0,0.0,0.0,0.0,0.0,0.0,0.0,0.0,0.0,0.0,0.0,0.0,0.0,0.0,0.0,0.0,0.0,0.0,0.0,0.0,0.0,0.0,0.0,0.0,0.0,0.0,0.0,0.0,0.0,0.0,0.0,0.0,0.0,0.0,0.0,0.0,0.0,0.0,0.0,0.0,0.0,0.0,0.0,0.0,0.0,0.0,0.0,0.0,0.0,0.0,0.0,0.0,0.0,0.0,0.0,0.0,0.0,0.0,0.0,0.0,0.0,0.0,0.0,0.0,0.0,0.0,0.0,0.0,0.0,0.0,0.0,0.0,0.0,0.0,0.0,0.0,0.0,0.0,0.0,0.0,0.0,0.0,0.0,0.0,0.0,0.0,0.0,0.0,0.0,0.0,0.0,0.0,0.0,0.0,0.0,0.0,0.0,0.0,0.0,0.0,0.0,0.0,0.0,0.0,0.0,0.0,0.0,0.0,0.0,0.0,0.0,0.0,0.0,0.0,0.0,0.0,0.0,0.0,0.0,0.0,0.0,0.0,0.0,0.0,0.0,0.0,0.0,0.0,0.0,0.0,0.0,0.0,0.0,0.0,0.0,0.0,0.0,0.0,0.0,0.0,0.0,0.0,0.0,0.0,0.0,0.0,0.0,0.0,0.0,0.0,0.0,0.0,0.0,0.0,0.0,0.0,0.0,0.0,0.0,0.0,0.0,0.0,0.0,0.0,0.0,0.0,0.0,0.0,0.0,0.0,0.0,0.0,0.0,0.0,0.0,0.0,0.0,0.0,0.0,0.0,0.0,0.0,0.0,0.0,0.0,0.0,0.0,0.0,0.0,0.0,0.0,0.0,0.0,0.0,0.0,0.0,0.0,0.0,0.0,0.0,0.0,0.0,0.0,0.0,0.0,0.0,0.0,0.0,0.0,0.0,0.0,0.0,0.0,0.0,0.0,0.0,0.0,0.0,0.0,0.0,0.0,0.0,0.0,0.0,0.0,0.0,0.0,0.0,0.0,0.0,0.0,0.0,0.0,0.0,0.0,0.0,0.0,0.0,0.0,0.0,0.0,0.0,0.0,0.0,0.0,0.0,0.0,0.0,0.0,0.0,0.0,0.0,0.0,0.0,0.0,0.0,0.0,0.0,0.0,0.0,0.0,0.0,0.0,0.0,0.0,0.0,0.0,0.0,0.0,0.0,0.0,0.0,0.0,0.0,0.0,0.0,0.0,0.0,0.0,0.0,0.0,0.0,0.0,0.0,0.0,0.0,0.0,0.0,0.0,0.0,0.0,0.0,0.0,0.0,0.0,0.0,0.0,0.0,0.0,0.0,0.0,0.0,0.0,0.0,0.0,0.0,0.0,0.0,0.0,0.0,0.0,0.0,0.0,0.0,0.0,0.0,0.0,0.0,0.0,0.0,0.0,0.0,0.0,0.0,0.0,0.0,0.0,0.0,0.0,0.0,0.0,0.0,0.0,0.0,0.0,0.0,0.0,0.0,0.0,0.0,0.0,0.0,0.0,0.0,0.0,0.0,0.0,0.0,0.0,0.0,0.0,0.0,0.0,0.0,0.0,0.0,0.0,0.0,0.0,0.0,0.0,0.0,0.0,0.0,0.0,0.0,0.0,0.0,0.0,0.0,0.0,0.0,0.0,0.0,0.0,0.0,0.0,0.0,0.0,0.0,0.0,0.0,0.0,0.0,0.0,0.0,0.0,0.0,0.0,0.0,0.0,0.0,0.0,0.0,0.0,0.0,0.0,0.0,0.0,0.0,0.0,0.0,0.0,0.0,0.0,0.0,0.0,0.0,0.0,0.0,0.0,0.0,0.0,0.0,0.0,0.0,0.0,0.0,0.0,0.0,0.0,0.0,0.0,0.0,0.0,0.0,0.0,0.0,0.0,0.0,0.0,0.0,0.0,0.0,0.0,0.0,0.0,0.0,0.0,0.0,0.0,0.0,0.0,-5.0913,-4.9082,0.0,0.0,0.0,0.0,0.0,0.0,0.0,0.0,0.0,0.0,0.0,0.0,0.0,0.0,0.0,0.0,0.0,0.0,0.0,0.0,0.0,0.0,0.0,-3.9123,-4.0208,-4.1046,-4.1931,-4.2431,-4.2431,0.0,0.0,0.0,0.0,0.0,-3.9452,-3.9795,-4.0034,-4.0154,-4.0816,-4.1317,-4.1635,-4.1865,-4.0837,-3.8861,0.0,0.0,0.0,0.0,0.0,0.0,0.0,0.0,0.0,0.0,0.0,0.0,0.0,0.0,0.0,0.0,0.0,0.0,0.0,0.0,0.0,0.0,0.0,0.0,0.0,0.0,0.0,0.0,0.0,0.0,0.0,0.0,0.0,0.0,0.0,0.0,0.0,0.0,0.0,0.0,0.0,0.0,0.0,0.0,0.0,0.0,0.0,0.0,0.0,0.0,0.0,0.0,0.0,0.0,0.0,0.0,0.0,0.0,0.0,0.0,0.0,0.0,0.0,0.0,0.0,0.0,0.0,0.0,0.0,0.0,-5.5108,-5.3072,0.0,0.0,0.0,0.0,0.0,0.0,0.0,0.0,0.0,0.0,0.0,0.0,0.0,0.0,0.0,0.0,0.0,0.0,0.0,0.0,0.0,-3.5545,-3.7969,-3.97,-4.1085,-4.197,-4.2816,-4.3316,-4.3316,-4.3034,0.0,0.0,0.0,-4.1765,-4.0645,-4.2001,-4.2677,-4.2715,-4.3897,-4.5047,-4.6186,-4.6561,-4.4966,-4.1789,-4.1413,0.0,0.0,0.0,0.0,0.0,0.0,0.0,0.0,0.0,0.0,0.0,0.0,0.0,0.0,0.0,0.0,0.0,0.0,0.0,0.0,0.0,0.0,0.0,0.0,0.0,0.0,0.0,0.0,0.0,0.0,0.0,0.0,0.0,0.0,0.0,0.0,0.0,0.0,0.0,0.0,0.0,0.0,0.0,0.0,0.0,0.0,0.0,0.0,0.0,0.0,0.0,0.0,0.0,0.0,0.0,0.0,0.0,0.0,0.0,0.0,0.0,0.0,0.0,-6.1467,-6.2245,-6.3294,-6.2042,-6.2144,-6.3193,-6.008,-5.822,-5.7171,-5.4465,0.0,0.0,0.0,0.0,0.0,0.0,0.0,0.0,0.0,0.0,0.0,0.0,0.0,0.0,0.0,0.0,0.0,0.0,0.0,-3.7084,-3.8938,-4.0623,-4.197,-4.2854,-4.3662,-4.4124,-4.4124,-4.4098,0.0,0.0,-4.3286,-4.2902,-4.2697,-4.2928,-4.3187,-4.3526,-4.5937,-4.8133,-5.0073,-5.0124,-4.9884,-4.9224,-4.6415,-4.5405,-4.5608,0.0,0.0,0.0,0.0,0.0,0.0,0.0,0.0,0.0,0.0,0.0,0.0,0.0,0.0,0.0,0.0,0.0,0.0,0.0,0.0,0.0,0.0,0.0,0.0,0.0,0.0,0.0,0.0,0.0,0.0,0.0,0.0,0.0,0.0,0.0,0.0,0.0,0.0,0.0,0.0,0.0,-4.8738,-4.9726,0.0,0.0,0.0,0.0,0.0,0.0,0.0,0.0,0.0,0.0,0.0,0.0,0.0,-6.0254,-6.1757,-6.3916,-6.4952,-6.4986,-6.6981,-6.7658,-6.7151,-6.6948,-6.6981,-6.7151,-6.6643,0.0,-5.9539,-5.7848,0.0,0.0,0.0,0.0,0.0,0.0,0.0,0.0,0.0,0.0,0.0,0.0,0.0,0.0,0.0,0.0,0.0,0.0,0.0,0.0,0.0,-4.2508,-4.4624,-4.4509,-4.7009,-4.7778,-4.5893,-4.6624,-4.6317,-4.4393,-4.4432,-4.4047,-4.3124,-4.4932,-4.6699,-4.8297,-5.0408,-5.1902,-5.2821,-5.3298,-5.3739,-5.4106,-5.2197,-5.0031,-4.759,-4.4929,0.0,0.0,0.0,0.0,0.0,0.0,0.0,0.0,0.0,0.0,0.0,0.0,0.0,0.0,0.0,0.0,0.0,0.0,0.0,0.0,0.0,0.0,0.0,0.0,0.0,0.0,0.0,0.0,0.0,0.0,0.0,0.0,0.0,0.0,0.0,0.0,0.0,0.0,0.0,-5.0581,-5.2545,-5.2094,-5.2097,-5.1792,0.0,0.0,0.0,0.0,0.0,0.0,0.0,0.0,0.0,-6.3674,-6.4354,-6.5397,-6.6745,-6.8571,-6.9451,-6.9485,-7.0906,-7.1379,-7.1007,-7.0601,-7.0432,-7.0398,-6.9992,-6.8267,-6.5527,-6.2347,-5.9539,-5.6862,0.0,0.0,0.0,0.0,-5.0794,-5.0653,0.0,0.0,0.0,0.0,0.0,0.0,0.0,0.0,0.0,0.0,0.0,0.0,-4.0708,-4.4662,-4.7201,-4.7201,-4.9894,-5.0625,-4.8308,-4.8548,-4.7702,-4.5355,-4.5479,-4.5017,-4.3778,-4.6819,-4.981,-5.266,-5.4226,-5.5207,-5.5647,-5.6455,-5.7152,-5.7703,-5.7079,-5.4583,-5.0618,-4.8196,-4.5663,-4.3057,0.0,0.0,0.0,0.0,0.0,0.0,0.0,0.0,0.0,0.0,0.0,0.0,0.0,0.0,0.0,0.0,0.0,0.0,0.0,0.0,0.0,0.0,0.0,0.0,0.0,0.0,0.0,0.0,0.0,0.0,0.0,0.0,0.0,0.0,0.0,0.0,0.0,-5.356,-5.5644,-5.4262,-5.5412,-5.5547,0.0,0.0,0.0,0.0,0.0,0.0,-6.2203,-6.4657,-6.6716,-6.8211,-6.9485,-7.058,-7.1426,-7.255,-7.2949,-7.2699,-7.324,-7.3477,-7.3443,-7.2732,-7.2394,-7.236,-7.1616,-7.1007,-7.0161,-6.6237,-6.3396,-6.1187,-5.7725,-5.5595,-5.4442,-5.4553,-5.384,-5.3341,0.0,0.0,0.0,0.0,0.0,0.0,0.0,0.0,0.0,0.0,0.0,-4.0785,-4.4825,-4.6932,-4.9009,-5.1385,-5.1087,-5.101,-5.1615,-4.8731,-4.7278,-4.7894,-4.6432,-4.5556,-4.5479,-4.7998,-5.1094,-5.4743,-5.6071,-5.746,-5.8964,-5.9795,-6.0199,-6.0236,-6.0199,-5.9171,-5.7189,-5.2527,-5.0031,-4.8766,-4.4011,0.0,0.0,0.0,0.0,0.0,0.0,0.0,0.0,0.0,0.0,0.0,0.0,0.0,0.0,0.0,0.0,0.0,0.0,0.0,0.0,0.0,0.0,0.0,0.0,0.0,0.0,0.0,0.0,0.0,0.0,0.0,0.0,0.0,0.0,0.0,0.0,0.0,0.0,-5.5753,-5.8795,0.0,0.0,0.0,0.0,-5.981,-6.3558,-6.6468,-6.7888,-7.0441,-7.2864,-7.5053,-7.5198,-7.5117,-7.4833,-7.4937,-7.4444,-7.3443,-7.3477,-7.3477,-7.3443,-7.2732,-7.2394,-7.236,-7.1616,-7.1312,-7.1075,-6.8673,-6.6779,-6.5256,-6.362,-6.1354,-5.8912,-5.8622,-5.7253,-5.5516,0.0,0.0,0.0,0.0,0.0,-3.0692,-3.1583,-3.2852,-3.4276,-3.5731,-3.9315,-4.2739,-4.5325,-4.9048,-5.1972,-5.3433,-5.4818,-5.478,-5.2856,-5.1077,-5.001,-4.9779,-4.8125,-4.8375,-5.0803,-5.2225,-5.4354,-5.7272,-5.8504,-5.9428,-5.9979,-6.0272,-6.0676,-6.1153,-6.0639,-6.0382,-6.0015,-5.5721,-5.3115,-5.1536,-4.7168,-4.3938,0.0,0.0,0.0,0.0,0.0,0.0,0.0,0.0,0.0,0.0,0.0,0.0,0.0,0.0,0.0,0.0,0.0,0.0,0.0,0.0,0.0,0.0,0.0,0.0,0.0,0.0,0.0,0.0,0.0,0.0,0.0,0.0,0.0,0.0,0.0,0.0,0.0,-6.0062,-6.2448,0.0,-6.0655,-6.2563,-6.4387,-6.5352,-6.8728,-7.1429,-7.298,-7.551,-7.7232,-7.7866,-7.8479,-7.8681,-7.8383,-7.7136,-7.6321,-7.5956,-7.5238,-7.4897,-7.4897,-7.4153,-7.3544,-7.3071,-7.2326,-7.1751,-7.1244,-7.0432,-6.9214,-6.7717,-6.5875,-6.4243,-6.2771,-6.0979,-5.9884,-5.9085,0.0,0.0,0.0,0.0,-3.0654,-3.1115,-3.1968,-3.3545,-3.5238,-3.6969,-4.0893,-4.4586,-4.7432,-5.151,-5.4626,-5.6049,-5.7203,-5.7011,-5.5049,-5.2779,-5.1395,-5.1125,-4.9603,-5.0512,-5.4296,-5.5002,-5.6594,-5.9196,-6.0277,-6.0786,-6.0823,-6.108,-6.1484,-6.1998,-6.1447,-6.152,-6.1814,-5.8877,-5.6381,-5.4121,-5.0855,-4.8122,-4.5572,0.0,0.0,0.0,0.0,0.0,0.0,0.0,0.0,0.0,0.0,0.0,0.0,0.0,0.0,0.0,0.0,0.0,0.0,0.0,0.0,0.0,0.0,0.0,0.0,0.0,0.0,0.0,0.0,0.0,0.0,0.0,0.0,0.0,0.0,-6.0644,-6.2993,-6.2775,-6.5628,-6.6609,-6.414,-6.6531,-6.8813,-7.0179,-7.3114,-7.5425,-7.683,-7.9395,-8.0731,-8.0577,-8.1202,-8.1089,-8.0192,-7.9005,-7.7864,-7.6747,-7.6404,-7.6067,-7.5676,-7.4931,-7.4187,-7.3443,-7.2699,-7.1988,-7.1312,-7.1312,-7.0737,-6.9701,-6.8349,-6.7107,-6.5897,-6.4207,-6.2682,-6.1289,0.0,0.0,0.0,-3.0423,-3.1154,-3.1968,-3.2814,-3.4423,-3.6738,-4.0054,-4.2777,-4.6317,-5.1385,-5.4203,-5.678,-5.9319,-5.8011,-5.7396,-5.8242,-5.3549,-5.1087,-5.1923,-5.0868,-5.1954,-5.5542,-5.6033,-5.7608,-6.0456,-6.1263,-6.1667,-6.1704,-6.2511,-6.2853,-6.2853,-6.2853,-6.2853,-6.2805,-6.1998,-5.9832,-5.6822,-5.5133,-5.3078,-5.0521,0.0,0.0,0.0,0.0,0.0,0.0,0.0,0.0,0.0,0.0,0.0,0.0,0.0,0.0,0.0,0.0,0.0,0.0,0.0,0.0,0.0,0.0,0.0,0.0,0.0,0.0,0.0,0.0,0.0,0.0,0.0,0.0,0.0,-5.9122,-6.2266,-6.4397,-6.3814,-6.8267,-7.0229,-6.732,-7.0341,-7.2945,-7.3975,-7.6413,-7.836,-7.9504,-8.2012,-8.3471,-8.3471,-8.3401,-8.2394,-8.0314,-8.0426,-7.8943,-7.5818,-7.6792,-7.6701,-7.5676,-7.4965,-7.4221,-7.3443,-7.2732,-7.1988,-7.1312,-7.1312,-7.1312,-7.1312,-7.1312,-7.0092,-6.8305,-6.8225,-6.5689,-6.196,0.0,0.0,-3.0615,-3.1231,-3.1545,-3.2199,-3.3622,-3.5276,-3.7353,-4.0131,-4.3816,-4.7894,-5.2356,-5.5126,-5.7676,-6.0204,-5.8896,-5.805,-5.828,-5.4087,-5.1972,-5.2818,-5.4794,-5.6609,-5.8209,-5.8879,-5.9876,-6.1263,-6.2695,-6.3392,-6.3429,-6.4237,-6.4604,-6.4604,-6.4604,-6.431,-6.3723,-6.3503,-6.2181,-6.0052,-5.7262,-5.539,-5.3858,0.0,0.0,0.0,0.0,0.0,0.0,0.0,0.0,0.0,0.0,0.0,0.0,0.0,0.0,0.0,0.0,0.0,0.0,0.0,0.0,0.0,0.0,0.0,0.0,0.0,0.0,0.0,0.0,0.0,0.0,0.0,-6.0896,-6.2733,-6.3884,-6.5746,-6.7559,-6.8996,-7.0906,-7.1988,-7.1684,-7.3225,-7.4671,-7.55,-7.7685,-7.961,-8.1092,-8.3143,-8.4278,-8.4278,-8.3514,-8.2939,-8.2536,-7.9617,-7.8161,-7.8077,-7.6781,-7.5973,-7.5676,-7.5506,-7.4695,-7.3477,-7.3274,-7.2462,-7.1312,-7.1312,-7.1312,-7.1312,-7.1312,-7.0917,-7.0251,-6.8738,-6.6225,-6.344,0.0,-3.0692,-3.1115,-3.1621,-3.2275,-3.3083,-3.4052,-3.593,-3.8161,-4.07,-4.4778,-4.8894,-5.2779,-5.5472,-5.7753,-5.9588,-5.8511,-5.7473,-5.6742,-5.4049,-5.3308,-5.5241,-5.7104,-5.8809,-6.0317,-6.0722,-6.1484,-6.2658,-6.3613,-6.4273,-6.4604,-6.5081,-6.5301,-6.5301,-6.5301,-6.5044,-6.4604,-6.4604,-6.3833,-6.2438,-6.0199,-5.8621,-5.7134,-5.2895,-5.0999,-5.0138,-4.6933,-4.6039,-4.6307,-4.5768,0.0,0.0,0.0,0.0,0.0,0.0,0.0,0.0,0.0,0.0,0.0,0.0,0.0,0.0,0.0,0.0,0.0,0.0,0.0,0.0,0.0,0.0,0.0,0.0,-6.4633,-6.6353,-6.8647,-6.8682,-6.9305,-7.1492,-7.2428,-7.3138,-7.3883,-7.4753,-7.5657,-7.6565,-7.8554,-8.0322,-8.1705,-8.391,-8.4879,-8.4388,-8.3483,-8.2641,-8.187,-7.9755,-7.8328,-7.7641,-7.7248,-7.6599,-7.5676,-7.5371,-7.4593,-7.3477,-7.3172,-7.2394,-7.1312,-7.1312,-7.1312,-7.1312,0.0,0.0,0.0,0.0,-6.7095,-6.5914,0.0,-3.1231,-3.1852,-3.1968,-3.3199,-3.4244,-3.4321,-3.643,-3.8969,-4.1577,-4.5547,-4.9394,-5.2818,-5.5395,-5.7203,-5.8088,-5.7434,-5.6368,-5.4895,-5.4241,-5.528,-5.8319,-5.8631,-5.9787,-6.2051,-6.2012,-6.2696,-6.4237,-6.431,-6.4751,-6.5448,-6.5521,-6.5595,-6.5595,-6.5595,-6.5521,-6.5448,-6.5448,-6.4971,-6.4163,-6.3282,-6.1998,-6.0079,-5.5757,-5.4117,-5.3537,-4.9238,-4.7665,-4.7619,-4.7323,0.0,0.0,0.0,0.0,0.0,0.0,0.0,0.0,0.0,0.0,0.0,0.0,0.0,0.0,0.0,0.0,0.0,0.0,0.0,0.0,0.0,0.0,0.0,0.0,-6.853,-6.9955,-7.2969,-7.1226,-7.0328,-7.2259,-7.3172,-7.3916,-7.4661,-7.5337,-7.6148,-7.7164,-7.8974,-8.0506,-8.1619,-8.4172,0.0,0.0,0.0,-8.2124,-7.9966,-8.0234,-7.8852,-7.5913,-7.7771,-7.7598,-7.5676,-7.5033,-7.4289,-7.3443,-7.28,-7.2056,-7.1312,-7.1312,-7.1312,-7.1312,-7.1312,-7.1312,-7.0974,-6.8286,-6.8059,-6.8537,0.0,-3.2122,-3.2891,-3.3583,-3.3975,-3.443,-3.5154,-3.6815,-3.9161,-4.2431,-4.5893,-4.9394,-5.2818,-5.4857,-5.628,-5.7176,-5.7099,-5.6868,-5.656,-5.7627,-5.8588,-5.9242,-6.1478,-6.3061,-6.3785,-6.4081,-6.4459,-6.5081,-6.5705,-6.6109,-6.6292,-6.6916,-6.7247,-6.7247,-6.7247,-6.688,-6.6256,-6.6256,-6.5815,-6.5007,-6.4163,-6.2842,-6.1068,-5.8299,-5.724,-5.6858,-5.4076,-5.3078,-5.301,-5.2329,-5.1141,-4.9867,-4.9671,-4.8146,0.0,0.0,0.0,0.0,0.0,0.0,0.0,0.0,0.0,0.0,0.0,0.0,0.0,0.0,0.0,0.0,0.0,0.0,0.0,-6.9889,-7.1625,-7.3103,-7.5007,-7.3948,-7.3052,-7.3276,-7.395,-7.4695,-7.5405,-7.5608,-7.6042,-7.689,-7.812,-7.9443,-8.0884,-8.3169,-8.4348,-8.4123,-8.4017,-8.3142,-8.1392,-7.9793,-7.8354,-7.7016,-7.6554,0.0,-7.5709,-7.554,-7.4762,-7.3477,-7.3341,-7.2529,-7.1312,-7.1312,-7.1312,-7.1312,-7.1312,-7.1312,-7.1098,-6.9322,-6.8904,-6.8789,-3.2852,-3.3276,-3.3705,-3.4129,-3.4545,-3.5122,-3.5962,-3.7199,-3.9238,-4.2662,-4.5278,-4.7971,-5.0971,-5.2433,-5.3367,-5.3828,-5.4203,-5.4908,-5.5935,-5.7805,-5.9557,-6.0992,-6.2824,-6.4302,-6.532,-6.497,-6.5297,-6.6285,-6.6438,-6.6696,-6.71,-6.7504,-6.7687,-6.7687,-6.7687,-6.7467,-6.71,-6.71,-6.6623,-6.5888,-6.5448,-6.431,-6.2595,-6.0223,-5.9309,-5.8966,-5.6614,-5.5753,-5.5618,-5.4873,-5.382,-5.2682,-5.1896,-5.0533,-4.8792,0.0,0.0,0.0,0.0,0.0,0.0,0.0,0.0,0.0,0.0,0.0,0.0,0.0,0.0,-5.9065,-6.2767,0.0,-6.8283,-7.2409,-7.3208,-7.3866,-7.5574,-7.5031,-7.4378,-7.4258,-7.449,-7.4897,-7.5642,-7.6048,-7.6454,-7.686,-7.8625,-7.9969,-8.0777,-8.2722,-8.3839,-8.3839,-8.3129,-8.2103,-8.0759,-7.9479,-7.8024,-7.6508,-7.6508,-7.6219,-7.5676,-7.5337,-7.4559,-7.3477,-7.3105,-7.2326,-7.1312,-7.1312,-7.1312,-7.1312,-7.1312,-7.1312,-7.1176,-7.006,-6.9417,-6.8944,-3.4276,-3.443,-3.443,-3.443,-3.5161,-3.5962,-3.6615,-3.7584,-3.9431,-4.2662,-4.4547,-4.6518,-4.8894,-4.9779,-5.025,-5.0442,-5.1664,-5.324,-5.5275,-5.768,-6.0123,-6.2639,-6.3847,-6.507,-6.6455,-6.5775,-6.606,-6.7354,-6.6946,-6.7063,-6.7687,-6.7687,-6.7687,-6.7687,-6.7687,-6.7687,-6.7687,-6.7687,-6.732,-6.6733,-6.6549,-6.5632,-6.4112,-6.202,-6.0973,-6.042,-5.8163,-5.7251,-5.6984,-5.5996,-5.5315,-5.4567,-5.3178,-5.2281,-5.1172,-4.8418,-4.8143,0.0,0.0,0.0,0.0,0.0,0.0,0.0,0.0,-5.3112,-5.4811,-5.8428,-6.0593,-6.3233,-6.7541,-6.882,-7.0426,-7.3978,-7.3863,-7.3935,-7.5577,-7.5398,-7.506,-7.506,-7.4911,-7.5067,-7.5642,-7.642,-7.6961,-7.7096,-7.9179,-8.0546,-8.0684,-8.2346,-8.3372,-8.3585,-8.2448,-8.1378,-8.0378,-7.9575,-7.8132,-7.602,-7.669,-7.6554,-7.5676,-7.51,-7.4322,-7.3443,-7.2563,-7.1853,-7.1312,-7.1312,-7.1312,-7.1312,-7.1312,-7.1312,-7.121,-7.0297,-6.962,-6.8977,0.0,-3.5346,-3.5346,-3.5346,-3.6038,-3.6615,-3.6692,-3.8084,-4.0085,-4.2739,-4.4547,-4.6287,-4.8048,-4.8317,-4.8702,-4.9471,-5.2395,-5.4923,-5.6659,-5.9846,-6.2154,-6.3181,-6.55,-6.6751,-6.6729,-6.7329,-6.7643,-6.7673,-6.7594,-6.7614,-6.7687,-6.7687,-6.7687,-6.7687,-6.7687,-6.7687,-6.7687,-6.7687,-6.7677,-6.7504,-6.6769,-6.5962,-6.5081,-6.405,-6.2781,-6.124,-5.955,-5.8512,-5.7721,-5.6223,-5.5628,-5.543,-5.4601,-5.4296,-5.3854,-5.2004,-5.0655,-4.9674,-4.9305,-4.9942,-5.1202,-5.3326,-5.3333,-5.4532,0.0,-6.1364,-6.1776,-6.6573,-6.7615,-6.8296,-7.0292,-7.1117,-7.1941,-7.3116,-7.3785,-7.454,-7.5649,-7.5542,-7.5352,-7.5352,-7.547,-7.5608,-7.5676,-7.642,-7.7164,-7.7807,-7.8767,-7.9562,-8.0206,-8.144,-8.2571,-8.3578,-8.3749,-8.339,-8.2668,-8.0954,-7.9079,-7.7115,-7.6266,-7.5818,-7.5709,-7.5608,-7.4796,-7.3409,-7.2022,-7.1379,-7.1312,-7.1312,-7.1312,-7.1312,-7.1312,-7.1312,-7.1142,-6.9755,-6.918,-6.8876,0.0,-3.55,-3.5654,-3.6115,-3.6462,-3.7038,-3.8046,-3.8815,-4.0008,-4.2085,-4.297,-4.3855,-4.5047,-4.5624,-4.624,-4.7124,-5.1202,-5.3936,-5.4343,-5.9674,-6.281,-6.2881,-6.5601,-6.7151,-6.7271,-6.7751,-6.8028,-6.8198,-6.7863,-6.7687,-6.7687,-6.7687,-6.7687,-6.7687,-6.7687,-6.7687,-6.7687,-6.7687,-6.7687,-6.765,-6.732,-6.6439,-6.5228,-6.442,-6.3031,-6.1454,-6.03,-5.9087,0.0,0.0,-5.6751,-5.6304,-5.6032,-5.5595,-5.4861,-5.3369,-5.2726,-5.2775,-5.3631,-5.472,-5.5851,-5.689,-5.755,-5.8873,-6.244,-6.3035,-6.397,-6.7936,-6.903,-6.9873,-7.1871,-7.1925,-7.2363,-7.4369,-7.447,-7.4647,-7.5649,-7.5581,-7.5404,-7.5404,-7.5365,-7.5231,-7.5046,-7.6743,-7.7909,-7.7957,-7.9269,-8.0082,-8.0191,-8.0656,-8.1723,-8.3543,-8.2831,-8.2607,-8.3007,-8.0681,-7.8769,-7.7292,-7.6219,-7.5709,-7.5709,-7.5709,-7.4897,-7.3409,-7.1954,-7.1312,-7.1312,-7.1312,-7.1312,-7.1312,-7.1312,-7.1312,-7.1176,-7.0128,-6.9451,-6.8944,0.0,-3.5846,-3.6154,-3.7238,-3.743,-3.7853,-3.913,-3.9477,-4.0162,-4.1615,-4.2,-4.247,-4.3355,-4.4162,-4.4816,-4.521,-4.9702,-5.256,-5.269,-5.8921,-6.267,-6.2811,-6.5767,-6.7434,-6.7376,-6.8016,-6.8356,-6.8284,-6.7878,-6.7797,-6.8017,-6.8017,-6.8017,-6.8017,-6.8017,-6.7907,-6.7687,-6.7687,-6.7687,-6.7687,-6.7687,-6.6733,-6.5228,-6.442,-6.2658,-6.0518,-5.9703,-5.8663,0.0,-5.6383,-5.607,-5.6077,-5.566,-5.5539,-5.5362,-5.4378,-5.4587,-5.5437,-5.6603,-5.8185,-5.9609,-6.0006,-6.1287,-6.2856,-6.4389,-6.5126,-6.6494,-6.9937,-7.0306,-7.0806,-7.3366,-7.2633,-7.238,-7.4578,-7.4348,-7.412,-7.4867,-7.4808,-7.4812,-7.5048,-7.5083,-7.503,-7.4861,-7.7119,-7.847,-7.8163,-7.9727,-8.0471,-7.9921,-8.039,-8.1466,-8.3217,-8.2241,-8.202,-8.2645,-8.0214,-7.8453,-7.7292,-7.6219,-7.5709,-7.5676,-7.527,-7.4492,-7.3409,-7.1954,-7.1312,-7.1312,-7.1312,-7.1312,-7.1312,-7.1312,-7.1312,-7.121,-7.0229,-6.9553,-6.8977,0.0,0.0,-3.7199,-3.8931,-3.9207,-3.9246,-3.9284,-3.9977,-4.0785,-4.1692,-4.2547,-4.3355,-4.4162,-4.5056,-4.5248,-4.4393,-4.8288,-5.1471,-5.3067,-5.8011,-6.1589,-6.3218,-6.6538,-6.7875,-6.686,-6.8425,-6.8758,-6.7741,-6.7714,-6.8091,-6.8862,-6.8862,-6.8862,-6.8862,-6.8862,-6.8421,-6.7687,-6.7687,-6.7687,-6.7687,-6.7687,-6.6733,-6.5228,-6.442,-6.1594,-5.7997,-5.7203,0.0,-5.6246,-5.2315,-5.2558,-5.422,-5.2644,-5.3697,0.0,-5.5539,-5.6133,-5.685,-5.6953,-5.8688,-6.0801,-6.2297,-6.3888,-6.5928,-6.9124,-6.9828,-7.0956,-7.5037,-7.3127,-7.1801,-7.5112,-7.3522,-7.1972,-7.2741,-7.288,-7.2838,-7.288,-7.288,-7.3247,-7.4193,-7.4942,-7.5363,-7.5359,-7.7519,-7.8763,-7.8479,-7.9844,-8.0231,-7.9176,-8.0858,-8.1997,-8.2404,-8.2679,-8.2534,-8.1851,-7.9964,-7.8453,-7.7292,-7.6219,-7.5709,-7.5642,-7.4221,-7.3544,-7.3409,-7.1954,-7.1312,-7.1312,-7.1312,-7.1312,-7.1312,-7.1312,-7.1312,-7.1142,-6.9688,-6.9113,-6.8876,0.0,0.0,0.0,-3.9092,-3.9284,-3.9662,-4.0777,-4.12,-4.147,-4.1769,-4.2547,0.0,0.0,0.0,0.0,0.0,-4.8009,-5.0548,-5.2231,-5.6626,-5.9896,-6.1589,-6.4936,-6.6653,-6.647,-6.7751,-6.8372,-6.8235,-6.7852,-6.7834,-6.8091,-6.8091,-6.8091,-6.8091,-6.8091,-6.7944,-6.7687,-6.7687,-6.7687,-6.7614,-6.6549,-6.5448,-6.4347,-6.2952,-5.9905,-5.6235,0.0,0.0,-5.2669,-5.1871,-5.1784,-5.2105,-5.2608,-5.2974,-5.3373,-5.4484,-5.6528,-5.8653,-5.9761,-6.1768,-6.3914,-6.5508,-6.6714,-6.803,-7.0246,-7.0762,-7.1264,-7.3148,-7.2149,-7.1255,-7.2228,-7.2111,-7.2134,-7.3046,-7.408,-7.4572,-7.3889,-7.4229,-7.4251,-7.3402,-7.4519,-7.5672,-7.641,-7.7665,-7.8538,-7.8769,-7.9909,-8.0571,-8.0517,-8.1104,-8.1535,-8.1674,-8.1257,-8.0923,-8.0713,-7.884,-7.7693,-7.7292,-7.6219,-7.5439,-7.4931,-7.395,-7.3206,-7.2699,-7.1751,-7.1312,-7.1312,-7.1312,-7.1312,-7.1312,-7.1312,-7.1312,-7.1142,-6.9654,-6.9113,-6.8876,0.0,0.0,0.0,0.0,0.0,0.0,0.0,0.0,0.0,0.0,0.0,0.0,0.0,0.0,0.0,0.0,0.0,-4.924,-5.0894,-5.4434,-5.7357,-5.9358,-6.2127,-6.3756,-6.4045,-6.5055,-6.5745,-6.6051,-6.63,-6.6679,-6.7107,-6.7366,-6.7447,-6.7247,-6.7247,-6.71,-6.6843,-6.6843,-6.6843,-6.6696,-6.5081,-6.3943,-6.2952,-6.0713,-5.774,0.0,0.0,0.0,-4.9077,-4.9297,-4.9627,-5.0141,-5.1463,-5.2711,-5.4032,-5.5647,-5.7997,-6.0566,-6.2732,-6.5067,-6.7252,-6.8886,-6.9859,-7.079,-7.2133,-7.1822,-7.1391,-7.2159,-7.0712,-6.9565,-7.0348,-7.0156,-7.0584,-7.2659,-7.3534,-7.394,-7.3783,-7.3872,-7.3647,-7.2908,-7.4036,-7.5183,-7.598,-7.6732,-7.7696,-7.8963,-7.9963,-8.0605,-8.0824,-8.106,-8.1137,-8.0895,-8.0358,-7.9805,-7.915,-7.7893,-7.7115,-7.6701,-7.602,-7.5303,-7.4593,-7.3815,-7.3105,-7.236,-7.1616,-7.1312,-7.1312,-7.1312,-7.1312,-7.1312,-7.1312,-7.1312,-7.1142,-6.9654,-6.9113,-6.8876,0.0,0.0,0.0,0.0,0.0,0.0,0.0,0.0,0.0,0.0,0.0,0.0,0.0,0.0,0.0,0.0,0.0,0.0,-4.9202,-5.1625,-5.4126,-5.6676,-5.8434,-5.9574,-5.9968,-6.0776,-6.1392,-6.1751,-6.3295,-6.4653,-6.5872,-6.6639,-6.6764,-6.6345,-6.6345,-6.5915,-6.5191,-6.5154,-6.5081,-6.4897,-6.3184,-6.2034,-6.097,-5.785,0.0,0.0,0.0,0.0,-4.581,-4.5112,-4.6544,-4.8746,-4.9554,-5.3041,-5.7189,-5.8817,-6.0529,-6.2548,-6.5815,-6.8458,-7.066,-7.2239,-7.3156,-7.3891,-7.4625,-7.2936,-7.1431,-7.2129,-6.9034,-6.6967,0.0,-6.7949,-6.7703,-7.1492,-7.1477,-7.1427,-7.2725,-7.215,-7.1869,-7.2728,-7.3518,-7.4071,-7.4332,-7.5012,-7.6534,-7.9107,-7.9973,-8.0283,-8.0045,-8.083,-8.0859,-7.9993,-8.0034,-7.915,-7.7248,-7.7204,-7.6701,-7.5709,-7.5676,-7.527,-7.4525,-7.3781,-7.3037,-7.2293,-7.1616,-7.1312,-7.1312,-7.1312,-7.1312,-7.1312,-7.1312,-7.1312,-7.1142,-6.9654,-6.9113,-6.8876,0.0,0.0,0.0,0.0,0.0,0.0,0.0,0.0,0.0,0.0,0.0,0.0,0.0,0.0,0.0,0.0,0.0,0.0,-4.8317,-4.9663,-5.151,-5.4049,-5.6395,-5.8274,-5.9599,-6.0709,-6.1606,-6.2292,-6.2331,-6.2823,-6.3756,-6.3981,-6.4123,-6.4267,-6.4267,-6.3957,-6.3429,-6.2805,-6.2218,-6.1447,0.0,-5.785,-5.6969,0.0,0.0,0.0,0.0,0.0,0.0,0.0,0.0,0.0,0.0,-5.5721,-5.8143,-6.0346,-6.3025,-6.5815,-6.8458,-7.0917,-7.301,-7.4037,-7.4001,-7.3597,-7.3193,-7.1725,-7.011,-6.9119,-6.7122,-6.5577,-6.5642,-6.7048,-6.8775,-7.0383,-7.2774,-7.4476,-7.471,-7.4851,-7.4493,-7.348,-7.4625,-7.5335,-7.4865,-7.5675,-7.6756,-7.8132,-7.8564,-7.8923,-7.9236,-8.023,-7.9918,-7.8092,-7.8049,-7.7411,-7.6114,-7.6114,-7.5973,-7.5676,-7.5134,-7.4492,-7.3747,-7.3003,-7.2293,-7.1582,-7.1379,-7.1312,-7.1312,-7.1312,-7.1312,-7.1312,-7.1312,-7.1312,-7.1142,-6.9654,-6.9113,-6.8876,0.0,0.0,0.0,0.0,0.0,0.0,0.0,0.0,0.0,0.0,0.0,0.0,0.0,0.0,0.0,0.0,0.0,0.0,0.0,-4.7817,-4.9279,-5.1433,-5.2895,-5.4434,-5.6126,-5.7224,-5.7991,-5.8412,0.0,0.0,-6.0034,-6.0413,-6.0491,-6.0306,-6.0306,-6.0041,-5.9612,-5.9134,0.0,0.0,0.0,0.0,0.0,0.0,0.0,0.0,0.0,0.0,0.0,0.0,0.0,-5.6161,-5.7336,-5.9318,-6.1667,-6.409,0.0,-6.8605,-7.1027,-7.3193,-7.4771,-7.4882,-7.4294,-7.3303,-7.1798,-6.9926,-6.7834,-6.5485,-6.4016,-6.2805,-6.163,-6.4053,-6.6709,-6.8138,-7.0998,-7.3367,-7.4576,-7.4583,-7.4206,-7.3569,-7.4651,-7.5149,-7.4439,-7.5146,-7.6049,-7.7011,-7.7663,-7.8329,-7.8952,-7.9103,-7.8582,-7.7336,-7.6837,-7.6312,-7.5709,-7.5709,-7.5709,-7.5676,-7.4965,-7.4221,-7.3443,-7.2732,-7.1988,-7.1312,-7.1312,-7.1312,-7.1312,-7.1312,-7.1312,-7.1312,-7.1312,-7.1312,-7.1142,-6.9654,-6.9113,-6.8876,0.0,0.0,0.0,0.0,0.0,0.0,0.0,0.0,0.0,0.0,-4.5825,0.0,0.0,0.0,0.0,0.0,0.0,0.0,0.0,0.0,0.0,-4.9317,-4.951,-5.0317,-5.1885,-5.2731,-5.3203,-5.3203,0.0,0.0,0.0,0.0,0.0,0.0,0.0,0.0,0.0,0.0,0.0,0.0,0.0,0.0,0.0,0.0,0.0,0.0,0.0,0.0,0.0,0.0,-5.7116,-5.8951,-6.0676,-6.3392,-6.6402,-6.8715,-7.0036,-7.1211,-7.3413,-7.5102,-7.6056,-7.5285,-7.4294,-7.2899,-7.0477,-6.7907,-6.5118,-6.1924,-6.0566,-5.9501,-5.8107,-6.0382,-6.332,-6.5945,0.0,-7.0611,-7.378,-7.3347,-7.2969,-7.368,-7.4356,-7.4492,-7.3849,-7.4356,-7.5173,-7.6244,-7.7097,-7.7872,-7.8746,-7.7822,-7.7248,-7.7071,-7.6207,-7.5709,-7.5709,-7.5709,-7.5642,-7.554,-7.483,-7.4086,-7.3308,-7.2597,-7.1921,-7.1312,-7.1312,-7.1312,-7.1312,-7.1312,-7.1312,-7.1312,-7.1312,-7.1312,-7.1142,-6.9654,-6.9113,-6.8876,0.0,0.0,0.0,0.0,0.0,0.0,0.0,0.0,0.0,0.0,-4.6903,-4.5594,0.0,0.0,0.0,0.0,0.0,0.0,0.0,0.0,0.0,-4.9356,-5.0087,-5.0933,-5.1885,-5.2731,-5.3203,-5.3203,-5.3626,0.0,0.0,0.0,0.0,0.0,0.0,0.0,0.0,0.0,0.0,0.0,0.0,0.0,0.0,0.0,0.0,0.0,0.0,0.0,0.0,0.0,-5.9538,-6.2365,-6.4714,-6.721,-6.9596,-7.1358,-7.2936,-7.4294,-7.5395,-7.6387,-7.687,-7.6093,-7.4294,-7.2092,-6.9669,-6.6182,0.0,0.0,-5.8474,-5.7336,-5.7079,-5.9098,-6.2278,-6.6728,-6.8558,-7.0973,-7.5411,-7.4998,-7.4492,0.0,-7.5439,-7.5473,-7.5337,-7.5439,-7.5956,-7.704,-7.6439,-7.6508,-7.752,-7.7424,-7.6882,-7.602,-7.5771,-7.5709,-7.5709,-7.5709,-7.5405,-7.4796,-7.4052,-7.3308,-7.2563,-7.1853,-7.1447,-7.1312,-7.1312,-7.1312,-7.1312,-7.1312,-7.1312,-7.1312,-7.1312,-7.1312,-7.1142,-6.9654,-6.9113,-6.8876,0.0,0.0,0.0,0.0,0.0,0.0,0.0,-4.7932,-4.8971,-5.1087,-5.0317,-4.9202,-4.8365,-4.7432,-4.6894,0.0,0.0,0.0,0.0,0.0,0.0,0.0,0.0,-5.0433,-5.1279,-5.2087,0.0,0.0,0.0,0.0,0.0,0.0,0.0,0.0,0.0,0.0,0.0,0.0,0.0,0.0,0.0,0.0,0.0,0.0,0.0,0.0,0.0,0.0,0.0,0.0,-5.9465,-6.3367,-6.6696,-6.9412,-7.1688,-7.3303,-7.4294,-7.5175,-7.6387,-7.698,-7.7017,-7.5799,-7.334,-7.0403,-6.7136,0.0,0.0,0.0,-5.6088,-5.5427,-5.5023,-5.7923,-6.1116,-6.3402,-6.5287,-6.8081,-7.2613,-7.2391,-7.2597,-7.4864,-7.5473,-7.5709,-7.5709,-7.6173,-7.7016,-7.8119,-7.716,-7.6747,-7.7292,-7.6747,-7.6219,-7.5709,-7.5709,-7.5709,-7.5709,-7.5709,-7.5337,-7.4593,-7.3849,-7.3105,-7.236,-7.165,-7.1312,-7.1312,-7.1312,-7.1312,-7.1312,-7.1312,-7.1312,-7.1312,-7.1312,-7.1312,-7.1142,-6.9654,-6.9113,-6.8876,0.0,0.0,0.0,0.0,0.0,0.0,0.0,-4.9548,-5.0702,-5.3626,-5.3857,-5.3241,-5.1905,-4.9894,-4.8509,0.0,0.0,0.0,0.0,0.0,0.0,0.0,0.0,-5.051,-5.1202,0.0,0.0,0.0,0.0,0.0,0.0,0.0,0.0,0.0,0.0,0.0,0.0,0.0,0.0,0.0,0.0,0.0,0.0,0.0,0.0,0.0,0.0,0.0,0.0,0.0,-5.8621,-6.2511,-6.6586,-6.9889,-7.2496,-7.378,-7.4625,-7.5432,-7.6717,-7.7163,-7.6907,-7.5322,-7.2349,-6.8825,-6.4971,-6.0676,0.0,-5.462,-5.3995,-5.3739,-5.3277,-5.6455,-5.9396,0.0,-6.2027,-6.4913,-6.9667,-6.9917,-7.0838,0.0,-7.527,0.0,-7.5709,-7.6462,-7.7424,-7.8536,-7.7822,-7.7204,-7.6972,-7.616,-7.5709,-7.5709,-7.5709,-7.5709,-7.5709,-7.554,-7.51,-7.4356,-7.3612,-7.2868,-7.2157,-7.1582,-7.1312,-7.1312,-7.1312,-7.1312,-7.1312,-7.1312,-7.1312,-7.1312,-7.1312,-7.1312,-7.1142,-6.9823,-6.9248,-6.891,0.0,0.0,0.0,0.0,0.0,0.0,0.0,-5.0048,-5.2058,-5.6137,-5.5972,-5.5395,-5.5241,-5.2366,-4.9817,0.0,0.0,0.0,0.0,0.0,0.0,0.0,0.0,0.0,0.0,0.0,0.0,0.0,0.0,0.0,0.0,0.0,0.0,0.0,0.0,0.0,0.0,0.0,0.0,0.0,0.0,0.0,0.0,0.0,0.0,0.0,0.0,0.0,0.0,0.0,0.0,-5.9171,-6.3246,-6.7687,-7.1439,-7.1615,0.0,0.0,-7.6166,-7.6754,-7.6907,-7.5322,-7.1945,-6.8164,-6.4861,0.0,-5.5317,-5.3665,-5.2747,-5.2417,-5.3078,-5.4179,-5.6396,-6.0762,-6.1451,-6.3573,-6.9701,-7.0891,-7.1988,-7.4322,0.0,0.0,-7.5709,-7.5771,-7.6312,-7.738,-7.738,-7.6882,-7.5913,-7.5723,-7.5709,-7.5709,-7.5709,-7.5709,-7.5709,-7.5033,-7.4322,-7.3578,-7.2834,-7.2124,-7.1413,-7.1345,-7.1312,-7.1312,-7.1312,-7.1312,-7.1312,-7.1312,-7.1312,-7.1312,-7.1312,-7.1312,-7.121,-7.0398,-6.9688,-6.8977,0.0,0.0,0.0,0.0,0.0,0.0,-5.0356,-5.0779,-5.2597,-5.7819,-5.778,-5.7242,-5.7242,-5.5588,-5.3174,-4.9933,0.0,0.0,0.0,0.0,0.0,0.0,0.0,0.0,0.0,0.0,0.0,-5.4703,0.0,0.0,0.0,0.0,0.0,0.0,0.0,0.0,0.0,0.0,0.0,0.0,0.0,0.0,0.0,0.0,0.0,0.0,0.0,0.0,0.0,0.0,0.0,0.0,-5.8033,-6.1557,0.0,0.0,-7.1835,-7.3634,-7.5579,-7.668,-7.6907,-7.5322,-7.1505,-6.732,-6.4053,0.0,-5.4546,-5.3424,-5.2564,-5.2234,-5.3078,-5.3849,-5.5354,-5.8253,-5.8234,-5.9549,-6.4405,-6.556,-6.7257,-7.0849,-7.2732,-7.4255,-7.5574,-7.6882,-7.7864,-7.8287,-7.7693,-7.6837,-7.5723,-7.5709,-7.5709,-7.5709,-7.527,-7.5033,-7.5033,-7.4322,-7.3578,-7.2834,-7.2529,-7.2022,-7.1312,-7.1312,-7.1312,-7.1312,-7.1312,-7.1312,-7.1312,-7.1312,-7.1312,-7.1312,-7.1312,-7.1312,-7.121,-7.0466,-6.9722,-6.8977,0.0,0.0,0.0,0.0,0.0,-4.6998,-5.0951,-5.152,-5.328,-5.8473,-5.8858,-5.8665,-5.8665,-5.7434,-5.5406,-5.2443,-5.1741,0.0,0.0,0.0,0.0,0.0,0.0,0.0,0.0,0.0,-5.5511,-5.6088,-5.6191,-5.6249,0.0,0.0,0.0,0.0,0.0,0.0,0.0,0.0,0.0,0.0,0.0,0.0,0.0,0.0,0.0,0.0,0.0,0.0,0.0,0.0,0.0,0.0,0.0,0.0,0.0,0.0,-6.9376,-7.1505,-7.4001,-7.5616,-7.6173,-7.4588,-7.0734,-6.6476,0.0,-5.829,-5.4106,-5.3078,-5.238,-5.216,-5.2747,-5.3518,-5.4583,-5.6198,-5.6188,-5.7334,-6.1184,-6.2474,-6.4439,-6.8285,0.0,-7.2529,-7.4525,-7.6735,-7.8034,-7.8034,-7.7292,-7.6508,-7.5723,-7.5506,-7.5371,-7.5371,-7.4864,-7.4492,-7.4289,-7.3544,-7.2902,-7.2394,-7.2191,-7.1819,-7.1312,-7.1312,-7.1312,-7.1312,-7.1312,-7.1312,-7.1312,-7.1312,-7.1312,-7.1312,-7.1312,-7.1312,-7.121,-7.0466,-6.9722,-6.8977,0.0,0.0,0.0,0.0,0.0,0.0,-5.0317,-5.2153,-5.4395,-5.7857,-5.9011,-5.9473,-5.9473,-5.7242,-5.5703,-5.5665,-5.4126,0.0,0.0,0.0,0.0,0.0,0.0,0.0,0.0,0.0,-5.6983,-5.6983,-5.7404,-5.7558,-5.7558,-5.71,0.0,0.0,0.0,0.0,0.0,0.0,0.0,0.0,0.0,0.0,0.0,0.0,0.0,0.0,0.0,0.0,0.0,0.0,0.0,0.0,0.0,0.0,0.0,0.0,-6.6329,-7.0293,-7.1138,-7.312,-7.4551,-7.2936,-6.9486,-6.5632,-6.2365,-5.785,-5.3959,-5.2344,-5.2013,-5.1977,-5.2013,-5.2674,-5.3739,-5.5354,-5.6225,-5.8013,-6.1835,-6.3659,-6.5401,0.0,-6.9282,-7.0804,-7.2293,-7.4471,-7.5723,-7.5723,-7.5723,-7.5709,-7.5709,-7.4999,-7.4627,-7.4627,-7.4627,-7.4255,-7.351,-7.2766,-7.2394,-7.2394,-7.1684,-7.1312,-7.1312,-7.1312,-7.1312,-7.1312,-7.1312,-7.1312,-7.1312,-7.1312,-7.1312,-7.1312,-7.1312,-7.1312,-7.121,-7.0466,-6.9722,-6.8977,0.0,0.0,0.0,0.0,0.0,0.0,0.0,-4.9847,-5.1356,-5.5934,-5.5742,-5.6088,-5.8434,-5.6896,-5.6165,-5.7357,-5.4857,0.0,0.0,0.0,0.0,0.0,0.0,0.0,0.0,0.0,-5.7965,-5.906,-5.9466,-5.937,-5.8748,-5.8614,-5.7432,-5.5434,0.0,0.0,0.0,0.0,0.0,0.0,0.0,0.0,0.0,0.0,0.0,0.0,0.0,0.0,0.0,0.0,0.0,0.0,0.0,0.0,0.0,-5.6841,0.0,0.0,-6.6843,-6.8972,-7.0293,-6.8128,-6.5778,-6.3282,-6.0566,-5.7483,-5.4766,-5.3151,-5.2821,-5.2821,-5.2821,-5.3041,-5.4268,-5.7556,-5.8262,-5.9434,-6.2328,-6.4362,0.0,-6.7133,-7.1427,-7.4669,-7.5623,-7.6379,-7.6585,-7.608,-7.5331,-7.4728,-7.4221,-7.3984,-7.4086,-7.4593,-7.3612,-7.2969,-7.2732,-7.2022,-7.165,-7.165,-7.1413,-7.1312,-7.1312,-7.1312,-7.1312,-7.1312,-7.1312,-7.1312,-7.1312,-7.1312,-7.1312,-7.1312,-7.1312,-7.1312,-7.121,-7.0466,-6.9722,-6.8977,0.0,0.0,0.0,0.0,0.0,0.0,0.0,-4.8883,-5.0317,-5.3818,-5.3933,-5.4857,-5.7973,-5.6472,-5.6203,-5.855,-5.6242,0.0,0.0,0.0,0.0,0.0,0.0,0.0,0.0,-5.7232,-5.8462,-6.0232,-6.0583,-6.0679,-6.0435,-6.024,-5.8991,-5.6878,-5.6878,0.0,0.0,0.0,0.0,0.0,0.0,0.0,0.0,0.0,0.0,0.0,0.0,0.0,0.0,0.0,0.0,0.0,0.0,0.0,0.0,0.0,-5.6364,-5.9845,0.0,-6.5448,-6.6733,-6.5228,-6.3356,-6.1337,-5.9245,-5.6638,-5.4326,-5.3041,-5.2747,-5.2747,-5.2747,-5.3004,-5.4142,-5.6909,-5.7666,-5.8689,-6.1078,-6.3279,-6.5338,-6.7128,-7.124,-7.4238,-7.495,-7.5534,-7.5671,-7.5234,-7.4582,-7.3984,-7.351,-7.324,-7.3308,-7.3781,-7.2868,-7.2259,-7.1988,-7.1548,-7.1312,-7.1312,-7.1312,-7.1312,-7.1312,-7.1312,-7.1312,-7.1312,-7.1312,-7.1312,0.0,-7.1312,-7.1312,-7.1312,-7.1312,-7.1312,-7.1176,-7.0161,-6.9485,-6.8944,0.0,0.0,0.0,0.0,0.0,0.0,0.0,-4.8998,-5.0818,-5.1692,-5.328,-5.5241,-5.778,-5.5972,-5.5895,-5.9127,0.0,0.0,0.0,0.0,0.0,0.0,0.0,0.0,-5.5837,-5.7042,-5.8669,-6.0696,-6.1005,-6.1592,-6.233,-6.1895,-6.0419,-5.818,-5.8107,-5.7248,0.0,0.0,0.0,0.0,0.0,0.0,0.0,0.0,0.0,0.0,0.0,0.0,0.0,0.0,0.0,0.0,0.0,0.0,0.0,0.0,0.0,0.0,0.0,-6.2144,-6.3356,-6.3246,-6.1557,-5.9501,-5.7923,-5.528,0.0,-5.2087,-5.1903,-5.194,-5.205,-5.2637,-5.3482,-5.4656,-5.5464,-5.6794,-5.9195,-6.1478,-6.4218,-6.7802,-6.9538,-7.0724,-7.1379,-7.2756,-7.3535,-7.3409,-7.3409,-7.3375,-7.3341,-7.2699,-7.2326,-7.2326,-7.2326,-7.1988,-7.1312,-7.1312,-7.1312,-7.1312,-7.1312,-7.1312,-7.1312,-7.1312,-7.1312,-7.1312,-7.1312,-7.1312,-7.1312,-7.1312,-7.1312,-7.1312,-7.1312,-7.1278,-7.1075,-6.962,-6.9079,-6.8808,0.0,0.0,0.0,0.0,0.0,0.0,0.0,0.0,0.0,0.0,-5.1856,-5.3241,-5.5164,-5.5395,-5.628,0.0,0.0,0.0,0.0,0.0,0.0,0.0,0.0,0.0,-5.7116,-5.8063,-5.9482,-6.1505,-6.1827,-6.225,-6.2671,-6.2561,-6.1557,-5.9795,-5.9208,-5.8577,0.0,0.0,0.0,0.0,0.0,0.0,0.0,0.0,0.0,0.0,-5.3298,-5.3203,0.0,0.0,0.0,0.0,0.0,0.0,0.0,0.0,-5.0668,-5.1343,-5.3624,0.0,-5.6381,-5.5133,-5.4876,-5.4656,0.0,-5.2821,-5.205,-5.1242,-5.1096,-5.1463,-5.2711,-5.2564,-5.3739,-5.8253,-5.9171,-6.0555,-6.4202,-6.6535,-6.8688,-7.1026,-7.2389,-7.3086,-7.2993,-7.4032,-7.4175,-7.279,-7.2665,-7.2428,-7.1853,-7.165,-7.1582,-7.1582,-7.1582,-7.1481,-7.1312,-7.1312,-7.1312,-7.1312,-7.1312,-7.1312,-7.1312,-7.1312,-7.1312,-7.1312,-7.1312,-7.1312,-7.1312,-7.1312,-7.1312,-7.1312,-7.1312,-7.0973,-7.0331,-6.9451,-6.8707,-6.8064,0.0,0.0,0.0,0.0,0.0,0.0,0.0,0.0,0.0,0.0,0.0,-5.2538,-5.4318,-5.5203,0.0,0.0,0.0,0.0,0.0,0.0,0.0,0.0,0.0,-5.6929,-5.7532,-5.8164,-5.9643,-6.2046,-6.1989,-6.2459,-6.3392,-6.3392,-6.2328,-6.0346,-5.9171,-5.8666,0.0,0.0,0.0,0.0,0.0,0.0,0.0,0.0,0.0,0.0,-5.272,-5.2637,0.0,-5.3518,-5.3739,-5.3603,0.0,0.0,0.0,0.0,-4.9412,-4.9418,-5.011,-5.2307,-5.4289,-5.3775,-5.3702,-5.3628,-5.3188,-5.194,-5.0785,-5.0325,-5.0251,-5.0618,-5.1867,-5.2344,-5.3775,-5.7593,-5.9134,-6.1629,-6.6761,-6.8598,-7.0236,-7.2339,-7.2681,-7.2712,-7.2474,-7.3024,-7.2942,-7.1966,-7.1887,-7.1718,-7.1345,-7.1312,-7.1312,-7.1312,-7.1312,-7.1312,-7.1312,-7.1312,-7.1312,-7.1312,-7.1312,-7.1312,-7.1312,-7.1312,-7.1312,-7.1312,-7.1312,-7.1312,-7.1312,-7.1312,-7.1312,-7.1278,-7.0939,-7.0534,-7.006,-6.8944,-6.8267,-6.7793,0.0,0.0,0.0,0.0,0.0,0.0,0.0,0.0,0.0,0.0,0.0,0.0,0.0,0.0,0.0,0.0,0.0,0.0,0.0,0.0,0.0,0.0,0.0,-5.7243,-5.7789,-5.8123,-5.9609,-6.2225,-6.2133,-6.2831,-6.4273,-6.453,-6.3172,-6.0529,-5.9024,-5.8474,0.0,0.0,0.0,0.0,0.0,0.0,0.0,0.0,0.0,0.0,0.0,0.0,0.0,-5.3393,-5.3922,-5.3934,-5.3343,0.0,0.0,0.0,0.0,0.0,-4.8746,-5.1573,-5.4436,-5.4641,-5.4363,-5.3995,-5.3885,0.0,0.0,-4.9647,-4.9721,-5.0088,-5.0986,-5.2491,-5.4173,-5.6003,-5.8409,-6.2086,-6.7923,-6.91,-7.0188,-7.2306,-7.183,-7.1312,-7.1312,-7.1312,-7.1312,-7.1312,-7.1312,-7.1312,-7.1312,-7.1312,-7.1312,-7.1312,-7.1312,-7.1312,-7.1312,-7.1312,-7.1312,-7.1312,-7.1312,-7.1312,-7.1312,-7.1312,-7.1312,-7.1312,-7.1312,-7.1312,-7.1312,-7.1312,-7.1312,-7.1244,-7.0466,-7.0128,-6.9857,-6.8436,-6.7827,-6.7658,0.0,0.0,0.0,0.0,0.0,0.0,0.0,0.0,0.0,0.0,0.0,0.0,0.0,0.0,0.0,0.0,0.0,0.0,0.0,0.0,0.0,-5.7698,-5.7505,-5.7978,-5.9186,-5.9183,-6.0109,-6.1939,-6.3553,-6.4583,-6.5154,-6.6512,-6.5081,-6.1374,-6.0456,-5.9328,-5.8142,0.0,0.0,0.0,0.0,0.0,0.0,0.0,0.0,0.0,0.0,0.0,0.0,-5.1347,-5.1793,-5.2107,-5.0681,0.0,0.0,0.0,0.0,0.0,-5.0839,-5.2894,-5.3775,-5.1189,-5.1446,-5.2197,-5.1499,-5.0986,-5.0398,0.0,0.0,-5.1059,-5.2564,-5.4142,-5.6177,-5.9039,-6.1998,-6.5234,-6.8858,-6.9319,-6.9858,-7.1328,-7.1367,-7.1312,-7.1312,-7.1312,-7.1312,-7.1312,-7.1312,-7.1312,-7.1312,-7.1312,-7.1312,-7.1312,-7.1312,-7.1312,-7.1312,-7.1312,-7.1312,-7.1312,-7.1312,-7.1312,-7.1312,-7.1312,-7.1312,-7.1312,-7.1312,-7.1312,-7.1312,-7.1312,-7.1312,-7.1244,-7.0466,-6.9823,-6.9147,-6.8233,-6.7489,-6.6948,0.0,0.0,0.0,0.0,0.0,0.0,0.0,0.0,0.0,0.0,0.0,0.0,0.0,0.0,0.0,0.0,0.0,0.0,0.0,0.0,0.0,-5.8667,-5.8504,-5.8826,-5.9702,-6.0115,-6.1332,-6.3409,-6.4944,-6.6024,-6.6549,-6.5521,-6.3833,-6.152,-5.9832,-5.8841,-5.8397,-5.8611,0.0,0.0,0.0,0.0,0.0,0.0,0.0,0.0,0.0,0.0,0.0,0.0,-5.1758,-5.238,-5.0765,0.0,0.0,0.0,0.0,0.0,-4.9701,-5.1499,-5.2747,-5.1263,-5.2747,-5.4363,-5.3592,-5.2711,-5.2013,-5.161,-5.183,-5.2454,-5.3628,-5.55,-5.8503,-6.3474,-6.6073,-6.8439,-7.1224,-7.0988,-7.0918,-7.2013,-7.1644,-7.1312,-7.1312,-7.1312,-7.1312,-7.1312,-7.1312,-7.1312,-7.1312,-7.1312,-7.1312,-7.1312,-7.1312,-7.1312,-7.1312,-7.1312,-7.1312,-7.1312,-7.1312,-7.1312,-7.1312,-7.1312,-7.1312,-7.1312,-7.1312,-7.1312,-7.1278,-7.0872,-7.0703,-7.0601,-6.9417,-6.8741,-6.8368,-6.759,-6.7117,-6.6812,0.0,0.0,0.0,0.0,0.0,0.0,0.0,0.0,0.0,0.0,0.0,0.0,0.0,0.0,0.0,0.0,0.0,0.0,0.0,0.0,-5.9309,-5.9094,-5.9168,-5.9706,-6.072,-6.1261,-6.2725,-6.5314,-6.6676,-6.776,-6.8458,-6.5411,-6.3209,-6.1777,-5.9575,-5.8629,-5.8733,-5.8815,-5.9337,0.0,0.0,0.0,0.0,0.0,0.0,0.0,0.0,0.0,0.0,0.0,0.0,0.0,0.0,0.0,0.0,-4.9444,-4.86,-4.8489,-4.926,-5.0692,-5.2087,-5.2454,-5.4399,-5.6235,-5.6161,-5.506,-5.4106,-5.4289,-5.4451,-5.4766,-5.517,-5.7674,-6.1542,-6.7293,-6.9085,-7.0541,-7.2965,-7.2146,-7.1545,-7.2345,-7.1776,-7.1312,-7.1312,-7.1312,-7.1312,-7.1312,-7.1312,-7.1312,-7.1312,-7.1312,-7.1312,-7.1312,-7.1312,-7.1312,-7.1312,-7.1312,-7.1312,-7.1312,-7.1312,-7.1312,-7.1312,-7.1312,-7.1312,-7.1312,-7.1142,-7.1041,-7.1007,-7.0263,-6.9925,-6.9789,-6.8436,-6.7793,-6.7557,-6.7015,-6.6812,-6.6812,0.0,0.0,0.0,0.0,0.0,0.0,0.0,0.0,0.0,0.0,0.0,0.0,0.0,0.0,0.0,0.0,0.0,0.0,0.0,0.0,-5.9195,-5.8747,-5.9028,-6.0481,-6.3274,-6.2912,-6.4106,-6.7026,-6.8926,-7.0257,-7.0991,-6.8495,-6.5705,-6.2633,-6.097,-5.9641,-5.8716,-5.9158,-5.9625,-6.0146,0.0,0.0,0.0,0.0,0.0,0.0,0.0,0.0,0.0,0.0,0.0,0.0,0.0,0.0,-5.0839,-5.0655,-4.9517,-4.8967,-5.1993,-5.2417,-5.2344,-5.3849,-5.4399,-5.5133,-5.7336,-5.7152,-5.6748,-5.7483,-5.8253,-5.8584,-5.7886,-6.1485,-6.5765,-6.9338,-6.9661,-7.0294,-7.2749,-7.149,-7.0599,-7.1344,-7.1356,-7.1312,-7.1312,-7.1312,-7.1312,-7.1312,-7.1312,-7.1312,-7.1312,-7.1312,-7.1312,-7.1312,-7.1312,-7.1312,-7.1312,-7.1312,-7.1312,-7.1312,-7.1312,-7.1312,-7.1312,-7.1312,-7.1312,-7.1278,-7.0567,-7.0263,-7.0195,-6.9485,-6.918,-6.9079,-6.8233,-6.7489,-6.688,-6.6846,-6.6812,-6.6812,0.0,0.0,0.0,0.0,0.0,0.0,0.0,0.0,0.0,0.0,0.0,0.0,0.0,0.0,0.0,0.0,0.0,0.0,0.0,-5.9612,-5.9836,-5.9872,-6.0543,-6.1483,-6.2752,-6.4303,-6.6617,-6.9764,-7.0992,-7.1248,-7.0477,-6.7063,-6.4237,-6.1961,-5.9832,-5.8851,-5.8716,-5.9194,-5.9658,-6.0146,-6.0622,0.0,0.0,0.0,0.0,0.0,0.0,0.0,0.0,0.0,-5.0349,-5.0528,-4.9824,-5.0506,-5.1353,-5.0325,-4.9224,-4.8563,-4.9811,-5.1059,-5.2123,-5.2747,-5.4399,-5.6271,-5.7666,-5.8914,-6.0162,-6.152,-6.2034,-6.2144,-6.1851,-6.4077,-6.668,-6.8879,-7.0197,-7.1262,-7.2119,-7.1464,-7.1007,-7.1278,-7.1312,-7.1312,-7.1312,-7.1312,-7.1312,-7.1312,-7.1312,-7.1312,-7.1312,-7.1312,-7.1312,-7.1312,-7.1312,-7.1312,-7.1312,-7.1312,-7.1312,-7.1312,-7.1312,-7.1312,-7.1312,-7.196,-7.1953,-7.1507,-7.1833,-7.1411,-7.034,-6.9584,-6.8937,-6.8267,-6.7523,-6.7049,-6.6812,-6.6812,-6.6812,-6.6812,0.0,0.0,0.0,0.0,0.0,0.0,0.0,0.0,0.0,0.0,0.0,0.0,0.0,0.0,0.0,0.0,0.0,0.0,-5.942,-5.9869,-6.0213,-6.0425,-6.1103,-6.1808,-6.25,-6.5459,-6.8155,-7.0522,-7.1872,-7.1431,-6.9265,-6.5742,-6.3319,-6.1851,-5.9171,-5.8628,-5.9681,-5.9474,-5.9776,-6.0351,-6.0659,-5.9781,0.0,0.0,0.0,0.0,0.0,0.0,0.0,0.0,-5.0374,-5.0596,-4.9864,-5.0639,-5.1536,-5.0348,-4.9738,-4.9407,-4.915,-5.0508,-5.2123,-5.2637,-5.4803,-5.7299,-5.9098,-6.0786,-6.2585,-6.4787,-6.4824,-6.4567,-6.4787,-6.5962,-6.7378,-6.8916,-7.0686,-7.1958,-7.2115,-7.1662,-7.1312,-7.1312,-7.1312,-7.1312,-7.1312,-7.1312,-7.1312,-7.1312,-7.1312,-7.1312,-7.1312,-7.1312,-7.1312,-7.1312,-7.1312,-7.1312,-7.1312,-7.1312,-7.1355,-7.1401,-7.1401,-7.1538,-7.1786,-7.2555,-7.2589,-7.2101,-7.231,-7.1706,-7.0566,-6.9799,-6.9094,-6.8383,-6.7578,-6.7454,-6.7702,-6.7702,-6.7702,-6.7702,0.0,0.0,0.0,0.0,0.0,0.0,0.0,0.0,0.0,0.0,0.0,0.0,0.0,0.0,0.0,0.0,0.0,0.0,-6.0704,-6.0365,-6.0079,-6.0079,-6.0442,-6.1353,-6.2937,-6.6234,-6.8257,-6.8898,-7.1284,-7.0835,-6.7604,-6.5217,-6.3613,-6.2622,-5.9428,-5.9436,-6.1674,-6.0068,-5.9946,-6.0781,-6.0781,-5.9781,0.0,0.0,0.0,0.0,0.0,0.0,0.0,0.0,-4.9781,-4.9717,-5.0922,-5.1303,-5.1249,-5.0868,-5.1353,-5.1793,-5.0986,-5.1353,-5.238,-5.3995,-5.5647,-5.7923,-6.1924,-6.2817,-6.3796,-6.7063,-6.6476,-6.5595,-6.6366,-6.7173,-6.8238,-6.9816,-7.1087,-7.2183,-7.2963,-7.2057,-7.1312,-7.1312,-7.1312,-7.1312,-7.1312,-7.1312,-7.1312,-7.1312,-7.1312,-7.1312,-7.1312,-7.1312,-7.1312,-7.1312,-7.1312,-7.1312,-7.1312,-7.1278,-7.1411,-7.1607,-7.1607,-7.2028,-7.2804,-7.3002,-7.3104,-7.2998,-7.1513,-7.0841,-7.0734,-6.9991,-6.9708,-6.9601,-6.861,-6.8835,-6.9708,-6.9708,-6.9708,-6.9708,0.0,0.0,0.0,0.0,0.0,0.0,0.0,0.0,0.0,0.0,0.0,0.0,0.0,0.0,0.0,0.0,0.0,0.0,-5.9011,-5.9418,-5.9676,-5.9676,-6.0954,-6.1425,-6.0972,-6.3272,-6.6261,-6.9985,-7.0412,-6.8751,-6.5191,-6.3231,-6.1934,-6.1215,-5.9913,-5.9796,-6.0516,-5.9452,-5.9682,-6.0742,-6.0127,-5.9242,0.0,0.0,0.0,0.0,0.0,0.0,0.0,0.0,0.0,0.0,-4.9951,0.0,-5.1862,-5.039,-5.0508,-5.0729,-4.8746,-5.0472,-5.2968,-5.3445,-5.6895,-6.0933,-6.3906,-6.5007,-6.6329,-6.9559,-6.9412,-6.8568,-6.8238,-6.8862,-6.9319,-6.914,-7.0786,-7.1939,-7.1514,-7.1489,-7.1488,-7.1488,-7.1382,-7.1312,-7.1312,-7.1312,-7.1312,-7.1312,-7.0804,-7.0737,-7.1278,-7.0331,-6.9992,-7.05,-7.0026,-6.9755,-6.9755,-7.043,-7.0767,-7.0851,-7.2217,-7.2652,-7.2194,-7.2941,-7.3002,-7.2464,-7.273,-7.2155,-7.0957,-7.006,-6.9708,-6.9672,-6.935,-6.9457,-6.9708,-6.9708,-6.9708,-6.9708,0.0,0.0,0.0,0.0,0.0,0.0,0.0,0.0,0.0,0.0,-6.0781,-6.0781,0.0,0.0,0.0,0.0,0.0,0.0,0.0,-5.9742,-6.0012,-6.0012,-6.1012,-6.1504,-6.1374,-6.3215,-6.5285,-6.759,-6.7923,-6.6399,-6.3239,-6.2902,-6.233,-6.1617,-6.1693,-6.1464,-6.1027,-6.0508,-6.0313,-6.0281,-6.0089,-5.9319,-5.8165,0.0,0.0,0.0,0.0,0.0,0.0,0.0,0.0,0.0,-4.9288,0.0,-5.0641,-4.9991,-5.05,-5.1096,-5.0251,-5.2249,-5.495,-5.6235,-5.9318,-6.2989,-6.6439,-6.7834,-6.9045,-7.1321,-7.0881,-7.0036,-6.9889,-7.0,-7.0043,-6.9768,-7.111,-7.1986,-7.1441,-7.1568,-7.1564,-7.1197,-7.1026,-7.0847,-7.0476,-7.0432,-7.0432,-7.0432,-7.0026,-6.9958,-7.0398,-6.9586,-6.9316,-6.9755,-6.9316,-6.9295,-6.9654,-7.0215,-7.0728,-7.118,-7.2363,-7.2626,-7.2171,-7.3092,-7.3239,-7.2834,-7.3097,-7.2635,-7.1573,-7.0635,-7.0468,-7.0803,-7.04,-7.0501,-7.0836,-7.0836,-7.0836,-7.0836,0.0,0.0,0.0,0.0,0.0,0.0,0.0,0.0,0.0,0.0,-6.0781,-6.0781,0.0,0.0,0.0,0.0,0.0,0.0,0.0,0.0,-6.0666,-6.0666,-6.0819,-6.1666,-6.3281,-6.4782,-6.4782,-6.3205,-6.4592,-6.4049,-6.1762,-6.3463,-6.3859,-6.3158,-6.4026,-6.3706,-6.2468,-6.2207,-6.1042,-5.9435,-6.0089,-5.9473,-5.8011,-5.6319,0.0,0.0,0.0,0.0,0.0,0.0,0.0,0.0,-4.8949,-4.8579,-4.8483,-4.9487,-5.0823,-5.227,-5.3592,-5.539,-5.7666,-6.0713,-6.2438,-6.4567,-6.9155,-7.0844,-7.1651,-7.2349,-7.1321,-7.055,-7.1284,-7.0807,-7.055,-7.1321,-7.1878,-7.2243,-7.2243,-7.2047,-7.1607,-7.0763,-7.0555,-7.0175,-6.9304,-6.9122,-6.9113,-6.9113,-6.9045,-6.9011,-6.9113,-6.8977,-6.891,-6.8977,-6.8996,-6.9449,-7.0297,-7.0461,-7.1075,-7.2076,-7.221,-7.233,-7.2532,-7.3266,-7.3597,-7.356,-7.2826,-7.2496,-7.2438,-7.1573,-7.1732,-7.2438,-7.1573,-7.1763,-7.2496,-7.2496,-7.2496,-7.2496,0.0,0.0,0.0,0.0,0.0,0.0,0.0,0.0,0.0,0.0,0.0,0.0,0.0,0.0,0.0,0.0,0.0,0.0,0.0,0.0,-5.9781,-5.9781,-6.1089,-6.2281,-6.3281,-6.3051,-6.2716,-6.237,-6.3603,-6.3131,-6.1044,-6.2644,-6.3339,-6.3267,-6.3741,-6.3282,-6.2017,-5.9329,-5.8339,-5.8434,-5.728,-5.6973,-5.7165,-5.6088,-5.4664,0.0,0.0,0.0,0.0,0.0,0.0,0.0,-4.8949,-4.8945,-4.8882,-4.7564,-4.9455,-5.1814,-5.0896,-5.4106,-5.8217,-6.0162,-6.4163,-6.8201,-7.0513,-7.1651,-7.2312,-7.2459,-7.2239,-7.2055,-7.2202,-7.2092,-7.2055,-7.2202,-7.2351,-7.2453,-7.2453,-7.2259,-7.207,-7.1829,-7.1026,-7.0424,-7.0215,-6.9527,-6.9113,-6.9113,-6.8504,-6.8436,-6.9079,-6.7963,-6.7557,-6.8132,-6.8289,-6.8507,-6.8709,-7.0204,-7.1063,-7.1348,-7.2079,-7.2468,-7.2496,-7.2679,-7.2753,-7.2753,-7.2569,-7.2496,-7.2467,-7.2285,-7.2314,-7.2467,-7.2285,-7.2314,-7.2496,-7.2496,-7.2496,-7.2496,0.0,0.0,0.0,0.0,0.0,0.0,0.0,0.0,0.0,0.0,0.0,0.0,0.0,0.0,0.0,0.0,0.0,0.0,0.0,0.0,-6.0319,-6.0742,-6.1639,-6.2293,-6.2704,-6.1897,-6.1485,-6.1485,-6.1684,-6.1659,-6.1473,-6.3064,-6.3858,-6.3962,-6.4548,-6.3347,-6.0781,-5.9407,-5.8127,-5.7049,-5.6973,-5.6703,-5.6252,-5.4972,-5.3472,-5.1818,-5.0548,0.0,0.0,0.0,0.0,0.0,0.0,0.0,-4.7869,-4.7575,-4.8787,-5.0468,-5.1785,-5.4847,-5.8622,-6.2377,-6.6145,-6.9229,-7.044,-7.1064,-7.1358,-7.1358,-7.1945,-7.2386,-7.2018,-7.2239,-7.2386,-7.1982,-7.2275,-7.2496,-7.2496,-7.2406,-7.2159,-7.1741,-7.1123,-7.0585,-7.0173,-6.9671,-6.9187,-6.8734,-6.8282,-6.8248,-6.8658,-6.7905,-6.7874,-6.8695,-6.8857,-6.9131,-6.9566,-7.0566,-7.1318,-7.1794,-7.2255,-7.2496,-7.2496,-7.2496,-7.2496,-7.2496,-7.2496,-7.2496,-7.2496,-7.2496,-7.2496,-7.2496,-7.2496,-7.2496,-7.2496,-7.2496,-7.2496,-7.2496,0.0,0.0,0.0,0.0,0.0,0.0,0.0,0.0,0.0,0.0,0.0,0.0,0.0,0.0,0.0,0.0,0.0,0.0,0.0,-6.0781,-6.1166,-6.2062,-6.2101,-6.2178,-6.2293,-6.132,-6.0858,-6.1012,-6.0012,-6.0704,-6.2986,-6.4089,-6.4589,-6.4628,-6.5359,-6.3397,-5.9511,-5.9781,-5.8127,-5.5395,-5.6665,-5.6434,-5.5088,-5.3395,-5.1895,-5.0481,-4.874,-4.8548,-4.9202,-4.9356,0.0,0.0,0.0,0.0,-4.6717,-4.7753,-4.8136,-4.9032,-5.2917,-5.5916,-5.9372,-6.5099,-6.7724,-6.9119,-6.9926,-7.011,-7.011,-7.011,-7.1174,-7.1872,-7.1211,-7.1651,-7.1908,-7.1366,-7.1872,-7.2349,-7.2496,-7.2496,-7.2226,-7.1412,-7.1191,-7.08,-7.0023,-6.9814,-6.935,-6.8534,-6.8458,-6.8458,-6.8458,-6.8458,-6.8835,-6.9672,-6.9884,-7.0332,-7.1095,-7.1255,-7.1732,-7.2496,-7.2496,-7.2496,-7.2496,-7.2496,-7.2496,-7.2496,-7.2496,-7.2496,-7.2496,-7.2496,-7.2496,-7.2496,-7.2496,-7.2496,-7.2496,-7.2496,-7.2496,-7.2496,0.0,0.0,0.0,0.0,0.0,0.0,0.0,0.0,0.0,0.0,-6.0781,-6.0742,-6.0627,-6.005,0.0,0.0,0.0,0.0,-6.0742,0.0,0.0,-6.2062,-6.2101,-6.2435,-6.3128,-6.1589,-6.1166,-6.1947,-6.0281,-6.1897,-6.6397,-6.5166,-6.4589,-6.4628,-6.4705,-6.282,-5.9358,-5.728,-5.528,-5.351,-5.2962,-5.3077,-5.3356,-5.1664,-5.0904,-5.0481,-4.874,-4.8163,-4.8394,-4.9163,-4.9394,0.0,0.0,0.0,-4.7198,-4.5954,-4.6822,-4.8497,-4.9762,0.0,-6.1404,0.0,-6.7724,-6.9119,0.0,-7.011,-7.011,-7.011,-7.0257,-7.0403,-7.0293,-7.033,-7.0624,-7.1183,-7.1366,-7.1725,-7.2422,-7.2496,-7.2467,-7.2314,-7.1573,-7.1063,-7.0898,-7.0196,-6.9672,-6.9494,-6.9494,-6.9494,-6.9494,-6.9494,-6.9565,-6.9708,-7.0501,-7.0962,-7.1127,-7.1885,-7.238,-7.2496,-7.2496,-7.2496,-7.2496,-7.2496,-7.2496,-7.2496,-7.2496,-7.2496,-7.2496,-7.2496,-7.2496,-7.2496,-7.2496,-7.2496,-7.2496,-7.2496,-7.2496,-7.2496,0.0,0.0,0.0,0.0,0.0,0.0,0.0,0.0,0.0,0.0,0.0,-6.0589,-6.0127,-6.0165,0.0,0.0,0.0,0.0,-6.005,-6.0512,0.0,0.0,-6.1639,-6.155,-6.1897,-6.0242,-5.9588,-5.9973,-5.8704,-6.0973,-6.6397,-6.5667,-6.632,-6.8013,-6.5667,-6.2974,-6.0012,-5.6973,-5.4741,-5.3126,-5.2231,-5.2972,-5.4203,-5.0625,-5.0125,-5.0971,-4.7817,-4.7009,-4.7509,-4.7855,-4.8317,-4.8548,-4.7702,0.0,0.0,0.0,-4.6352,-4.8207,-5.1602,-5.565,-5.9838,0.0,-6.5888,-6.71,-6.7907,-6.8421,-6.8752,-6.8752,-6.8752,-6.8898,-6.9339,-6.9816,-7.0073,-6.9963,-7.033,-7.077,-7.1101,-7.1174,-7.1174,-7.1174,-7.0814,-7.0572,-7.0572,-7.0138,-6.9697,-6.9179,-6.9146,-6.9146,-6.9146,-6.9146,-6.9376,-6.9922,-7.0326,-7.0572,-7.0572,-7.093,-7.1174,-7.1174,-7.1174,-7.1174,-7.1174,-7.1174,-7.1651,-7.2496,-7.2496,-7.2496,-7.2496,-7.2496,-7.2496,-7.2496,-7.2496,-7.2496,-7.2496,-7.2496,-7.2202,-7.1908,0.0,0.0,0.0,0.0,0.0,0.0,0.0,0.0,0.0,0.0,0.0,0.0,-5.9896,0.0,0.0,0.0,0.0,0.0,-5.9204,0.0,0.0,0.0,0.0,-6.0473,-6.0473,-5.8819,-5.8088,-5.8319,-5.7434,-6.0369,-6.6859,-6.6628,-6.8783,-7.2629,-6.7975,-6.4128,-6.0896,-5.7703,-5.5511,-5.4087,-5.301,-5.3703,-5.5049,-5.1895,-5.1731,-5.2654,-4.8625,-4.7471,-4.7778,-4.7124,-4.7317,-4.7702,-4.7077,-4.6885,0.0,0.0,0.0,-4.7588,0.0,0.0,-5.7266,-6.1127,-6.3579,-6.5189,0.0,-6.6821,-6.7531,-6.7447,-6.754,-6.7871,-6.8495,-6.9082,-6.9339,-6.8972,-6.9412,-6.9853,-7.0073,-7.011,-7.011,-7.011,-7.011,-7.011,-7.011,-7.011,-6.9811,-6.9122,-6.9062,-6.9062,-6.9062,-6.9062,-6.9398,-7.011,-7.011,-7.011,-7.011,-7.011,-7.011,-7.011,-7.011,-7.011,-7.011,-7.011,-7.0734,-7.1908,-7.1908,-7.1908,-7.1908,-7.1908,-7.1908,-7.1908,-7.2129,-7.2092,-7.1908,-7.2129,-7.1688,-7.1101,0.0,0.0,0.0,0.0,0.0,0.0,0.0,0.0,0.0,0.0,0.0,0.0,-6.0742,-6.005,-5.9511,-5.9435,0.0,0.0,0.0,0.0,0.0,0.0,0.0,0.0,-5.9588,-5.7934,-5.7473,-5.8319,-5.7434,-6.1281,-6.9475,-6.8667,-7.1783,-7.7861,-7.2014,-6.6667,-6.187,-5.9281,-5.7627,-5.6676,-5.5011,-5.4434,-5.478,-5.6934,-5.7357,-5.6269,-5.2808,-5.1125,-5.0135,-4.7702,-4.6923,-4.6962,-4.6923,-4.6885,-4.674,0.0,0.0,0.0,0.0,-5.1355,0.0,-5.7531,-6.1319,-6.4339,0.0,-6.6049,-6.7096,-6.6644,-6.7173,-6.7687,-6.7724,-6.7797,-6.8054,-6.8788,-6.8935,-6.9229,-7.0,-7.011,-7.011,-7.011,-7.011,-7.011,-7.011,-7.011,-7.0073,-7.0017,-7.0017,-7.0017,-7.0017,-7.0017,-7.0045,-7.011,-7.011,-7.011,-7.011,-7.011,-7.011,-7.011,-7.011,-7.011,-7.011,-7.011,-7.0146,-7.022,-7.022,-7.022,-7.022,-7.022,-7.022,-7.0293,-7.1064,-7.0917,-7.033,-7.1101,-7.0844,-7.0293,0.0,0.0,0.0,0.0,0.0,0.0,0.0,0.0,0.0,0.0,0.0,0.0,0.0,-6.0512,-5.9896,-5.8819,-5.7934,0.0,0.0,0.0,0.0,0.0,0.0,0.0,0.0,-5.8127,-5.7203,-5.5857,-5.6049,-5.9127,-6.482,-6.559,-6.7821,-7.1129,-6.9552,-6.7552,-6.4936,-5.9704,-5.728,-5.6868,-5.5164,-5.6126,-5.8396,-5.7126,-5.778,-5.8973,-5.5588,-5.3472,-5.2087,-5.0615,-4.9,-4.7586,-4.7038,-4.6509,-4.6009,-4.571,-4.5594,-4.6106,0.0,0.0,0.0,-5.5131,-5.8153,-6.0529,-6.1728,-6.3894,-6.5543,-6.5369,-6.5803,-6.6145,-6.6145,-6.699,-6.7797,-6.8091,-6.8128,-6.8238,-6.8495,-6.8531,-6.8531,-6.8531,-6.8531,-6.8531,-6.8531,-6.8531,-6.8531,-6.8531,-6.8531,-6.8531,-6.8531,-6.8531,-6.8531,-6.8531,-6.8531,-6.8531,-6.8531,-6.8531,-6.8531,-6.8531,-6.8531,-6.8531,-6.8531,-6.8531,-6.8531,-6.8531,-6.8531,-6.9155,-7.011,-7.011,-7.011,-7.011,-7.0403,-7.0367,-7.011,-7.0403,-7.033,-7.022,0.0,0.0,0.0,0.0,0.0,0.0,0.0,0.0,-6.0781,-6.0781,0.0,0.0,0.0,0.0,-6.0127,-5.8434,-5.7511,-5.6868,-5.6599,-5.7126,0.0,0.0,0.0,0.0,0.0,-5.8011,-5.6896,-5.4895,-5.5164,-5.7473,-6.1678,-6.2781,-6.4974,-6.7898,-6.6474,-6.6167,-6.6359,-6.1281,-5.8946,-5.8599,-5.7165,-5.828,-6.0781,-6.0512,-6.1281,-6.2166,-5.9627,-5.7434,-5.5434,-5.3472,-5.1279,-4.9192,-4.8086,-4.674,-4.5594,-4.5594,-4.5594,-4.5979,-4.7663,0.0,0.0,0.0,-5.5393,-5.7172,-6.011,-6.1977,-6.3413,-6.4353,-6.4833,-6.5201,-6.5484,-6.6302,-6.699,-6.7247,-6.7504,-6.7687,-6.7687,-6.7687,-6.7687,-6.7687,-6.7687,-6.7687,-6.7687,-6.7687,-6.7687,-6.7687,-6.7687,-6.7687,-6.7687,-6.7687,-6.7687,-6.7687,-6.7687,-6.7687,-6.7687,-6.7687,-6.7687,-6.7687,-6.7687,-6.7687,-6.7687,-6.7687,-6.7687,-6.7687,-6.7687,-6.8311,-6.9265,-6.9265,-6.9265,-6.9302,-6.9596,-6.9522,-6.9339,-6.9596,-6.9706,-6.9816,0.0,0.0,0.0,0.0,0.0,0.0,0.0,0.0,-6.0781,-6.0781,0.0,0.0,0.0,0.0,0.0,-5.8511,-5.755,-5.6676,-5.578,-5.5703,0.0,0.0,0.0,0.0,-5.8319,-5.7473,-5.6599,-5.5665,-5.4895,-5.6588,-6.0589,-6.0627,-6.3743,-6.909,-6.332,-6.2589,-6.5513,-6.3782,-6.2704,-6.2062,-6.1089,-6.0858,-6.1627,-6.7398,-6.8129,-6.5936,-6.5051,-6.3128,-6.0358,-5.6203,-5.3587,-5.1769,-4.9971,-4.7663,-4.5594,-4.5594,-4.5594,-4.5594,0.0,0.0,0.0,0.0,0.0,0.0,-5.9817,0.0,-6.0653,-6.3539,-6.4346,-6.4815,-6.5754,-6.5533,-6.5511,-6.6319,-6.7126,-6.765,-6.765,-6.7687,-6.7687,-6.7687,-6.7687,-6.7687,-6.7687,-6.7687,-6.7687,-6.7687,-6.7687,-6.7687,-6.7687,-6.7687,-6.7687,-6.7687,-6.7687,-6.7687,-6.7687,-6.7687,-6.7687,-6.7687,-6.7687,-6.7687,-6.7687,-6.7687,-6.7687,-6.7687,-6.7687,-6.7687,-6.7687,-6.7687,-6.7687,-6.776,-6.8568,-6.8385,-6.7797,-6.8568,-6.8898,-6.9009,0.0,0.0,0.0,0.0,0.0,-6.0781,-6.0781,-6.0781,-6.0781,0.0,0.0,0.0,-6.0781,-6.0781,-6.0589,-6.0165,-5.8781,-5.755,-5.6714,-5.6049,-5.6088,-5.6945,-5.7819,-5.8319,-5.8319,-5.805,-5.6934,-5.4818,-5.4626,-5.478,-5.5318,-5.6549,-5.8319,-6.0485,-6.005,-5.9704,-5.9369,-5.7665,-5.9281,-6.2743,-6.005,-6.1935,-6.6359,-6.6782,-6.8013,-6.9398,-6.859,-6.7013,-6.4974,-6.2627,-5.9473,-5.5703,-5.0894,-4.7663,-4.5594,-4.5594,-4.5594,-4.5594,-4.5594,0.0,0.0,0.0,0.0,0.0,0.0,0.0,-5.6393,-5.9649,-6.0048,-6.0679,-6.3405,-6.3941,-6.4281,-6.5143,-6.616,-6.6843,-6.6843,-6.732,-6.7687,-6.7687,-6.7687,-6.7687,-6.7687,-6.7687,-6.7687,-6.7687,-6.7687,-6.7687,-6.7687,-6.7687,-6.7687,-6.7687,-6.7687,-6.7687,-6.7687,-6.7687,-6.7687,-6.7687,-6.7687,-6.7687,-6.7687,-6.7687,-6.7687,-6.7687,-6.7687,-6.7687,-6.7687,-6.7687,-6.7687,-6.7724,-6.7944,-6.7907,-6.7724,-6.7944,-6.8385,-6.8935,0.0,0.0,0.0,-6.0816,-6.1089,-6.1216,-6.0858,-6.1089,-6.1204,0.0,0.0,0.0,-6.0781,-6.205,-6.2204,-6.0396,-5.9358,-5.828,-5.7099,-5.6175,-5.5934,-5.6445,-5.7627,-5.8319,-5.8319,-5.8319,-5.7203,-5.5011,-5.4318,-5.351,-5.2692,-5.3664,-5.4587,-5.5434,-5.5703,-5.5895,-5.5791,-5.3395,-5.578,-6.1243,-6.1396,-6.382,-6.7475,-6.8629,-6.9821,-7.0937,-7.1206,-7.0167,-6.8436,-6.6744,-6.2666,-5.7396,-5.2087,-4.9202,-4.7441,-4.6018,-4.6364,-4.7009,-4.6317,-4.6394,-4.6932,-4.8163,0.0,0.0,-5.2702,-5.3195,-5.423,-5.8693,-5.9208,-5.9668,-6.2408,-6.2862,-6.3086,-6.395,-6.492,-6.5655,-6.5967,-6.6402,-6.6696,-6.6696,-6.6696,-6.6843,-6.7173,-6.7173,-6.732,-6.765,-6.7687,-6.7687,-6.7687,-6.7687,-6.7687,-6.7687,-6.7687,-6.7687,-6.7687,-6.7687,-6.7687,-6.7687,-6.7687,-6.7687,-6.7687,-6.7687,-6.7687,-6.7687,-6.7687,-6.7687,-6.7687,-6.7687,-6.7687,-6.7687,-6.7687,-6.7687,-6.7687,-6.7687,-6.8201,-6.8898,0.0,0.0,-6.0781,-6.0781,-6.1524,-6.187,-6.1166,-6.1666,-6.1908,0.0,-6.1435,-6.155,-6.1781,-6.4243,-6.4359,-6.055,-5.9858,-5.8934,-5.7253,-5.6319,-5.578,-5.5703,-5.7357,-5.8242,-5.8165,-5.8242,-5.7396,-5.5549,-5.3972,-5.2702,-5.1769,-5.1769,-5.2115,-5.2702,-5.1202,-5.1818,-5.3741,-5.1087,-5.3203,-5.8704,-6.332,-6.5705,-6.6936,-7.1475,-7.2476,-7.1668,-7.3129,-7.2629,-7.1052,-6.9167,-6.418,-5.807,-5.3842,-5.1813,-5.0294,-4.6993,-4.7703,-4.9259,-4.7607,-4.7838,-4.8808,-5.0048,-4.8952,0.0,-5.3626,-5.3126,-5.3192,-5.8665,-5.9383,-5.9584,-6.162,-6.1619,-6.1596,-6.2331,-6.3332,-6.4316,-6.5214,-6.5382,-6.5367,-6.5367,-6.5327,-6.5595,-6.6292,-6.6366,-6.6659,-6.7357,-6.7504,-6.7614,-6.7687,-6.7687,-6.7687,-6.7687,-6.7687,-6.7687,-6.7687,-6.7687,-6.7687,-6.7687,-6.7687,-6.7687,-6.7687,-6.7687,-6.7687,-6.7687,-6.7687,-6.7687,-6.7687,-6.7687,-6.7687,-6.7687,-6.7687,-6.7687,-6.7687,-6.7687,-6.8128,-6.8788,0.0,-6.025,-6.0781,-6.0781,-6.1524,-6.2243,-6.2743,-6.2397,-6.2793,-6.4666,-6.5474,-6.6397,-6.7821,-6.6744,-6.5551,-6.4705,-6.2127,-5.9819,-5.8165,-5.7242,-5.6445,-5.5742,-5.7357,-5.7973,-5.7291,-5.7934,-5.7126,-5.4741,-5.3703,-5.2433,-5.0933,-5.0933,-5.0664,-5.0125,-4.9779,-4.9933,-5.051,-5.2626,-5.5357,-5.8434,-6.0089,-6.4436,-7.0014,-7.1014,-7.2899,-7.4976,-7.4591,-7.4245,-7.3514,-7.0475,-6.6019,-6.1144,-5.7605,-5.469,-5.2031,-4.9414,-4.9682,-5.057,-4.9246,-4.9995,-5.0681,-4.8613,-5.0057,0.0,-4.9125,-4.9279,-5.0587,-5.3115,-5.3035,-5.3646,-5.742,-5.8217,-5.8388,-5.8578,-6.0677,-6.3031,-6.5223,-6.5732,-6.5845,-6.5845,-6.5533,-6.5375,-6.5521,-6.5521,-6.5595,-6.5778,-6.6366,-6.7026,-6.765,-6.7687,-6.7687,-6.7687,-6.7687,-6.7687,-6.7687,-6.7687,-6.7687,-6.7687,-6.7687,-6.7687,-6.7687,-6.7687,-6.7687,-6.7687,-6.7687,-6.7687,-6.7687,-6.7687,-6.7687,-6.7687,-6.7687,-6.7687,-6.7687,-6.7687,-6.7797,-6.7907,-5.9419,-6.0204,-6.0935,-6.1358,-6.2127,-6.282,-6.3243,-6.332,-6.3974,-6.5667,-6.7705,-6.8706,-6.7898,-6.7398,-6.6282,-6.4166,-6.205,-6.0089,-5.8396,-5.7473,-5.6599,-5.5742,-5.6934,-5.7665,-5.7665,-5.7665,-5.6819,-5.5088,-5.3818,-5.2125,-5.0048,-5.0048,-5.0048,-5.001,-4.9125,-4.9702,-5.1318,-5.1779,-5.4164,-5.8011,-6.2243,-6.6744,-7.1091,-7.2783,-7.4514,-7.5938,-7.5515,-7.5091,-7.413,-7.0321,-6.6998,-6.3672,-5.9007,-5.6891,-5.5413,-5.1688,-5.1934,-5.2944,-5.0889,-5.1294,-5.1882,-5.0354,-5.096,0.0,0.0,-4.9545,-5.024,-5.3203,-5.2472,-5.2318,-5.5752,-5.6172,-5.6281,-5.7124,-5.9144,-6.1241,-6.2955,-6.3973,-6.4491,-6.4212,-6.397,-6.3861,-6.4042,-6.4457,-6.4861,-6.5264,-6.5668,-6.6256,-6.7063,-6.71,-6.7283,-6.7687,-6.7687,-6.7687,-6.7687,-6.7687,-6.7687,-6.7687,-6.7687,-6.7687,-6.7687,-6.7687,-6.7687,-6.7687,-6.7687,-6.7687,-6.7687,-6.7687,-6.7687,-6.7687,-6.7687,-6.7687,-6.7687,-6.7687,-6.7687,-6.7687,-5.9127,-6.0089,-6.0973,-6.1524,-6.2551,-6.3346,-6.3512,-6.4166,-6.5089,-6.6436,-6.9436,-7.0475,-6.809,-6.8629,-6.7821,-6.4589,-6.2589,-6.0973,-5.9588,-5.8242,-5.7088,-5.6242,-5.6714,-5.7253,-5.778,-5.7088,-5.6175,-5.4972,-5.3472,-5.1587,-4.9394,-4.9394,-4.9779,-5.0404,-4.9317,-5.0471,-5.3087,-5.1164,-5.351,-5.9023,-6.5359,-6.8629,-7.009,-7.3822,-7.5284,-7.5322,-7.5822,-7.5553,-7.4308,-7.0137,-6.7867,-6.5694,-5.9823,-5.8689,-5.8578,-5.3916,-5.4282,-5.5597,-5.2973,-5.3038,-5.3677,-5.2741,-5.232,-5.2066,0.0,0.0,0.0,-5.3808,-5.2856,-5.2087,0.0,0.0,-5.4203,-5.5588,-5.7473,-5.9011,-5.9704,-6.1186,-6.2178,-6.2176,-6.218,-6.2256,-6.2474,-6.2769,-6.3429,-6.4714,-6.453,-6.4934,-6.6219,-6.6256,-6.6623,-6.743,-6.7467,-6.754,-6.7687,-6.7687,-6.7687,-6.7687,-6.7687,-6.7687,-6.7687,-6.7687,-6.7687,-6.7687,-6.7687,-6.7687,-6.7687,-6.7687,-6.7687,-6.7687,-6.7687,-6.7687,-6.7687,-6.7687,-6.7687,-6.7687,-5.828,-5.9704,-6.0589,-5.9896,-6.1743,-6.3551,-6.432,-6.4551,-6.5705,-6.8859,-7.1591,-7.363,-7.4745,-7.3014,-7.1898,-7.2168,-6.7282,-6.4089,-6.3897,-6.0935,-5.8858,-5.805,-5.7357,-5.6676,-5.6011,-5.5895,-5.4703,-5.2308,-5.1433,-5.0433,-4.9394,-4.9394,-4.9433,-4.9586,-5.0894,-5.2115,-5.3241,-5.3703,-5.7703,-6.3897,-6.5513,-6.582,-6.5859,-7.0744,-7.2629,-7.2937,-7.5207,-7.5938,-7.524,-7.1328,-6.9081,-6.7033,-6.1467,-5.9961,-5.9615,-5.619,-5.664,-5.7896,-5.6183,-5.711,-5.7564,-5.3577,-5.4971,-5.5799,-4.9953,0.0,-5.0903,-5.023,0.0,-5.001,-5.1058,0.0,0.0,-5.1366,-5.4049,-5.6165,-5.628,-5.7751,-5.9485,-6.1225,-6.1702,-6.1692,-6.131,-5.9715,-5.9905,-6.2853,-6.1777,-6.2291,-6.5301,-6.5448,-6.5815,-6.6623,-6.6623,-6.699,-6.7687,-6.7687,-6.7687,-6.7687,-6.7687,-6.7687,-6.7687,-6.7687,-6.7687,-6.7687,-6.7687,-6.7687,-6.7687,-6.7687,-6.7687,-6.7687,-6.7687,-6.7687,-6.7687,-6.7687,-6.7687,-6.7687,-5.8127,-5.9242,-5.9935,-5.955,-6.1204,-6.2897,-6.3743,-6.6782,-6.9321,-7.0283,-7.3053,-7.5207,-7.5938,-7.3745,-7.2552,-7.3437,-6.986,-6.6705,-6.4743,-6.2781,-6.0704,-5.8396,-5.7473,-5.683,-5.6483,-5.5511,-5.4241,-5.2654,-5.1356,-5.001,-4.8663,-4.8663,-4.9702,-5.1625,-5.2356,-5.478,-5.8242,-5.6626,-5.8165,-6.1743,-6.3128,-6.3474,-6.3974,-7.1514,-7.4399,-7.4553,-7.563,-7.5749,-7.4949,-7.1362,-6.9039,-6.7107,-6.3792,-6.1647,-6.0126,-5.8767,-5.8511,-5.832,-5.6682,-5.7753,-5.8452,-5.4882,-5.5329,-5.5589,-5.1277,-5.0088,-5.0042,-5.0719,0.0,0.0,0.0,0.0,0.0,0.0,-5.1933,-5.3318,-5.2856,0.0,-5.6848,-5.8897,-5.8775,-5.8942,-5.9947,-5.9062,-5.936,-6.1633,-6.0498,-6.0933,-6.3723,-6.4347,-6.4971,-6.5778,-6.5815,-6.6182,-6.699,-6.699,-6.7247,-6.7687,-6.7687,-6.7687,-6.7687,-6.7687,-6.7687,-6.7687,-6.7687,-6.7687,-6.7687,-6.7687,-6.7687,-6.7687,-6.7687,-6.7687,-6.7687,-6.7687,-6.7687,-6.7687,-5.7473,-5.8434,-5.9165,-5.9165,-6.0589,-6.2243,-6.3782,-6.7705,-7.0669,-7.1274,-7.3703,-7.5746,-7.6671,-7.5129,-7.4434,-7.5476,-7.3053,-7.0283,-6.7552,-6.5282,-6.3051,-6.0819,-5.855,-5.7473,-5.7665,-5.5588,-5.3972,-5.2856,-5.1164,-4.9817,-4.8817,-4.8586,-5.0048,-5.2895,-5.3818,-5.7049,-6.1601,-5.9588,-6.0358,-6.3051,-6.3858,-6.4871,-6.6564,-7.2629,-7.5399,-7.5962,-7.5818,-7.5463,-7.4559,-7.1181,-6.9093,-6.7566,-6.5278,-6.3234,-6.163,-6.0933,-6.0467,-5.977,-5.7739,-5.8534,-5.9101,-5.5715,-5.506,-5.4568,-5.1864,-5.061,-5.0418,-5.1804,-5.1267,0.0,0.0,0.0,-4.9894,-5.0048,0.0,-5.1625,0.0,-5.2087,0.0,-5.6129,-5.6289,-5.6905,-5.8656,-5.7826,-5.8086,-6.0236,-5.8961,-5.9348,-6.2328,-6.3062,-6.387,-6.4934,-6.4971,-6.5375,-6.6145,-6.6402,-6.6769,-6.7357,-6.7577,-6.7687,-6.7687,-6.7687,-6.7687,-6.7687,-6.7687,-6.7687,-6.7687,-6.7687,-6.7687,-6.7687,-6.7687,-6.7687,-6.7687,-6.7687,-6.7687,-6.7687,-5.578,-5.7165,-5.8357,-5.8357,-5.9742,-6.1973,-6.532,-6.5974,-6.7651,-7.1887,-7.3274,-7.5122,-7.8363,-7.8623,-7.9198,-8.07,-7.7746,-7.5399,-7.4437,-6.9013,-6.6128,-6.6782,-6.132,-5.8627,-5.9396,-5.6203,-5.3664,-5.1923,-5.0279,-4.9817,-5.0596,-4.974,-5.0279,-5.2077,-5.5385,-5.8357,-6.0935,-6.2474,-6.6474,-7.1668,-7.009,-7.1898,-7.5322,-7.3129,-7.386,-7.5932,-7.5323,-7.5109,-7.4543,-7.1021,-6.9761,-6.9059,-6.5324,-6.4593,-6.4677,-6.2254,-6.2683,-6.3346,-6.0534,-6.0626,-6.0393,-5.5685,-5.4466,-5.3571,-5.031,-5.145,-5.3034,-5.2654,-5.4795,-5.6483,-5.5665,-5.4857,-5.3741,0.0,0.0,0.0,0.0,0.0,0.0,-5.3028,-5.5096,-5.6643,-5.7582,-5.5064,-5.4859,-5.8432,-5.6474,-5.7047,-6.1398,-6.1667,-6.2438,-6.409,-6.4127,-6.453,-6.5338,-6.6109,-6.6512,-6.6549,-6.732,-6.7687,-6.7687,-6.7687,-6.7687,-6.7687,-6.7687,-6.7687,-6.7687,-6.7687,-6.7687,-6.7687,-6.7687,-6.7687,-6.7687,-6.7687,-6.7687,-6.7687,-5.6693,-5.7562,-5.7934,-5.678,-5.8434,-6.1089,-6.4512,-6.7544,-7.0573,-7.3809,-7.595,-7.8533,-8.2037,-8.1812,-8.2029,-8.3656,-8.1104,-7.8515,-7.6553,-7.2437,-6.9706,-6.8859,-6.4205,-6.1473,-6.1243,-5.8473,-5.5895,-5.3626,-5.2472,-5.1779,-5.1471,-5.0664,-5.1164,-5.2885,-5.5731,-5.9346,-6.3397,-6.4551,-6.6821,-6.9706,-6.9706,-7.2245,-7.5899,-7.5053,-7.5245,-7.5932,-7.5306,-7.4886,-7.4313,-7.2702,-7.0845,-6.9063,-6.8319,-6.6439,-6.4457,-6.4127,-6.3886,-6.341,-6.215,-6.3131,-6.3271,-5.8106,-5.6814,-5.5711,-5.1613,-5.2027,-5.3171,-5.2717,-5.4948,-5.6714,-5.5857,-5.5049,0.0,0.0,0.0,0.0,0.0,0.0,-4.8471,-5.0433,-5.2801,-5.4154,-5.3874,-5.4218,-5.5175,-5.6948,-5.6274,-5.7158,-6.0292,-6.1185,-6.1851,-6.2438,-6.2952,-6.3649,-6.4494,-6.4787,-6.5448,-6.6512,-6.6769,-6.7173,-6.7687,-6.7687,-6.7687,-6.7687,-6.7687,-6.7687,-6.7687,-6.7687,-6.7687,-6.7687,-6.7687,-6.7687,-6.7687,-6.7687,-6.7687,-6.7687,-5.7589,-5.7738,-5.7665,-5.7126,-5.9237,-6.1885,-6.469,-6.8926,-7.2729,-7.5393,-7.7968,-8.0816,-8.4039,-8.3705,-8.3779,-8.5098,-8.3529,-8.1093,-7.7938,-7.5399,-7.3245,-7.1552,-6.7705,-6.532,-6.482,-6.1704,-5.8819,-5.628,-5.4818,-5.3818,-5.3241,-5.1779,-5.1856,-5.3318,-5.5857,-5.9511,-6.3858,-6.6244,-6.8552,-7.0706,-7.1591,-7.3553,-7.6015,-7.6015,-7.5848,-7.56,-7.5017,-7.4447,-7.3888,-7.3264,-7.181,-7.0183,-7.011,-6.8311,-6.6145,-6.5815,-6.5397,-6.4768,-6.3566,-6.4476,-6.4633,-6.0,-5.8841,-5.7794,-5.3746,-5.4315,-5.5492,-5.4757,-5.6715,-5.8537,-5.8412,-5.7011,-5.528,0.0,0.0,0.0,0.0,-4.6971,-4.774,-4.8817,0.0,0.0,0.0,-5.3272,-5.4294,-5.6161,-5.5534,-5.635,-5.9268,-6.0563,-6.13,-6.1594,-6.2401,-6.3062,-6.3613,-6.3943,-6.4604,-6.5632,-6.6219,-6.6769,-6.7283,-6.7577,-6.7687,-6.7687,-6.7687,-6.7687,-6.7687,-6.7687,-6.7687,-6.7687,-6.7687,-6.7687,-6.7687,-6.7687,-6.7687,-6.7687,-5.8333,-5.7873,-5.783,-5.9396,-6.1795,-6.4102,-6.5943,-6.992,-7.3754,-7.6646,-7.9271,-8.1883,-8.4455,-8.4513,-8.4572,-8.5211,-8.5034,-8.317,-7.9092,-7.7938,-7.6707,-7.5091,-7.1745,-6.9937,-6.9898,-6.5667,-6.2243,-5.9704,-5.7126,-5.5857,-5.5703,-5.3241,-5.25,-5.3318,-5.5857,-5.8907,-6.2447,-6.7475,-7.1629,-7.4861,-7.5668,-7.6015,-7.6015,-7.5962,-7.5584,-7.4999,-7.4485,-7.3911,-7.329,-7.2714,-7.2496,-7.2239,-7.066,-7.011,-6.9633,-6.7283,-6.7136,-6.7173,-6.4897,-6.4824,-6.4677,-6.1447,-6.0603,-5.9722,-5.6528,-5.8063,-5.9771,-5.8621,-6.0058,-6.1884,-6.2925,-6.0515,-5.7796,0.0,0.0,0.0,0.0,0.0,-4.8086,-4.8163,0.0,0.0,0.0,-5.2087,-5.2231,-5.5821,-5.4186,-5.4658,0.0,-5.9604,-6.0603,-6.152,-6.2328,-6.2768,-6.278,-6.3613,-6.4053,-6.4127,-6.5705,-6.6476,-6.6512,-6.732,-6.7687,-6.7687,-6.7687,-6.7687,-6.7687,-6.7687,-6.7687,-6.7687,-6.7687,-6.7687,-6.7687,-6.7687,-6.7687,-6.7687,-5.8549,-6.0197,-6.182,-6.2243,-6.1968,-6.3115,-6.7368,-7.0089,-7.3348,-7.8199,-8.0953,-8.3542,-8.6435,-8.6384,-8.6208,-8.6379,-8.5498,-8.4439,-8.3324,-8.0669,-7.9246,-7.9438,-7.5592,-7.3129,-7.2552,-6.8321,-6.4897,-6.232,-5.9781,-5.7896,-5.6637,-5.5318,-5.4164,-5.3318,-5.5857,-5.8907,-6.2409,-6.6859,-7.1437,-7.5707,-7.5899,-7.6015,-7.5947,-7.548,-7.498,-7.4506,-7.4358,-7.3911,-7.329,-7.2714,-7.2496,-7.2312,-7.1321,-7.0587,-6.9853,-6.8641,-6.8017,-6.754,-6.6916,-6.6916,-6.6586,-6.4567,-6.3135,-6.1667,-5.9648,-6.0522,-6.1347,-5.9826,-6.1657,-6.2993,-6.1177,-6.0141,-5.8501,0.0,0.0,0.0,0.0,-4.7317,-4.7663,-4.8933,-4.8355,0.0,-4.9625,-5.0856,-5.197,-5.2971,-5.2582,-5.4027,-5.801,-5.7365,-5.7997,-6.0639,-6.1484,-6.2218,-6.278,-6.3025,-6.3466,-6.409,-6.5118,-6.5925,-6.6512,-6.732,-6.7687,-6.7687,-6.7687,-6.7687,-6.7687,-6.7687,-6.7687,-6.7687,-6.7687,-6.7687,-6.7687,-6.7687,-6.7687,-6.7687,-6.0115,-6.2744,-6.5089,-6.5462,-6.5803,-6.7053,-7.0058,-7.2068,-7.4787,-7.9035,-8.174,-8.388,-8.5487,-8.6329,-8.6774,-8.6661,-8.5921,-8.4939,-8.3824,-8.2324,-8.117,-8.0554,-7.8207,-7.6361,-7.5207,-7.1706,-6.8282,-6.4974,-6.205,-5.9588,-5.7511,-5.5549,-5.4087,-5.328,-5.5472,-5.7907,-6.0819,-6.6936,-7.1591,-7.4976,-7.5707,-7.6015,0.0,-7.5323,-7.4789,-7.4271,-7.4003,-7.3516,-7.2943,-7.2602,-7.2496,-7.2349,-7.1578,-7.0991,-7.0403,-6.9229,-6.8568,-6.8128,-6.7797,-6.7687,-6.7467,-6.6586,-6.5632,-6.453,-6.2915,-6.3112,-6.3257,-6.1794,-6.2537,-6.3011,-6.1629,-5.9874,-5.7256,-5.2959,0.0,-4.885,-4.7296,-4.7138,-4.7364,-4.7959,-4.7674,-4.7471,-4.7586,-4.8885,-5.0192,-5.1279,-5.1548,-5.2923,-5.5755,-5.655,-5.7803,-5.9795,-6.1006,-6.1998,-6.278,-6.278,-6.3062,-6.3539,-6.4751,-6.5558,-6.5999,-6.7173,-6.7687,-6.7687,-6.7687,-6.7687,-6.7687,-6.7687,-6.7687,-6.7687,-6.7687,-6.7687,-6.7687,-6.7687,-6.7687,-6.7687,-6.2334,-6.5225,-6.7641,-6.8129,-7.0838,-7.3082,-7.3574,-7.5251,-7.7419,-7.9883,-8.246,-8.3973,-8.383,-8.5604,-8.6719,-8.6505,-8.6253,-8.517,-8.2939,-8.3285,-8.2593,-8.04,-8.0092,-7.9246,-7.7669,-7.4938,-7.1437,-6.7282,-6.3794,-6.0666,-5.7896,-5.4934,0.0,0.0,0.0,-5.7203,-5.9973,-6.7628,-7.1975,-7.3783,-7.5361,-7.6015,-7.5932,-7.5323,-7.4789,-7.4228,-7.3602,-7.3024,-7.2496,-7.2496,-7.2496,-7.2386,-7.1688,-7.1366,-7.0999,-6.9633,-6.9082,-6.8752,-6.8054,-6.776,-6.7687,-6.7687,-6.7687,-6.732,-6.5925,-6.5632,-6.5271,-6.4053,-6.3215,-6.2721,-6.2824,-5.9583,-5.54,-5.0802,-4.986,-4.9031,-4.7033,-4.7391,-4.7609,-4.7022,-4.7739,0.0,-4.7154,-4.7038,-4.7971,-5.0212,-5.047,-5.1351,-5.316,-5.6052,-5.818,-5.9318,-6.0713,-6.1887,-6.278,-6.278,-6.278,-6.2817,-6.4494,-6.5301,-6.5375,-6.6953,-6.7687,-6.7687,-6.7687,-6.7687,-6.7687,-6.7687,-6.7687,-6.7687,-6.7687,-6.7687,-6.7687,-6.7797,-6.7834,-6.7834,-6.3981,-6.6996,-6.8983,-6.7564,-7.1598,-7.5762,-7.7774,-7.9013,-8.0484,-8.2616,-8.5019,-8.646,-8.6441,-8.6663,-8.6719,-8.6505,-8.6253,-8.5901,-8.5478,-8.4286,-8.3401,-8.2939,-8.1593,-8.04,-7.94,-7.5515,-7.1745,-6.8167,-6.4089,-6.0062,-5.6126,-5.5549,-5.4511,0.0,0.0,0.0,-6.5782,-6.9398,-7.2283,-7.4591,-7.5592,-7.6015,-7.5932,-7.5323,-7.4789,-7.4228,-7.3602,-7.3024,-7.2496,-7.2496,-7.2496,-7.2496,-7.2349,-7.1835,-7.1219,-7.0991,-6.9963,-6.8862,-6.8752,-6.8201,-6.7687,-6.7687,-6.7687,-6.7614,-6.732,-6.7283,-6.6833,-6.5345,-6.4867,-6.4082,-6.1858,-5.8897,-5.6082,-5.3892,-5.2347,-5.1556,-5.1795,-5.0564,-4.982,-5.0304,-4.9663,-4.8817,-4.7971,-4.7894,-4.8086,-4.8509,-4.7684,-4.9201,-5.3839,-5.3137,-5.4916,-6.0015,-6.0456,-6.1337,-6.2805,-6.278,-6.278,-6.2817,-6.4494,-6.5301,-6.5375,-6.6953,-6.7687,-6.7687,-6.7687,-6.7687,-6.7687,-6.7687,-6.7687,-6.7687,-6.7687,-6.7687,-6.776,-6.8458,-6.8678,-6.8678,-6.7705,-6.9617,-7.127,-7.1781,-7.5338,-7.8876,-8.0997,-8.2921,-8.3989,-8.3632,-8.4563,-8.5189,-8.4941,-8.6054,-8.6661,-8.6331,-8.6168,-8.6094,-8.6094,-8.4516,-8.3593,-8.3593,-8.1977,-8.0708,-7.9823,-7.6976,-7.336,-6.909,-6.5243,-6.0973,-5.6368,-5.5011,-5.3972,-5.3318,0.0,-6.0704,0.0,-6.9013,-7.1475,-7.3553,-7.5284,-7.6015,-7.5932,-7.5323,-7.4789,-7.4228,-7.3602,-7.3024,-7.2496,-7.2496,-7.2496,-7.2496,-7.2496,-7.2239,-7.1835,-7.1403,-7.0477,-6.9449,-6.9009,-6.8311,-6.7687,-6.7687,-6.7687,-6.7687,-6.7687,-6.7687,-6.7247,-6.5632,-6.5301,-6.4239,-6.0771,-5.8312,-5.6268,-5.4651,-5.3386,-5.2549,-5.2531,-5.1836,-5.1058,-5.0354,-5.0316,-4.9586,-4.7645,-4.7855,-4.774,-4.6855,-4.705,-4.8727,-5.2203,-5.2669,-5.48,-5.9011,-5.9979,-6.097,-6.2181,-6.2585,-6.3025,-6.3503,-6.4714,-6.5521,-6.5962,-6.7136,-6.7687,-6.7687,-6.7687,-6.7687,-6.7687,-6.7687,-6.7687,-6.7687,-6.7687,-6.7944,-6.8385,-6.8752,-6.9449,-7.011,-7.139,-7.2392,-7.3814,-7.5973,-7.8886,-8.1431,-8.3061,-8.5693,-8.6758,-8.4687,-8.4414,-8.4236,-8.3766,-8.5563,-8.6609,-8.612,-8.6094,-8.6094,-8.6094,-8.4516,-8.3593,-8.3593,-8.1977,-8.0785,-8.0092,-7.84,-7.513,-7.0244,-6.6821,-6.2435,-5.7242,-5.5011,-5.4203,-5.4664,-5.7742,-6.1435,-6.5628,-6.8667,-7.1014,-7.2899,-7.513,-7.6015,-7.5947,-7.5463,-7.4943,-7.4401,-7.3818,-7.3198,-7.2686,-7.2553,-7.2496,-7.2496,-7.2496,-7.2496,-7.2386,-7.1762,-7.0991,-7.0183,-6.9376,-6.8568,-6.7907,-6.7724,-6.7687,-6.7687,-6.7687,-6.7687,-6.7247,-6.5632,-6.5044,-6.3686,-6.0102,-5.8414,-5.6969,-5.5207,-5.4216,-5.3555,-5.3078,-5.2895,-5.2155,-5.0525,-5.0837,-5.0174,-4.7577,-4.7626,-4.7317,-4.597,-4.6932,-4.8564,-5.0868,-5.2595,-5.493,-5.8039,-5.9462,-6.0529,-6.1337,-6.2328,-6.3246,-6.409,-6.4934,-6.5742,-6.6512,-6.732,-6.7687,-6.7687,-6.7687,-6.7687,-6.7687,-6.7687,-6.7687,-6.7724,-6.7871,-6.8348,-6.8935,-6.9302,-7.022,-7.1219,-7.3491,-7.4963,-7.6272,-7.6526,-7.9665,-8.2413,-8.3194,-8.5693,-8.7422,-8.7187,-8.7148,-8.6971,-8.6475,-8.6661,-8.6609,-8.612,-8.6094,-8.6094,-8.6094,-8.4516,-8.3593,-8.3593,-8.1977,-8.1054,-8.0977,-7.9285,-7.6284,-7.1975,-6.8552,-6.3897,-5.8165,-5.7126,-5.7434,-5.8973,-6.0896,-6.4089,-6.8167,-7.0014,-7.2206,-7.4553,-7.5592,-7.6015,-7.5976,-7.5932,-7.5551,-7.4961,-7.4422,-7.3818,-7.325,-7.2686,-7.2496,-7.2496,-7.2496,-7.2496,-7.2496,-7.2422,-7.1835,-7.1027,-7.022,-6.9412,-6.8605,-6.7871,-6.7687,-6.7687,-6.7687,-6.7687,-6.7247,-6.5632,-6.409,-6.2475,-6.0639,-6.0162,-5.9318,-5.6969,-5.5904,-5.5611,-5.6271,-5.4822,-5.3572,-5.333,-5.2115,-5.0583,-4.8803,-4.7652,-4.6962,-4.6778,-4.6201,-4.7739,-5.2106,-5.1427,-5.3311,-5.8466,-5.9079,-5.9698,-6.0493,-6.2034,-6.3246,-6.409,-6.4934,-6.5742,-6.6512,-6.732,-6.7687,-6.7687,-6.7687,-6.7687,-6.7687,-6.7687,-6.7687,-6.776,-6.8495,-6.8825,-6.9082,-7.055,-7.1146,-7.1366,-7.6753,-7.703,-7.7904,-8.0202,-8.147,-8.2992,-8.5459,-8.6795,-8.75,-8.75,-8.75,-8.7323,-8.6864,-8.6817,-8.6609,-8.612,-8.6094,-8.6094,-8.6094,-8.4516,-8.3593,-8.3593,-8.1977,-8.1093,-8.1093,-7.99,-7.7438,-7.3707,-7.0321,-6.5897,-6.055,-5.9165,-5.9435,-6.1166,-6.3897,-6.6628,-6.9321,-7.1552,-7.3322,-7.4784,-7.5668,-7.6015,-7.6015,-7.6015,-7.5654,-7.5036,-7.4506,-7.3911,-7.329,-7.2714,-7.2496,-7.2496,-7.2496,-7.2496,-7.2496,-7.2496,-7.1945,-7.1109,-7.033,-6.9522,-6.8715,-6.7907,-6.7687,-6.7687,-6.7687,-6.7687,-6.7247,-6.5632,-6.398,-6.2475,-6.1337,-6.0346,-5.9368,-5.8377,-5.7152,-5.6602,-5.7409,-5.6411,-5.5336,-5.4556,-5.3219,-5.1514,-4.9356,-4.8226,-4.7751,-4.8039,-4.6355,-4.6843,-5.0454,-5.0863,-5.2567,-5.6013,-5.8589,-5.9832,-5.9661,-6.2291,-6.4016,-6.4824,-6.5632,-6.6439,-6.721,-6.754,-6.7687,-6.7687,-6.7687,-6.7687,-6.7687,-6.7687,-6.7981,-6.8458,-6.8788,-6.9486,-7.044,-7.1036,-7.1615,-7.2092,-7.9171,-7.9068,-7.9912,-8.3188,-8.3526,-8.4243,-8.707,-8.75,-8.746,-8.7376,-8.7375,-8.7222,-8.6857,-8.6756,-8.656,-8.6159,-8.6094,-8.6094,-8.6094,-8.4516,-8.3593,-8.3593,-8.1977,-8.1093,-8.1093,-8.0516,-7.8746,-7.5822,-7.2937,-6.9206,-6.464,-6.2666,-6.2666,-6.4436,-6.7051,-6.9206,-7.0937,-7.3014,-7.4322,-7.513,-7.5745,-7.6015,-7.6015,-7.6015,-7.5718,-7.5289,-7.4749,-7.4146,-7.3553,-7.297,-7.2658,-7.2496,-7.2496,-7.2496,-7.2496,-7.2496,-7.2092,-7.1505,-7.066,-6.9889,-6.9045,-6.8238,-6.7871,-6.7687,-6.7687,-6.7687,-6.7247,-6.5632,-6.398,-6.2658,-6.2071,-6.0823,-5.9758,-5.9258,-5.823,-5.7556,-5.7629,-5.6969,-5.6036,-5.4953,-5.3289,-5.1539,-4.979,-4.872,-4.8464,-4.9303,-4.7631,-4.7767,-5.0549,-5.085,-5.2289,-5.5228,-5.8382,-5.9905,-5.9551,-6.2585,-6.4494,-6.5301,-6.6109,-6.6916,-6.7687,-6.7687,-6.7687,-6.7687,-6.7687,-6.7687,-6.7687,-6.7687,-6.8164,-6.8935,-6.9155,-7.011,-7.1329,-7.1578,-7.2018,-7.2496,-8.017,-8.1249,-8.257,-8.453,-8.5586,-8.6445,-8.7344,-8.75,-8.7417,-8.7159,-8.7108,-8.7019,-8.6802,-8.6627,-8.6376,-8.6126,-8.6094,-8.6094,-8.6094,-8.4516,-8.3593,-8.3593,-8.1977,-8.1093,-8.1093,-8.1093,-8.0208,-7.8438,-7.6746,-7.4168,-7.0744,-6.8205,-6.7936,-6.9629,-7.0475,-7.1822,-7.3514,-7.4361,-7.5207,-7.5976,-7.6015,-7.6015,-7.6015,-7.6015,-7.6015,-7.5917,-7.5306,-7.4769,-7.4206,-7.3578,-7.2997,-7.2496,-7.2496,-7.2496,-7.2496,-7.2496,-7.2496,-7.2312,-7.1476,-7.0697,-6.9889,-6.9082,-6.8274,-6.7687,-6.7687,-6.7687,-6.7247,-6.5632,-6.398,-6.278,-6.2805,-6.2108,-6.1043,-5.9441,-5.9184,-5.8597,-5.7042,-5.6124,-5.5317,-5.4509,-5.1859,-5.0112,-5.009,-4.894,-4.8903,-5.0561,-5.0293,-5.1131,-5.3606,-5.1437,-5.2363,-5.7297,-5.8585,-5.9588,-6.0382,-6.2842,-6.4494,-6.5301,-6.6109,-6.6916,-6.7687,-6.7687,-6.7687,-6.7687,-6.7687,-6.7687,-6.7687,-6.7687,-6.8164,-6.8972,-6.9779,-7.0587,-7.1431,-7.2202,-7.2496,-7.2496,-8.1181,-8.2145,-8.3312,-8.4647,-8.5625,-8.6484,-8.7383,-8.75,-8.7416,-8.7159,-8.6986,-8.6833,-8.6627,-8.6541,-8.6376,-8.6126,-8.6094,-8.5863,-8.5324,-8.4209,-8.3324,-8.2747,-8.167,-8.1093,-8.1093,-8.1093,-8.0554,-7.94,-7.7707,-7.5438,-7.2668,-7.186,-7.2052,-7.3168,-7.463,-7.5553,-7.613,-7.6938,-7.7438,-7.7707,-7.7707,-7.7707,-7.7707,-7.7707,-7.7707,-7.7547,-7.6415,-7.5875,-7.5548,-7.4416,-7.3888,-7.376,-7.376,-7.3145,-7.2496,-7.2496,-7.2496,-7.2312,-7.1541,-7.1138,-7.0587,-6.9229,-6.8715,-6.8385,-6.7834,-6.6843,-6.5925,-6.5411,-6.398,-6.278,-6.278,-6.2144,-6.1263,-6.0199,-5.9551,-5.8817,-5.7776,-5.6932,-5.6124,-5.5317,-5.3691,-5.2308,-5.1484,-5.099,-5.0851,-5.1149,-5.0514,-5.0681,-5.2032,-5.2697,-5.3748,-5.5339,-5.8382,-6.0162,-6.0419,-6.3392,-6.5044,-6.5338,-6.6659,-6.743,-6.7687,-6.7687,-6.7687,-6.7687,-6.7687,-6.7687,-6.7724,-6.8274,-6.8972,-6.9816,-7.0624,-7.1431,-7.2165,-7.2422,-7.2496,-7.2496,-8.1753,-8.2682,-8.3732,-8.4726,-8.5625,-8.6484,-8.7383,-8.75,-8.7374,-8.7019,-8.6894,-8.669,-8.6376,-8.636,-8.6143,-8.5687,-8.567,-8.5286,-8.4478,-8.3593,-8.2862,-8.2324,-8.1516,-8.1093,-8.1093,-8.1093,-8.0823,-8.0285,-7.89,-7.7438,-7.5861,-7.5515,-7.5668,-7.6169,-7.7246,-7.7746,-7.7784,-7.8299,-7.8477,-7.8477,-7.8477,-7.8477,-7.8477,-7.8477,-7.8477,-7.8369,-7.75,-7.7047,-7.6693,-7.5489,-7.4939,-7.4692,-7.4406,-7.3639,-7.2844,-7.2844,-7.2686,-7.2386,-7.1908,-7.1513,-7.1036,-7.0073,-6.9376,-6.8678,-6.7871,-6.6696,-6.5668,-6.5375,-6.4237,-6.3209,-6.2853,-6.2401,-6.1777,-6.097,-6.0199,-5.9391,-5.8547,-5.7519,-5.6492,-5.5684,-5.4675,-5.3612,-5.2548,-5.2697,-5.2883,-5.2974,-5.3008,-5.3154,-5.3358,-5.3997,-5.495,-5.6161,-5.9245,-6.1153,-6.1777,-6.4127,-6.5448,-6.5778,-6.7063,-6.7687,-6.7687,-6.7687,-6.7687,-6.7687,-6.7687,-6.7687,-6.776,-6.8568,-6.9376,-7.0183,-7.0991,-7.1798,-7.2496,-7.2496,-7.2496,-7.2496,-8.1958,-8.2832,-8.3867,-8.4726,-8.5625,-8.6484,-8.7383,-8.75,-8.7325,-8.6872,-8.6817,-8.662,-8.6153,-8.6094,-8.5747,-8.4901,-8.4863,-8.4516,-8.367,-8.2785,-8.2285,-8.2208,-8.1516,-8.1093,-8.1093,-8.1093,-8.1093,-8.1093,-8.0285,-7.99,-7.9862,-7.9054,-7.8669,-7.8669,-7.8669,-7.8669,-7.8669,-7.8669,-7.8669,-7.8669,-7.8669,-7.8669,-7.8669,-7.8669,-7.8669,-7.8669,-7.8592,-7.8278,-7.772,-7.6824,-7.6178,-7.5577,-7.4838,-7.4093,-7.3541,-7.3417,-7.297,-7.2496,-7.2496,-7.1945,-7.1394,-7.1293,-7.011,-6.8715,-6.7944,-6.71,-6.6292,-6.5558,-6.4714,-6.3833,-6.3062,-6.2842,-6.2511,-6.1667,-6.0896,-6.0126,-5.9221,-5.785,-5.6602,-5.5757,-5.5023,-5.4252,-5.3445,-5.4106,-5.484,-5.5559,-5.7042,-5.7593,-5.6932,-5.5537,-5.6124,-5.9111,-6.0823,-6.2438,-6.4053,-6.4971,-6.5778,-6.6586,-6.732,-6.7687,-6.7687,-6.7687,-6.7724,-6.776,-6.776,-6.7797,-6.7907,-6.8715,-6.9522,-7.0257,-7.1064,-7.1835,-7.2496,-7.2496,-7.2496,-7.2496,-8.1746,-8.2762,-8.3826,-8.4536,-8.5538,-8.6484,-8.7383,-8.75,-8.7325,-8.6872,-8.6817,-8.662,-8.6153,-8.6094,-8.5517,-8.4055,-8.4516,-8.4516,-8.367,-8.2785,-8.2016,-8.14,-8.1208,-8.1093,-8.1093,-8.1093,-8.1093,-8.1093,-8.09,-8.0785,-8.0785,-8.0592,-8.0477,-8.0477,-8.0477,-8.0477,-8.0477,-8.0477,-8.0477,-8.0477,-8.0477,-8.0477,-8.0477,-8.0477,-8.0477,-8.04,-7.9746,-7.9415,-7.9182,-7.8299,-7.7889,-7.7768,-7.7577,-7.635,-7.4778,-7.3715,-7.297,-7.2496,-7.2496,-7.2349,-7.2092,-7.1439,-7.011,-6.8862,-6.8678,-6.7504,-6.6439,-6.6256,-6.5081,-6.4016,-6.3833,-6.3246,-6.2365,-6.0896,-6.0529,-5.9905,-5.8474,-5.796,-5.7409,-5.6602,-5.6345,-5.5904,-5.5097,-5.5757,-5.6051,-5.5633,-5.6528,-5.7262,-5.7703,-5.796,-5.8414,-5.9184,-6.1374,-6.3025,-6.409,-6.5521,-6.6623,-6.7393,-6.7614,-6.7687,-6.7687,-6.7687,-6.8017,-6.8605,-6.8605,-6.8972,-6.9596,-7.0403,-7.0844,-7.1101,-7.1908,-7.2349,-7.2496,-7.2496,-7.2496,-7.2496,-8.1664,-8.258,-8.36,-8.4455,-8.539,-8.6357,-8.7343,-8.75,-8.7325,-8.6872,-8.6466,-8.6048,-8.5613,-8.5209,-8.4593,-8.367,-8.4016,-8.3785,-8.2554,-8.2016,-8.1554,-8.1131,-8.1093,-8.1093,-8.1093,-8.1093,-8.1093,-8.1093,-8.1093,-8.1093,-8.1093,-8.1093,-8.1093,-8.1093,-8.1093,-8.1093,-8.1093,-8.1093,-8.1093,-8.1093,-8.1093,-8.1093,-8.1093,-8.1093,-8.1093,-8.1054,-8.0554,-8.04,-8.0246,-7.94,-7.9092,-7.9015,-7.8631,-7.7377,-7.5909,-7.515,-7.3755,-7.2496,-7.2496,-7.2496,-7.2312,-7.1476,-7.0367,-6.9339,-6.8972,-6.7944,-6.6953,-6.6586,-6.5815,-6.4971,-6.4237,-6.3723,-6.2879,-6.1227,-6.0639,-5.9979,-5.8731,-5.8217,-5.796,-5.7923,-5.79,-5.7886,-5.7813,-5.818,-5.8107,-5.7299,-5.8327,-5.8877,-5.8547,-6.0382,-6.1263,-6.0835,-6.2511,-6.398,-6.5191,-6.6439,-6.7247,-6.7687,-6.8054,-6.8238,-6.8238,-6.8641,-6.9045,-6.9449,-6.9449,-6.9706,-7.0146,-7.0991,-7.1293,-7.1366,-7.2202,-7.2496,-7.2496,-7.2496,-7.2496,-7.2496,-8.1636,-8.2395,-8.329,-8.4215,-8.5184,-8.6161,-8.7147,-8.7304,-8.713,-8.6677,-8.5844,-8.5155,-8.4766,-8.4055,-8.3555,-8.3401,-8.3401,-8.2785,-8.1362,-8.117,-8.1093,-8.1093,-8.1093,-8.1093,-8.1093,-8.1093,-8.1093,-8.1093,-8.1093,-8.1093,-8.1093,-8.1093,-8.1093,-8.1093,-8.1093,-8.1093,-8.1093,-8.1093,-8.1093,-8.1093,-8.1093,-8.1093,-8.1093,-8.1093,-8.1093,-8.1093,-8.1093,-8.1093,-8.0977,-8.0246,-8.0015,-7.9862,-7.9131,-7.7969,-7.6897,-7.6897,-7.497,-7.2826,-7.2716,-7.2606,-7.2349,-7.1651,-7.0881,-7.011,-6.9412,-6.8568,-6.7687,-6.699,-6.6659,-6.6072,-6.4714,-6.4237,-6.3539,-6.1851,-6.0933,-6.0089,-5.9148,-5.8547,-5.8437,-5.9111,-5.9294,-5.9625,-6.0346,-6.0419,-6.0162,-5.9588,-6.0713,-6.1006,-6.0015,-6.2475,-6.3723,-6.3392,-6.409,-6.5154,-6.6659,-6.7357,-6.776,-6.7871,-6.8568,-6.8972,-6.9119,-6.9779,-7.0183,-7.0293,-7.0293,-7.033,-7.0513,-7.1211,-7.1505,-7.1578,-7.2239,-7.2496,-7.2496,-7.2496,-7.2496,-7.2496,-8.1436,-8.229,-8.3065,-8.3212,-8.4702,-8.6008,-8.6366,-8.6406,-8.6231,-8.575,-8.4949,-8.4251,-8.3842,-8.367,-8.3285,-8.2554,-8.2516,-8.2401,-8.2131,-8.1477,-8.1093,-8.1093,-8.1093,-8.1093,-8.1093,-8.1093,-8.1093,-8.1093,-8.1093,-8.1093,-8.1093,-8.1093,-8.1093,-8.1093,-8.1093,-8.1093,-8.1093,-8.1093,-8.1093,-8.1093,-8.1093,-8.1093,-8.1093,-8.1093,-8.1093,-8.1093,-8.1093,-8.1093,-8.1093,-8.0939,-8.09,-8.0862,-8.0746,-7.9362,-7.7787,-7.7787,-7.6264,-7.4404,-7.3707,-7.301,-7.2459,-7.2349,-7.1725,-7.1101,-7.0991,-6.9779,-6.8678,-6.8568,-6.7467,-6.6402,-6.6182,-6.5007,-6.3539,-6.1851,-6.0933,-5.9869,-5.84,-5.8657,-5.9038,-5.9184,-5.9795,-6.0272,-6.0382,-6.0419,-6.0639,-6.119,-6.0823,-6.1374,-6.3246,-6.3135,-6.3906,-6.5852,-6.6072,-6.6549,-6.7504,-6.7614,-6.8017,-6.8715,-6.8862,-6.9265,-6.9926,-7.0036,-7.0477,-7.1138,-7.1138,-7.1505,-7.2129,-7.2275,-7.2312,-7.2349,-7.2459,-7.2496,-7.2496,-7.2496,-7.2496,-7.2496,-8.1256,-8.2007,-8.2688,-8.2979,-8.4104,-8.5083,-8.5467,-8.5508,-8.5333,-8.4847,-8.4062,-8.3407,-8.2956,-8.2516,-8.2093,-8.1708,-8.1631,-8.1631,-8.1631,-8.1323,-8.1093,-8.1093,-8.1093,-8.1093,-8.1093,-8.1093,-8.1093,-8.1093,-8.1093,-8.1093,-8.1093,-8.1093,-8.1093,-8.1093,-8.1093,-8.1093,-8.1093,-8.1093,-8.1093,-8.1093,-8.1093,-8.1093,-8.1093,-8.1093,-8.1093,-8.1093,-8.1093,-8.1093,-8.1093,-8.1093,-8.1093,-8.1093,-8.1093,-8.0177,-7.9052,-7.8746,-7.6562,-7.4184,-7.378,-7.312,-7.2496,-7.2496,-7.1908,-7.1293,-7.1293,-7.0403,-6.9412,-6.9009,-6.8311,-6.754,-6.6659,-6.5521,-6.4347,-6.3135,-6.152,-6.0126,-5.9391,-5.9245,-5.9368,-5.9771,-6.0566,-6.141,-6.2291,-6.2401,-6.2548,-6.2915,-6.2989,-6.3356,-6.4053,-6.453,-6.5338,-6.6476,-6.6916,-6.754,-6.8348,-6.8348,-6.8752,-6.9559,-7.0,-7.0403,-7.077,-7.1211,-7.1615,-7.1945,-7.1945,-7.2165,-7.2496,-7.2496,-7.2496,-7.2496,-7.2496,-7.2496,-7.2496,-7.2496,-7.2496,-7.2496,-8.1093,-8.1593,-8.2154,-8.2625,-8.34,-8.4065,-8.4528,-8.4569,-8.438,-8.3983,-8.3165,-8.2453,-8.2055,-8.1477,-8.1093,-8.1093,-8.1093,-8.1093,-8.1093,-8.1093,-8.1093,-8.1093,-8.1093,-8.1093,-8.1093,-8.1093,-8.1093,-8.1093,-8.1093,-8.1093,-8.1093,-8.1093,-8.1093,-8.1093,-8.1093,-8.1093,-8.1093,-8.1093,-8.1093,-8.1093,-8.1093,-8.1093,-8.1093,-8.1093,-8.1093,-8.1093,-8.1093,-8.1093,-8.1093,-8.1093,-8.1093,-8.1093,-8.1093,-8.0626,-7.9969,-7.938,-7.686,-7.4184,-7.378,-7.323,-7.2716,-7.2569,-7.2055,-7.1578,-7.1578,-7.0954,-7.022,-6.9596,-6.9302,-6.8752,-6.732,-6.6402,-6.5485,-6.4273,-6.2328,-6.0823,-6.0456,-6.0199,-6.0248,-6.0896,-6.1851,-6.2952,-6.4237,-6.4383,-6.4383,-6.4383,-6.4971,-6.5118,-6.4677,-6.5815,-6.6659,-6.7063,-6.765,-6.8274,-6.8898,-6.9082,-6.9596,-7.0403,-7.1027,-7.1431,-7.1615,-7.2239,-7.2496,-7.2496,-7.2496,-7.2496,-7.2496,-7.2496,-7.2496,-7.2496,-7.2496,-7.2496,-7.2496,-7.2496,-7.2496,-7.2496,-8.1093,-8.1131,-8.1305,-8.1723,-8.2505,-8.3214,-8.3629,-8.3533,-8.3328,-8.3119,-8.2155,-8.1426,-8.1216,-8.1131,-8.1093,-8.1093,-8.1093,-8.1093,-8.1093,-8.1093,-8.1093,-8.1093,-8.1093,-8.1093,-8.1093,-8.1093,-8.1093,-8.1093,-8.1093,-8.1093,-8.1093,-8.1093,-8.1093,-8.1093,-8.1093,-8.1093,-8.1093,-8.1093,-8.1093,-8.1093,-8.1093,-8.1093,-8.1093,-8.1093,-8.1093,-8.1093,-8.1093,-8.1093,-8.1093,-8.1093,-8.1093,-8.1093,-8.1093,-8.0626,-7.9969,-7.938,-7.7617,-7.5616,-7.4111,-7.367,-7.3413,-7.2679,-7.2459,-7.2422,-7.2422,-7.1798,-7.1183,-7.1109,-7.055,-6.9743,-6.8898,-6.8054,-6.6769,-6.4457,-6.3282,-6.2108,-6.0603,-6.163,-6.256,-6.2622,-6.4053,-6.5081,-6.5191,-6.5228,-6.5228,-6.5228,-6.5264,-6.5595,-6.6292,-6.6439,-6.7173,-6.8678,-6.8788,-6.8862,-6.8898,-6.9633,-7.044,-7.1211,-7.1256,-7.1688,-7.2422,-7.2459,-7.2496,-7.2496,-7.2496,-7.2496,-7.2496,-7.2496,-7.2496,-7.2496,-7.2496,-7.2496,-7.2496,-7.2496,-7.2496,-7.2496,-8.1093,-8.1093,-8.1228,-8.1645,-8.196,-8.2317,-8.2731,-8.263,-8.2421,-8.2216,-8.1747,-8.1324,-8.1139,-8.1093,-8.1093,-8.1093,-8.1093,-8.1093,-8.1093,-8.1093,-8.1093,-8.1093,-8.1093,-8.1093,-8.1093,-8.1093,-8.1093,-8.1093,-8.1093,-8.1093,-8.1093,-8.1093,-8.1093,-8.1093,-8.1093,-8.1093,-8.1093,-8.1093,-8.1093,-8.1093,-8.1093,-8.1093,-8.1093,-8.1093,-8.1093,-8.1093,-8.1093,-8.1093,-8.1093,-8.1093,-8.1093,-8.1093,-8.1093,-8.0943,-8.0499,-7.9491,-7.8377,-7.7114,-7.5618,-7.4441,-7.3634,-7.3303,-7.2863,-7.2496,-7.2496,-7.2275,-7.1908,-7.1431,-7.1064,-7.0624,-6.9779,-6.8568,-6.754,-6.7136,-6.5118,-6.3576,-6.3466,-6.3539,-6.3613,-6.3613,-6.4604,-6.5521,-6.5999,-6.6035,-6.6256,-6.6733,-6.6769,-6.6916,-6.721,-6.7724,-6.8274,-6.8898,-6.9889,-7.0403,-7.0403,-7.0697,-7.1248,-7.2055,-7.2055,-7.2202,-7.2496,-7.2496,-7.2496,-7.2496,-7.2496,-7.2496,-7.2496,-7.2496,-7.2496,-7.2496,-7.2496,-7.2496,-7.2496,-7.2496,-7.2496,-7.2496,-8.1093,-8.1093,-8.1228,-8.1645,-8.1688,-8.1831,-8.217,-8.2049,-8.1844,-8.1645,-8.1414,-8.1244,-8.1124,-8.1093,-8.1093,-8.1093,-8.1093,-8.1093,-8.1093,-8.1093,-8.1093,-8.1093,-8.1093,-8.1093,-8.1093,-8.1093,-8.1093,-8.1093,-8.1093,-8.1093,-8.1093,-8.1093,-8.1093,-8.1093,-8.1093,-8.1093,-8.1093,-8.1093,-8.1093,-8.1093,-8.1093,-8.1093,-8.1093,-8.1093,-8.1093,-8.1093,-8.1093,-8.1093,-8.1093,-8.1093,-8.0959,-8.0838,-8.1007,-8.0959,-8.0591,-7.9491,-7.8779,-7.8034,-7.6817,-7.5506,-7.4368,-7.4147,-7.3487,-7.2899,-7.2899,-7.2679,-7.2349,-7.1798,-7.1688,-7.1431,-7.0624,-6.9559,-6.8752,-6.8568,-6.6659,-6.5228,-6.5301,-6.5044,-6.4861,-6.4861,-6.5558,-6.6256,-6.6806,-6.688,-6.71,-6.765,-6.7907,-6.8164,-6.8421,-6.8972,-6.9412,-6.9669,-7.0734,-7.1403,-7.1688,-7.1688,-7.1945,-7.2496,-7.2496,-7.2496,-7.2496,-7.2496,-7.2496,-7.2496,-7.2496,-7.2496,-7.2496,-7.2496,-7.2496,-7.2496,-7.2496,-7.2496,-7.2496,-7.2496,-7.2496,-7.2496,-8.1093,-8.1093,-8.1228,-8.1645,-8.168,-8.1785,-8.1976,-8.1837,-8.1645,-8.1453,-8.1228,-8.1093,-8.1093,-8.1093,-8.1093,-8.1093,-8.1093,-8.1093,-8.1093,-8.1093,-8.1093,-8.1093,-8.1093,-8.1093,-8.1093,-8.1093,-8.1093,-8.1093,-8.1093,-8.1093,-8.1093,-8.1093,-8.1093,-8.1093,-8.1093,-8.1093,-8.1093,-8.1093,-8.1093,-8.1093,-8.1093,-8.1093,-8.1093,-8.1093,-8.1093,-8.1093,-8.1093,-8.1093,-8.1093,-8.1093,-8.0643,-8.022,-8.0888,-8.0643,-7.9989,-7.938,-7.8779,-7.8146,-7.748,-7.6717,-7.5909,-7.5139,-7.4294,-7.3707,-7.3707,-7.3083,-7.2496,-7.2496,-7.2496,-7.2275,-7.1468,-7.1293,-7.0513,-6.8091,-6.7724,-6.7136,-6.5558,-6.6035,-6.6512,-6.6512,-6.721,-6.7724,-6.7724,-6.7724,-6.7724,-6.7724,-6.8458,-6.9265,-7.0073,-7.011,-7.0477,-7.1256,-7.1293,-7.1688,-7.2496,-7.2496,-7.2496,-7.2496,-7.2496,-7.2496,-7.2496,-7.2496,-7.2496,-7.2496,-7.2496,-7.2496,-7.2496,-7.2496,-7.2496,-7.2496,-7.2496,-7.2496,-7.2496,-7.2496,-7.2496,-7.2496,-8.1093,-8.1093,-8.1228,-8.1645,-8.1591,-8.1609,-8.1962,-8.1727,-8.1469,-8.1418,-8.1228,-8.1093,-8.1093,-8.1093,-8.1093,-8.1093,-8.1093,-8.1093,-8.1093,-8.1093,-8.1093,-8.1093,-8.1093,-8.1093,-8.1093,-8.1093,-8.1093,-8.1093,-8.1093,-8.1093,-8.1093,-8.1093,-8.1093,-8.1093,-8.1093,-8.1093,-8.1093,-8.1093,-8.1093,-8.1093,-8.1093,-8.1093,-8.1093,-8.1093,-8.1093,-8.1093,-8.1093,-8.1093,-8.1093,-8.1093,-8.0975,-8.0838,-8.1045,-8.0959,-8.066,-8.0008,-7.9403,-7.8804,-7.8173,-7.7467,-7.6754,-7.5946,-7.5139,-7.4404,-7.3817,-7.3487,-7.3193,-7.2606,-7.2496,-7.2422,-7.2202,-7.1688,-7.1036,-7.0367,-6.9743,-6.9229,-6.8752,-6.8862,-6.9009,-6.9009,-6.9229,-6.9376,-6.9376,-6.9376,-6.9376,-6.9376,-6.9596,-6.9853,-7.0073,-7.066,-7.1064,-7.1293,-7.1872,-7.2275,-7.2496,-7.2496,-7.2496,-7.2496,-7.2496,-7.2496,-7.2496,-7.2496,-7.2496,-7.2496,-7.2496,-7.2496,-7.2496,-7.2496,-7.2496,-7.2496,-7.2496,-7.2496,-7.2496,-7.2496,-7.2496,-7.2496,-8.1093,-8.1093,-8.1228,-8.1645,-8.1524,-8.1532,-8.1844,-8.1618,-8.1359,-8.1311,-8.1167,-8.1093,-8.1093,-8.1093,-8.1093,-8.1093,-8.1093,-8.1093,-8.1093,-8.1093,-8.1093,-8.1093,-8.1093,-8.1093,-8.1093,-8.1093,-8.1093,-8.1093,-8.1093,-8.1093,-8.1093,-8.1093,-8.1093,-8.1093,-8.1093,-8.1093,-8.1093,-8.1093,-8.1093,-8.1093,-8.1093,-8.1093,-8.1093,-8.1093,-8.1093,-8.1093,-8.1093,-8.1093,-8.1093,-8.1093,-8.1093,-8.1061,-8.0767,-8.0871,-8.0975,-8.0315,-7.9663,-7.9058,-7.8458,-7.7826,-7.7163,-7.6717,-7.5983,-7.5249,-7.4771,-7.4404,-7.3964,-7.3156,-7.2973,-7.2899,-7.2569,-7.2092,-7.1688,-7.1329,-7.0881,-7.0477,-7.0146,-7.011,-7.011,-7.011,-7.011,-7.011,-7.011,-7.011,-7.022,-7.055,-7.0587,-7.0697,-7.1027,-7.1505,-7.1798,-7.1798,-7.2275,-7.2496,-7.2496,-7.2496,-7.2496,-7.2496,-7.2496,-7.2496,-7.2496,-7.2496,-7.2496,-7.2496,-7.2496,-7.2496,-7.2532,-7.2826,-7.2973,-7.301,-7.334,-7.345,-7.345,-7.345,-7.345,-7.3413,-8.1093,-8.1093,-8.1214,-8.1618,-8.1532,-8.1436,-8.1623,-8.1483,-8.1298,-8.11,-8.1093,-8.1093,-8.1093,-8.1093,-8.1093,-8.1093,-8.1093,-8.1093,-8.1093,-8.1093,-8.1093,-8.1093,-8.1093,-8.1093,-8.1093,-8.1093,-8.1093,-8.1093,-8.1093,-8.1093,-8.1093,-8.1093,-8.1093,-8.1093,-8.1093,-8.1093,-8.1093,-8.1093,-8.1093,-8.1093,-8.1093,-8.1093,-8.1093,-8.1093,-8.1093,-8.1093,-8.1093,-8.1093,-8.1093,-8.1093,-8.1093,-8.0991,-8.037,-8.0608,-8.0975,-8.0352,-7.9706,-7.9081,-7.8536,-7.7846,-7.7273,-7.7273,-7.6754,-7.6203,-7.613,-7.5542,-7.4771,-7.3964,-7.3817,-7.356,-7.2753,-7.2606,-7.2349,-7.1541,-7.1403,-7.1174,-7.0403,-7.0293,-7.0293,-7.0293,-7.0293,-7.0293,-7.0293,-7.0293,-7.0624,-7.1358,-7.1403,-7.1725,-7.2459,-7.2496,-7.2496,-7.2496,-7.2496,-7.2496,-7.2496,-7.2496,-7.2496,-7.2496,-7.2496,-7.2496,-7.2496,-7.2496,-7.2532,-7.2606,-7.2606,-7.2642,-7.2789,-7.3487,-7.3817,-7.3891,-7.4625,-7.4918,-7.4918,-7.4918,-7.4918,-7.4808,-8.1093,-8.1093,-8.1167,-8.1403,-8.1324,-8.1242,-8.1425,-8.1272,-8.1161,-8.1108,-8.1093,-8.1093,-8.1093,-8.1093,-8.1093,-8.1093,-8.1093,-8.1093,-8.1093,-8.1093,-8.1093,-8.1093,-8.1093,-8.1093,-8.1093,-8.1093,-8.1093,-8.1093,-8.1093,-8.1093,-8.1093,-8.1093,-8.1093,-8.1093,-8.1093,-8.1093,-8.1093,-8.1093,-8.1093,-8.1093,-8.1093,-8.1093,-8.1093,-8.1093,-8.1093,-8.1093,-8.1093,-8.1093,-8.1093,-8.1093,-8.1093,-8.1077,-8.0943,-8.0975,-8.1077,-8.0943,-8.0086,-7.9175,-7.9034,-7.8163,-7.7273,-7.7273,-7.7163,-7.69,-7.624,-7.5983,-7.5616,-7.4808,-7.4661,-7.4404,-7.3597,-7.345,-7.3193,-7.2386,-7.2239,-7.2202,-7.2018,-7.1982,-7.1982,-7.1982,-7.1982,-7.1982,-7.1982,-7.1982,-7.2055,-7.2239,-7.2239,-7.2312,-7.2496,-7.2496,-7.2496,-7.2496,-7.2496,-7.2496,-7.2496,-7.2496,-7.2496,-7.2496,-7.2496,-7.2496,-7.2496,-7.2496,-7.2826,-7.345,-7.345,-7.3817,-7.4404,-7.4588,-7.4661,-7.4661,-7.4845,-7.4918,-7.4918,-7.4918,-7.4918,-7.4808,-8.1093,-8.1093,-8.1137,-8.1347,-8.1242,-8.1152,-8.1359,-8.1228,-8.1093,-8.1093,-8.1093,-8.1093,-8.1093,-8.1093,-8.1093,-8.1093,-8.1093,-8.1093,-8.1093,-8.1093,-8.1093,-8.1093,-8.1093,-8.1093,-8.1093,-8.1093,-8.1093,-8.1093,-8.1093,-8.1093,-8.1093,-8.1093,-8.1093,-8.1093,-8.1093,-8.1093,-8.1093,-8.1093,-8.1093,-8.1093,-8.1093,-8.1093,-8.1093,-8.1093,-8.1093,-8.1093,-8.1093,-8.1093,-8.1093,-8.1093,-8.1093,-8.1093,-8.1093,-8.1093,-8.1093,-8.1093,-8.0409,-7.9556,-7.929,-7.8499,-7.771,-7.7396,-7.7273,-7.7163,-7.679,-7.668,-7.6514,-7.6039,-7.5698,-7.5331,-7.4848,-7.4482,-7.4001,-7.3193,-7.3083,-7.2936,-7.2569,-7.2496,-7.2496,-7.2496,-7.2496,-7.2496,-7.2496,-7.2496,-7.2496,-7.2496,-7.2496,-7.2496,-7.2496,-7.2496,-7.2496,-7.2496,-7.2496,-7.2679,-7.3083,-7.3083,-7.3266,-7.3634,-7.3266,-7.3266,-7.3634,-7.3634,-7.3891,-7.4258,-7.4258,-7.4515,-7.4955,-7.5322,-7.5469,-7.5506,-7.5909,-7.6026,-7.6026,-7.6026,-7.5549,-7.4845,-8.1093,-8.1093,-8.1161,-8.1311,-8.12,-8.1161,-8.1324,-8.1186,-8.1093,-8.1093,-8.1093,-8.1093,-8.1093,-8.1093,-8.1093,-8.1093,-8.1093,-8.1093,-8.1093,-8.1093,-8.1093,-8.1093,-8.1093,-8.1093,-8.1093,-8.1093,-8.1093,-8.1093,-8.1093,-8.1093,-8.1093,-8.1093,-8.1093,-8.1093,-8.1093,-8.1093,-8.1093,-8.1093,-8.1093,-8.1093,-8.1093,-8.1093,-8.1093,-8.1093,-8.1093,-8.1093,-8.1093,-8.1093,-8.1093,-8.1093,-8.1093,-8.1093,-8.1093,-8.1093,-8.1077,-8.0959,-8.0463,-7.9827,-7.9198,-7.8602,-7.7988,-7.7457,-7.7273,-7.7335,-7.742,-7.745,-7.7467,-7.7468,-7.7033,-7.6559,-7.629,-7.578,-7.5121,-7.4233,-7.4057,-7.3807,-7.3038,-7.2789,-7.2716,-7.2716,-7.2569,-7.2496,-7.2496,-7.2496,-7.2496,-7.2496,-7.2496,-7.2496,-7.2496,-7.272,-7.2842,-7.2879,-7.313,-7.3499,-7.4057,-7.4057,-7.4441,-7.5102,-7.4441,-7.4404,-7.4918,-7.4918,-7.4992,-7.5139,-7.5139,-7.5175,-7.5359,-7.6019,-7.6367,-7.653,-7.7078,-7.7365,-7.7487,-7.7335,-7.6356,-7.5139,-8.1093,-8.1093,-8.1108,-8.1131,-8.1124,-8.1108,-8.1131,-8.1124,-8.1093,-8.1093,-8.1093,-8.1093,-8.1093,-8.1093,-8.1093,-8.1093,-8.1093,-8.1093,-8.1093,-8.1093,-8.1093,-8.1093,-8.1093,-8.1093,-8.1093,-8.1093,-8.1093,-8.1093,-8.1093,-8.1093,-8.1093,-8.1093,-8.1093,-8.1093,-8.1093,-8.1093,-8.1093,-8.1093,-8.1093,-8.1093,-8.1093,-8.1093,-8.1093,-8.1093,-8.1093,-8.1093,-8.1093,-8.1093,-8.1093,-8.1093,-8.1093,-8.1093,-8.1093,-8.1093,-8.0975,-8.0427,-7.9806,-7.9198,-7.8614,-7.7932,-7.7426,-7.7304,-7.7273,-7.742,-7.8044,-7.8146,-7.8288,-7.8787,-7.8822,-7.8572,-7.7838,-7.7641,-7.7139,-7.5813,-7.5596,-7.5355,-7.4676,-7.3964,-7.3523,-7.3523,-7.2936,-7.2496,-7.2496,-7.2496,-7.2496,-7.2496,-7.2496,-7.2496,-7.2496,-7.3653,-7.4331,-7.4406,-7.5604,-7.6016,-7.5596,-7.5596,-7.5718,-7.5946,-7.5836,-7.5469,-7.4918,-7.4918,-7.5285,-7.5946,-7.5946,-7.635,-7.698,-7.709,-7.7474,-7.7942,-7.7473,-7.7651,-7.809,-7.751,-7.6717,-7.5946,-8.1269,-8.1167,-8.1093,-8.1093,-8.1093,-8.1093,-8.1093,-8.1093,-8.1093,-8.1093,-8.1093,-8.1093,-8.1093,-8.1093,-8.1093,-8.1093,-8.1093,-8.1093,-8.1093,-8.1093,-8.1093,-8.1093,-8.1093,-8.1093,-8.1093,-8.1093,-8.1093,-8.1093,-8.1093,-8.1093,-8.1093,-8.1093,-8.1093,-8.1093,-8.1093,-8.1093,-8.1093,-8.1093,-8.1093,-8.1093,-8.1093,-8.1093,-8.1093,-8.1093,-8.1093,-8.1093,-8.1093,-8.1093,-8.1093,-8.1093,-8.1093,-8.1093,-8.1093,-8.1093,-8.0975,-8.0315,-7.9908,-7.9491,-7.8562,-7.8063,-7.7768,-7.7396,-7.7273,-7.7533,-7.8576,-7.8804,-7.8962,-7.9578,-7.9447,-7.9199,-7.9187,-7.8917,-7.8337,-7.7249,-7.7089,-7.6804,-7.6056,-7.5368,-7.4811,-7.4427,-7.4074,-7.3854,-7.3854,-7.3854,-7.3854,-7.3854,-7.3854,-7.402,-7.4394,-7.5012,-7.5483,-7.5849,-7.6489,-7.6904,-7.7089,-7.6754,-7.6834,-7.7328,-7.6965,-7.6607,-7.6209,-7.6209,-7.643,-7.679,-7.679,-7.6974,-7.7304,-7.771,-7.8044,-7.8282,-7.7988,-7.7826,-7.771,-7.7426,-7.679,-7.6093]},{"header":{"parameterUnit":"m.s-1","parameterCategory":1,"la1":30.6,"la2":28.766,"lo1":-90.7593,"lo2":-88.6598,"dy":0.0162,"dx":0.0183,"nx":116,"ny":114,"refTime":"2024-05-16T18:00:00:Z","depth":0,"parameterNumber":3,"parameterNumberName":"V-component_of_WINDS"},"data":[0.0,0.0,0.0,0.0,0.0,0.0,0.0,0.0,0.0,0.0,0.0,0.0,0.0,0.0,0.0,0.0,0.0,0.0,0.0,0.0,0.0,0.0,0.0,0.0,0.0,0.0,0.0,0.0,0.0,0.0,0.0,0.0,0.0,0.0,0.0,0.0,0.0,0.0,0.0,0.0,0.0,0.0,0.0,0.0,0.0,0.0,0.0,0.0,0.0,0.0,0.0,0.0,0.0,0.0,0.0,0.0,0.0,0.0,0.0,0.0,0.0,0.0,0.0,0.0,0.0,0.0,0.0,0.0,0.0,0.0,0.0,0.0,0.0,0.0,0.0,0.0,0.0,0.0,0.0,0.0,0.0,0.0,0.0,0.0,0.0,0.0,0.0,0.0,0.0,0.0,0.0,0.0,0.0,0.0,0.0,0.0,0.0,0.0,0.0,0.0,0.0,0.0,0.0,0.0,0.0,0.0,0.0,0.0,0.0,0.0,0.0,0.0,0.0,0.0,0.0,0.0,0.0,0.0,0.0,0.0,0.0,0.0,0.0,0.0,0.0,0.0,0.0,0.0,0.0,0.0,0.0,0.0,0.0,0.0,0.0,0.0,0.0,0.0,0.0,0.0,0.0,0.0,0.0,0.0,0.0,0.0,0.0,0.0,0.0,0.0,0.0,0.0,0.0,0.0,0.0,0.0,0.0,0.0,0.0,0.0,0.0,0.0,0.0,0.0,0.0,0.0,0.0,0.0,0.0,0.0,0.0,0.0,0.0,0.0,0.0,0.0,0.0,0.0,0.0,0.0,0.0,0.0,0.0,0.0,0.0,0.0,0.0,0.0,0.0,0.0,0.0,0.0,0.0,0.0,0.0,0.0,0.0,0.0,0.0,0.0,0.0,0.0,0.0,0.0,0.0,0.0,0.0,0.0,0.0,0.0,0.0,0.0,0.0,0.0,0.0,0.0,0.0,0.0,0.0,0.0,0.0,0.0,0.0,0.0,0.0,0.0,0.0,0.0,0.0,0.0,0.0,0.0,0.0,0.0,0.0,0.0,0.0,0.0,0.0,0.0,0.0,0.0,0.0,0.0,0.0,0.0,0.0,0.0,0.0,0.0,0.0,0.0,0.0,0.0,0.0,0.0,0.0,0.0,0.0,0.0,0.0,0.0,0.0,0.0,0.0,0.0,0.0,0.0,0.0,0.0,0.0,0.0,0.0,0.0,0.0,0.0,0.0,0.0,0.0,0.0,0.0,0.0,0.0,0.0,0.0,0.0,0.0,0.0,0.0,0.0,0.0,0.0,0.0,0.0,0.0,0.0,0.0,0.0,0.0,0.0,0.0,0.0,0.0,0.0,0.0,0.0,0.0,0.0,0.0,0.0,0.0,0.0,0.0,0.0,0.0,0.0,0.0,0.0,0.0,0.0,0.0,0.0,0.0,0.0,0.0,0.0,0.0,0.0,0.0,0.0,0.0,0.0,0.0,0.0,0.0,0.0,0.0,0.0,0.0,0.0,0.0,0.0,0.0,0.0,0.0,0.0,0.0,0.0,0.0,0.0,0.0,0.0,0.0,0.0,0.0,0.0,0.0,0.0,0.0,0.0,0.0,0.0,0.0,0.0,0.0,0.0,0.0,0.0,0.0,0.0,0.0,0.0,0.0,0.0,0.0,0.0,0.0,0.0,0.0,0.0,0.0,0.0,0.0,0.0,0.0,0.0,0.0,0.0,0.0,0.0,0.0,0.0,0.0,0.0,0.0,0.0,0.0,0.0,0.0,0.0,0.0,0.0,0.0,0.0,0.0,0.0,0.0,0.0,0.0,0.0,0.0,0.0,0.0,0.0,0.0,0.0,0.0,0.0,0.0,0.0,0.0,0.0,0.0,0.0,0.0,0.0,0.0,0.0,0.0,0.0,0.0,0.0,0.0,0.0,0.0,0.0,0.0,0.0,0.0,0.0,0.0,0.0,0.0,0.0,0.0,0.0,0.0,0.0,0.0,0.0,0.0,0.0,0.0,0.0,0.0,0.0,0.0,0.0,0.0,0.0,0.0,0.0,0.0,0.0,0.0,0.0,0.0,0.0,0.0,0.0,0.0,0.0,0.0,0.0,0.0,0.0,0.0,0.0,0.0,0.0,0.0,0.0,0.0,0.0,0.0,0.0,0.0,0.0,0.0,0.0,0.0,0.0,0.0,0.0,0.0,0.0,0.0,0.0,0.0,0.0,0.0,0.0,0.0,0.0,0.0,0.0,0.0,0.0,0.0,0.0,0.0,0.0,0.0,0.0,0.0,0.0,0.0,0.0,0.0,0.0,0.0,0.0,0.0,0.0,0.0,0.0,0.0,0.0,0.0,0.0,0.0,0.0,0.0,0.0,0.0,0.0,0.0,0.0,0.0,0.0,0.0,0.0,0.0,0.0,0.0,0.0,0.0,0.0,0.0,0.0,0.0,0.0,0.0,0.0,0.0,0.0,0.0,0.0,0.0,0.0,0.0,0.0,0.0,0.0,0.0,0.0,0.0,0.0,0.0,0.0,0.0,0.0,0.0,0.0,0.0,0.0,0.0,0.0,0.0,0.0,0.0,0.0,0.0,0.0,0.0,0.0,0.0,0.0,0.0,0.0,0.0,0.0,0.0,0.0,0.0,0.0,0.0,0.0,0.0,0.0,0.0,0.0,0.0,0.0,0.0,0.0,0.0,0.0,0.0,0.0,0.0,0.0,0.0,0.0,0.0,0.0,0.0,0.0,0.0,0.0,0.0,0.0,0.0,0.0,0.0,0.0,0.0,0.0,0.0,0.0,0.0,0.0,0.0,0.0,0.0,0.0,0.0,0.0,0.0,0.0,0.0,0.0,0.0,0.0,0.0,0.0,0.0,0.0,0.0,0.0,0.0,0.0,0.0,0.0,0.0,0.0,0.0,0.0,0.0,0.0,0.0,0.0,0.0,0.0,0.0,0.0,0.0,0.0,0.0,0.0,0.0,0.0,0.0,0.0,0.0,0.0,0.0,0.0,0.0,0.0,0.0,0.0,0.0,0.0,0.0,0.0,0.0,0.0,0.0,0.0,0.0,0.0,0.0,0.0,0.0,0.0,0.0,0.0,0.0,0.0,0.0,0.0,0.0,0.0,0.0,0.0,0.0,0.0,0.0,0.0,0.0,0.0,0.0,0.0,0.0,0.0,0.0,0.0,0.0,0.0,0.0,0.0,0.0,0.0,0.0,0.0,0.0,0.0,0.0,0.0,0.0,0.0,0.0,0.0,0.0,0.0,0.0,0.0,0.0,0.0,0.0,0.0,0.0,0.0,0.0,0.0,0.0,0.0,0.0,0.0,0.0,0.0,0.0,0.0,0.0,0.0,0.0,0.0,0.0,0.0,0.0,0.0,0.0,0.0,0.0,0.0,0.0,0.0,0.0,0.0,0.0,0.0,0.0,0.0,0.0,0.0,0.0,0.0,0.0,0.0,0.0,0.0,0.0,0.0,0.0,0.0,0.0,0.0,0.0,0.0,0.0,0.0,0.0,0.0,0.0,0.0,0.0,0.0,0.0,0.0,0.0,0.0,0.0,0.0,0.0,0.0,0.0,0.0,0.0,0.0,0.0,0.0,0.0,0.0,0.0,0.0,0.0,0.0,0.0,0.0,0.0,0.0,0.0,0.0,0.0,0.0,0.0,0.0,0.0,0.0,0.0,0.0,0.0,0.0,0.0,0.0,0.0,0.0,0.0,0.0,0.0,0.0,0.0,0.0,0.0,0.0,0.0,0.0,0.0,0.0,0.0,0.0,0.0,0.0,0.0,0.0,0.0,0.0,0.0,0.0,0.0,0.0,0.0,0.0,0.0,0.0,0.0,0.0,0.0,0.0,0.0,0.0,0.0,0.0,0.0,0.0,0.0,0.0,0.0,0.0,0.0,0.0,0.0,0.0,0.0,0.0,0.0,0.0,0.0,0.0,0.0,0.0,0.0,0.0,0.0,0.0,0.0,0.0,0.0,0.0,0.0,0.0,0.0,0.0,0.0,0.0,0.0,0.0,0.0,0.0,0.0,0.0,0.0,0.0,0.0,0.0,0.0,0.0,0.0,0.0,0.0,0.0,0.0,0.0,0.0,0.0,0.0,0.0,0.0,0.0,0.0,0.0,0.0,0.0,0.0,0.0,0.0,0.0,0.0,0.0,0.0,0.0,0.0,0.0,0.0,0.0,0.0,0.0,0.0,0.0,0.0,0.0,0.0,0.0,0.0,0.0,0.0,0.0,0.0,0.0,0.0,0.0,0.0,0.0,0.0,0.0,0.0,0.0,0.0,0.0,0.0,0.0,0.0,0.0,0.0,0.0,0.0,0.0,0.0,0.0,0.0,0.0,0.0,0.0,0.0,0.0,0.0,0.0,0.0,0.0,0.0,0.0,0.0,0.0,0.0,0.0,0.0,0.0,0.0,0.0,0.0,0.0,0.0,0.0,0.0,0.0,0.0,0.0,0.0,0.0,0.0,0.0,0.0,0.0,0.0,0.0,0.0,0.0,0.0,0.0,0.0,0.0,0.0,0.0,0.0,0.0,0.0,0.0,0.0,0.0,0.0,0.0,0.0,0.0,0.0,0.0,0.0,0.0,0.0,0.0,0.0,0.0,0.0,0.0,0.0,0.0,0.0,0.0,0.0,0.0,0.0,0.0,0.0,0.0,0.0,0.0,0.0,0.0,0.0,0.0,0.0,0.0,0.0,0.0,0.0,0.0,0.0,0.0,0.0,0.0,0.0,0.0,0.0,0.0,0.0,0.0,0.0,0.0,0.0,0.0,0.0,0.0,0.0,0.0,0.0,0.0,0.0,0.0,0.0,0.0,0.0,0.0,0.0,0.0,0.0,0.0,0.0,0.0,0.0,0.0,0.0,0.0,0.0,0.0,0.0,0.0,0.0,0.0,0.0,0.0,0.0,0.0,0.0,0.0,0.0,0.0,0.0,0.0,0.0,0.0,0.0,0.0,0.0,0.0,0.0,0.0,0.0,0.0,0.0,0.0,0.0,0.0,0.0,0.0,0.0,0.0,0.0,0.0,0.0,0.0,0.0,0.0,0.0,0.0,0.0,0.0,0.0,0.0,0.0,0.0,0.0,0.0,0.0,0.0,0.0,0.0,0.0,0.0,0.0,0.0,0.0,0.0,0.0,0.0,0.0,0.0,0.0,0.0,0.0,0.0,0.0,0.0,0.0,0.0,0.0,0.0,0.0,0.0,0.0,0.0,0.0,0.0,0.0,0.0,0.0,0.0,0.0,0.0,0.0,0.0,0.0,0.0,0.0,0.0,0.0,0.0,0.0,0.0,0.0,0.0,0.0,0.0,0.0,0.0,0.0,0.0,0.0,0.0,0.0,0.0,0.0,0.0,0.0,0.0,0.0,0.0,0.0,0.0,0.0,0.0,0.0,0.0,0.0,0.0,0.0,0.0,0.0,0.0,0.0,0.0,0.0,0.0,0.0,0.0,0.0,0.0,0.0,0.0,0.0,0.0,0.0,0.0,0.0,0.0,0.0,0.0,0.0,0.0,0.0,0.0,0.0,0.0,0.0,0.0,0.0,0.0,0.0,0.0,0.0,0.0,0.0,0.0,0.0,0.0,0.0,0.0,0.0,0.0,0.0,0.0,0.0,0.0,0.0,0.0,0.0,0.0,0.0,0.0,0.0,0.0,0.0,0.0,0.0,0.0,0.0,0.0,0.0,0.0,0.0,0.0,0.0,0.0,0.0,0.0,0.0,0.0,0.0,0.0,0.0,0.0,0.0,0.0,0.0,0.0,0.0,0.0,0.0,0.0,0.0,0.0,0.0,0.0,0.0,0.0,0.0,0.0,0.0,0.0,0.0,0.0,0.0,0.0,0.0,0.0,0.0,0.0,0.0,0.0,0.0,0.0,0.0,0.0,0.0,0.0,0.0,0.0,0.0,0.0,0.0,0.0,0.0,0.0,0.0,0.0,0.0,0.0,0.0,0.0,0.0,0.0,0.0,0.0,0.0,0.0,0.0,0.0,0.0,0.0,0.0,0.0,0.0,0.0,0.0,0.0,0.0,0.0,0.0,0.0,0.0,0.0,0.0,0.0,0.0,0.0,0.0,0.0,0.0,0.0,0.0,0.0,2.9394,2.7558,0.0,0.0,0.0,0.0,0.0,0.0,0.0,0.0,0.0,0.0,0.0,0.0,0.0,0.0,0.0,0.0,0.0,0.0,0.0,0.0,0.0,0.0,0.0,0.6898,0.7045,0.7238,0.7394,0.7482,0.7482,0.0,0.0,0.0,0.0,0.0,0.8837,0.8731,0.8555,0.8169,0.9002,1.0445,1.2382,1.31,1.3367,1.3239,0.0,0.0,0.0,0.0,0.0,0.0,0.0,0.0,0.0,0.0,0.0,0.0,0.0,0.0,0.0,0.0,0.0,0.0,0.0,0.0,0.0,0.0,0.0,0.0,0.0,0.0,0.0,0.0,0.0,0.0,0.0,0.0,0.0,0.0,0.0,0.0,0.0,0.0,0.0,0.0,0.0,0.0,0.0,0.0,0.0,0.0,0.0,0.0,0.0,0.0,0.0,0.0,0.0,0.0,0.0,0.0,0.0,0.0,0.0,0.0,0.0,0.0,0.0,0.0,0.0,0.0,0.0,0.0,0.0,0.0,3.1816,3.0103,0.0,0.0,0.0,0.0,0.0,0.0,0.0,0.0,0.0,0.0,0.0,0.0,0.0,0.0,0.0,0.0,0.0,0.0,0.0,0.0,0.0,0.6268,0.6695,0.7,0.7244,0.74,0.755,0.7638,0.7638,0.8511,0.0,0.0,0.0,0.9931,0.8686,0.888,0.9266,0.9813,1.0589,1.2387,1.523,1.6431,1.6366,1.5158,1.4108,0.0,0.0,0.0,0.0,0.0,0.0,0.0,0.0,0.0,0.0,0.0,0.0,0.0,0.0,0.0,0.0,0.0,0.0,0.0,0.0,0.0,0.0,0.0,0.0,0.0,0.0,0.0,0.0,0.0,0.0,0.0,0.0,0.0,0.0,0.0,0.0,0.0,0.0,0.0,0.0,0.0,0.0,0.0,0.0,0.0,0.0,0.0,0.0,0.0,0.0,0.0,0.0,0.0,0.0,0.0,0.0,0.0,0.0,0.0,0.0,0.0,0.0,0.0,3.5488,3.5937,3.6543,3.582,3.5879,3.6484,3.4687,3.3613,3.3008,3.1445,0.0,0.0,0.0,0.0,0.0,0.0,0.0,0.0,0.0,0.0,0.0,0.0,0.0,0.0,0.0,0.0,0.0,0.0,0.0,0.6539,0.6822,0.7163,0.74,0.7556,0.7699,0.778,0.778,0.7925,0.0,0.0,0.8023,0.7951,0.7769,0.7811,0.8541,0.9949,1.3118,1.5814,1.7978,1.8182,1.8156,1.7916,1.6722,1.6414,1.6656,0.0,0.0,0.0,0.0,0.0,0.0,0.0,0.0,0.0,0.0,0.0,0.0,0.0,0.0,0.0,0.0,0.0,0.0,0.0,0.0,0.0,0.0,0.0,0.0,0.0,0.0,0.0,0.0,0.0,0.0,0.0,0.0,0.0,0.0,0.0,0.0,0.0,0.0,0.0,0.0,0.0,2.7927,2.8637,0.0,0.0,0.0,0.0,0.0,0.0,0.0,0.0,0.0,0.0,0.0,0.0,0.0,3.47,3.5297,3.6716,3.75,3.7519,3.8672,3.9062,3.8769,3.8652,3.8672,3.8769,3.8476,0.0,3.4375,3.3398,0.0,0.0,0.0,0.0,0.0,0.0,0.0,0.0,0.0,0.0,0.0,0.0,0.0,0.0,0.0,0.0,0.0,0.0,0.0,0.0,0.0,0.7495,0.7868,0.7848,0.8289,0.8425,0.8092,0.8221,0.8167,0.7828,0.7834,0.7767,0.7604,0.7923,0.9501,1.2322,1.6014,1.8316,1.9225,1.9399,1.9559,1.9693,1.8998,1.821,1.738,1.6353,0.0,0.0,0.0,0.0,0.0,0.0,0.0,0.0,0.0,0.0,0.0,0.0,0.0,0.0,0.0,0.0,0.0,0.0,0.0,0.0,0.0,0.0,0.0,0.0,0.0,0.0,0.0,0.0,0.0,0.0,0.0,0.0,0.0,0.0,0.0,0.0,0.0,0.0,0.0,2.6261,2.9126,2.9925,3.0078,2.9902,0.0,0.0,0.0,0.0,0.0,0.0,0.0,0.0,0.0,3.5477,3.5215,3.6157,3.8535,3.959,4.0098,4.0117,4.0937,4.1211,4.0996,4.0762,4.0664,4.0644,4.041,3.9414,3.7832,3.5996,3.4375,3.2995,0.0,0.0,0.0,0.0,3.4991,3.5057,0.0,0.0,0.0,0.0,0.0,0.0,0.0,0.0,0.0,0.0,0.0,0.0,0.7132,0.7875,0.8323,0.8323,0.8798,0.8927,0.8572,0.856,0.8411,0.7997,0.7968,0.7887,0.7719,0.9101,1.1557,1.5038,1.8407,2.0094,2.0254,2.0548,2.0802,2.1002,2.0775,1.9867,1.8424,1.7542,1.662,1.5671,0.0,0.0,0.0,0.0,0.0,0.0,0.0,0.0,0.0,0.0,0.0,0.0,0.0,0.0,0.0,0.0,0.0,0.0,0.0,0.0,0.0,0.0,0.0,0.0,0.0,0.0,0.0,0.0,0.0,0.0,0.0,0.0,0.0,0.0,0.0,0.0,0.0,2.7216,3.0055,3.1092,3.1992,3.207,0.0,0.0,0.0,0.0,0.0,0.0,3.4746,3.3569,3.4177,3.7036,3.5883,3.6741,4.0103,4.0734,4.1378,4.1973,4.2285,4.2422,4.2402,4.1992,4.1797,4.1777,4.1348,4.0996,4.0508,3.8242,3.6601,3.5505,3.5287,3.5162,3.544,3.7933,3.8938,3.9291,0.0,0.0,0.0,0.0,0.0,0.0,0.0,0.0,0.0,0.0,0.0,0.7146,0.7853,0.8275,0.8642,0.9118,0.9008,0.8994,0.9159,0.8647,0.8336,0.8445,0.8187,0.7982,0.7968,1.1579,1.4832,1.7589,1.9649,2.0985,2.1534,2.1764,2.1911,2.1924,2.1911,2.1537,2.0815,1.9118,1.821,1.7689,1.6019,0.0,0.0,0.0,0.0,0.0,0.0,0.0,0.0,0.0,0.0,0.0,0.0,0.0,0.0,0.0,0.0,0.0,0.0,0.0,0.0,0.0,0.0,0.0,0.0,0.0,0.0,0.0,0.0,0.0,0.0,0.0,0.0,0.0,0.0,0.0,0.0,0.0,0.0,3.2027,3.3945,0.0,0.0,0.0,0.0,3.4531,3.4061,3.4233,3.5058,3.3787,3.3591,3.4998,3.4966,3.6232,3.906,3.9114,4.021,4.2402,4.2422,4.2422,4.2402,4.1992,4.1797,4.1777,4.1348,4.1172,4.1035,3.9648,3.8555,3.7676,3.6916,3.7139,3.8167,4.029,4.1884,4.3276,0.0,0.0,0.0,0.0,0.0,0.5446,0.5569,0.5793,0.6044,0.634,0.6932,0.7536,0.7941,0.8648,0.9164,0.9422,0.9666,0.9659,0.932,0.9064,0.8818,0.8777,0.8486,0.9075,1.0683,1.4422,1.7008,1.8402,2.0502,2.163,2.183,2.1937,2.2084,2.2258,2.2071,2.1977,2.1844,2.0281,1.9332,1.8758,1.7168,1.5992,0.0,0.0,0.0,0.0,0.0,0.0,0.0,0.0,0.0,0.0,0.0,0.0,0.0,0.0,0.0,0.0,0.0,0.0,0.0,0.0,0.0,0.0,0.0,0.0,0.0,0.0,0.0,0.0,0.0,0.0,0.0,0.0,0.0,0.0,0.0,0.0,0.0,3.4328,3.6055,0.0,3.5019,3.4501,3.4416,3.4931,3.4267,3.4166,3.4907,3.3619,3.3782,3.5897,3.4634,3.5237,3.7913,3.9197,4.0261,4.1027,4.2568,4.3242,4.3242,4.2812,4.2461,4.2187,4.1758,4.1426,4.1133,4.0664,3.9961,3.9195,3.9778,4.0046,4.0472,4.3596,4.5024,4.5749,0.0,0.0,0.0,0.0,0.544,0.5521,0.5637,0.5915,0.6213,0.6519,0.721,0.7862,0.8364,0.9083,0.9632,0.9883,1.0086,1.0053,0.9707,0.9306,0.9062,0.9015,0.9305,1.0737,1.3286,1.6358,1.8593,1.9807,2.1345,2.2124,2.2138,2.2231,2.2378,2.2565,2.2365,2.2392,2.2498,2.143,2.0521,1.9765,1.8573,1.7515,1.6643,0.0,0.0,0.0,0.0,0.0,0.0,0.0,0.0,0.0,0.0,0.0,0.0,0.0,0.0,0.0,0.0,0.0,0.0,0.0,0.0,0.0,0.0,0.0,0.0,0.0,0.0,0.0,0.0,0.0,0.0,0.0,0.0,0.0,0.0,2.9906,3.2705,3.5879,3.7891,3.8457,3.7031,3.6689,3.6492,3.6241,3.5168,3.4473,3.4207,3.2785,3.272,3.4411,3.3117,3.4003,3.7288,3.7789,3.914,4.1453,4.2243,4.2927,4.3691,4.3262,4.2832,4.2402,4.1973,4.1562,4.1172,4.1172,4.084,4.0445,4.1272,4.173,4.2183,4.4645,4.6171,4.7241,0.0,0.0,0.0,0.5399,0.5528,0.5637,0.5786,0.6108,0.6478,0.7018,0.7543,0.8167,0.9118,0.9557,1.0012,1.046,1.0229,1.012,1.027,0.9442,0.9008,0.9214,1.0754,1.2833,1.5469,1.7399,1.9625,2.2004,2.2298,2.2445,2.2458,2.2752,2.2954,2.2954,2.2954,2.2954,2.2859,2.2565,2.1777,2.0681,2.0067,1.9319,1.8576,0.0,0.0,0.0,0.0,0.0,0.0,0.0,0.0,0.0,0.0,0.0,0.0,0.0,0.0,0.0,0.0,0.0,0.0,0.0,0.0,0.0,0.0,0.0,0.0,0.0,0.0,0.0,0.0,0.0,0.0,0.0,0.0,0.0,2.812,3.1897,3.5056,3.6658,3.9414,4.0547,3.8867,4.0509,4.0747,3.8509,3.696,3.5093,3.283,3.1276,3.0381,3.0381,3.0459,3.2664,3.7025,3.4762,3.6917,4.3443,4.137,4.1537,4.3691,4.3281,4.2851,4.2402,4.1992,4.1562,4.1172,4.1172,4.1172,4.1172,4.1172,4.2012,4.3201,4.3255,4.5042,4.7651,0.0,0.0,0.5433,0.5542,0.5562,0.5677,0.5928,0.622,0.6586,0.7031,0.7726,0.8445,0.9232,0.972,1.0105,1.0616,1.0385,1.0236,1.0276,0.9537,0.9164,0.9313,1.2713,1.497,1.5938,1.9273,2.1424,2.2298,2.2819,2.3073,2.3086,2.338,2.3514,2.3514,2.3514,2.3407,2.3193,2.3113,2.2632,2.1857,2.0842,2.016,1.9802,0.0,0.0,0.0,0.0,0.0,0.0,0.0,0.0,0.0,0.0,0.0,0.0,0.0,0.0,0.0,0.0,0.0,0.0,0.0,0.0,0.0,0.0,0.0,0.0,0.0,0.0,0.0,0.0,0.0,0.0,0.0,2.5692,2.9253,3.0386,3.3499,3.6681,3.9635,4.0937,4.1562,4.1387,4.0485,3.9703,3.9303,3.5916,3.369,3.3486,3.1708,3.0675,3.0675,3.2267,3.288,3.2304,3.6389,3.8545,3.8715,4.1472,4.3093,4.3691,4.3594,4.3125,4.2422,4.2305,4.1836,4.1172,4.1172,4.1172,4.1172,4.1172,4.1462,4.1899,4.2952,4.425,4.546,0.0,0.5446,0.5521,0.5576,0.5691,0.5833,0.5966,0.6335,0.6729,0.7177,0.7896,0.8621,0.9306,0.9781,1.0118,1.0507,1.0317,1.0134,1.0005,0.953,0.946,0.9741,1.3643,1.5964,1.6374,2.017,2.2378,2.2806,2.3153,2.3394,2.3514,2.3688,2.3768,2.3768,2.3768,2.3674,2.3514,2.3514,2.3233,2.2726,2.1911,2.1336,2.1078,2.2045,2.2307,2.2323,2.3528,2.4158,2.4235,2.332,0.0,0.0,0.0,0.0,0.0,0.0,0.0,0.0,0.0,0.0,0.0,0.0,0.0,0.0,0.0,0.0,0.0,0.0,0.0,0.0,0.0,0.0,0.0,0.0,2.7685,3.156,3.2467,3.5564,3.8614,4.1172,4.1816,4.2226,4.2656,4.1757,4.0758,3.9963,3.6735,3.4509,3.3843,3.2,3.1419,3.2499,3.3623,3.4442,3.4963,3.6557,3.8203,3.9667,4.0427,4.1807,4.3691,4.3516,4.3066,4.2422,4.2246,4.1797,4.1172,4.1172,4.1172,4.1172,0.0,0.0,0.0,0.0,4.2847,4.2805,0.0,0.5542,0.5616,0.5637,0.5854,0.6,0.6013,0.6424,0.6871,0.7378,0.8031,0.871,0.9313,0.9768,1.0086,1.0243,1.0127,0.9876,0.968,0.9564,0.9747,1.0283,1.3806,1.609,1.6844,2.0374,2.2587,2.338,2.3407,2.3567,2.3821,2.3848,2.3875,2.3875,2.3875,2.3848,2.3821,2.3821,2.3647,2.3354,2.3033,2.2565,2.2239,2.4099,2.4805,2.5036,2.6873,2.7519,2.7286,2.5895,0.0,0.0,0.0,0.0,0.0,0.0,0.0,0.0,0.0,0.0,0.0,0.0,0.0,0.0,0.0,0.0,0.0,0.0,0.0,0.0,0.0,0.0,0.0,0.0,2.9001,3.2621,3.3736,3.7276,4.0297,4.1719,4.2246,4.2676,4.3105,4.3496,4.2863,4.0921,3.8839,3.6795,3.4855,3.2733,0.0,0.0,0.0,3.6242,4.0525,3.6354,3.7294,4.3278,3.9413,3.9752,4.3691,4.332,4.2891,4.2402,4.2031,4.1601,4.1172,4.1172,4.1172,4.1172,4.1172,4.1172,4.1287,4.2051,4.1299,4.0271,0.0,0.5664,0.58,0.5922,0.5952,0.6071,0.6238,0.6491,0.6905,0.7482,0.8092,0.871,0.9313,0.9673,0.9924,1.0017,1.0004,0.9963,0.9909,1.0161,1.0331,1.0446,1.3068,1.5431,1.7315,1.9668,2.1803,2.3688,2.3915,2.4062,2.4128,2.4356,2.4476,2.4476,2.4476,2.4342,2.4115,2.4115,2.3955,2.3661,2.3354,2.2873,2.2605,2.5501,2.6615,2.6968,2.9667,3.0644,3.0528,2.9909,2.8275,2.6445,2.6064,2.407,0.0,0.0,0.0,0.0,0.0,0.0,0.0,0.0,0.0,0.0,0.0,0.0,0.0,0.0,0.0,0.0,0.0,0.0,0.0,2.5438,2.8666,3.1124,3.1838,3.5867,3.9664,4.1987,4.2695,4.3125,4.3535,4.3652,4.3682,4.3613,4.1537,4.026,4.0438,3.6487,3.44,3.4845,3.4694,3.4864,3.5285,3.7953,3.9816,4.095,4.189,0.0,4.3711,4.3613,4.3164,4.2422,4.2344,4.1875,4.1172,4.1172,4.1172,4.1172,4.1172,4.1172,4.1152,4.063,4.0184,3.9916,0.5793,0.5867,0.5905,0.5979,0.6091,0.6193,0.6381,0.6559,0.6919,0.7522,0.7984,0.8459,0.8988,0.9245,0.935,0.9431,0.9557,1.0053,1.1126,1.0713,1.0904,1.2132,1.3497,1.4771,1.6059,1.9014,2.1137,2.2501,2.3608,2.4275,2.4422,2.4569,2.4636,2.4636,2.4636,2.4556,2.4422,2.4422,2.4249,2.3981,2.3821,2.3407,2.3092,2.5176,2.6019,2.6408,2.9393,3.0508,3.0592,3.1283,3.0527,2.9202,2.8767,2.694,2.4526,0.0,0.0,0.0,0.0,0.0,0.0,0.0,0.0,0.0,0.0,0.0,0.0,0.0,0.0,2.2821,2.3078,0.0,2.6383,2.6623,2.9857,3.2118,3.1497,3.5688,3.9339,4.0634,4.2144,4.3242,4.3672,4.3906,4.4141,4.4375,4.2579,4.1629,4.1938,3.8794,3.6999,3.6999,3.6577,3.677,3.7551,3.8336,3.9862,4.1974,4.1974,4.2576,4.3691,4.3496,4.3047,4.2422,4.2207,4.1758,4.1172,4.1172,4.1172,4.1172,4.1172,4.1172,4.1094,4.0449,4.0078,3.9805,0.6044,0.6071,0.6071,0.6071,0.62,0.6381,0.6497,0.6627,0.6953,0.7522,0.7855,0.815,0.8621,0.8777,0.8804,0.8838,0.911,1.0048,1.1812,1.0951,1.1279,1.3243,1.3571,1.4202,1.5342,1.8473,2.067,2.1885,2.346,2.4409,2.4636,2.4636,2.4636,2.4636,2.4636,2.4636,2.4636,2.4636,2.4502,2.4289,2.4222,2.3888,2.3493,2.4274,2.479,2.5414,2.8133,2.9092,2.927,3.1039,3.1375,3.0951,3.0548,2.9279,2.7567,2.5676,2.4596,0.0,0.0,0.0,0.0,0.0,0.0,0.0,0.0,2.4837,2.4979,2.4202,2.5099,2.5869,2.5589,2.7892,2.9532,2.8768,3.183,3.3597,3.1692,3.546,3.8451,3.8451,4.1311,4.334,4.3672,4.4121,4.4433,4.4512,4.3439,4.2715,4.2788,4.0832,3.9432,3.8977,3.79,3.8164,3.9965,3.7956,3.8955,4.301,4.1639,4.189,4.3691,4.3359,4.291,4.2402,4.1894,4.1484,4.1172,4.1172,4.1172,4.1172,4.1172,4.1172,4.1113,4.0586,4.0195,3.9824,0.0,0.6272,0.6272,0.6272,0.6395,0.6497,0.6511,0.6715,0.7068,0.7536,0.7855,0.811,0.8472,0.852,0.8587,0.8723,0.9239,0.9746,1.0246,1.062,1.1029,1.1496,1.1844,1.3808,1.7646,1.8277,2.0439,2.4214,2.4435,2.4609,2.4636,2.4636,2.4636,2.4636,2.4636,2.4636,2.4636,2.4636,2.4549,2.4569,2.4302,2.4008,2.3688,2.355,2.4257,2.568,2.7296,2.7674,2.7609,2.8957,2.9422,2.9628,3.0892,3.119,3.0547,2.8163,2.6792,2.5378,2.1695,2.1006,2.1536,2.243,2.3885,2.5212,0.0,2.5889,2.551,2.5056,2.6805,2.8551,2.8937,3.1385,3.326,3.3417,3.4113,3.3872,3.1722,3.393,3.574,3.574,4.0446,4.3652,4.3691,4.4121,4.4551,4.4922,4.5133,4.5473,4.5842,4.353,4.1169,3.9084,3.6524,3.5182,3.4984,3.6467,3.8356,4.068,4.2493,4.3443,4.3711,4.3652,4.3183,4.2383,4.1582,4.1211,4.1172,4.1172,4.1172,4.1172,4.1172,4.1172,4.1074,4.0273,3.9941,3.9766,0.0,0.63,0.6327,0.6409,0.647,0.6573,0.6709,0.6844,0.7054,0.7421,0.7577,0.7733,0.7943,0.8045,0.8153,0.8309,0.9028,0.9936,1.1118,1.1127,1.157,1.265,1.2158,1.3205,1.6306,1.76,1.9828,2.2819,2.4031,2.4636,2.4636,2.4636,2.4636,2.4636,2.4636,2.4636,2.4636,2.4636,2.4636,2.4623,2.4502,2.4182,2.3741,2.3447,2.3488,2.3898,2.5596,2.5845,0.0,0.0,2.7909,2.7843,2.8473,2.8556,2.8104,2.6464,2.6002,2.5456,2.3111,2.2946,2.3779,2.5404,2.7604,2.9433,2.9783,2.9897,2.9745,2.91,3.0015,3.1201,3.2093,3.4306,3.5196,3.2917,3.3742,3.392,3.1722,3.3651,3.5262,3.5262,3.8712,4.1701,4.3219,4.2759,4.3074,4.4895,4.4166,4.439,4.6182,4.5285,4.2996,3.9068,3.753,3.5918,3.4171,3.6027,3.81,4.0343,4.2576,4.3711,4.3711,4.3711,4.3242,4.2383,4.1543,4.1172,4.1172,4.1172,4.1172,4.1172,4.1172,4.1172,4.1094,4.0488,4.0098,3.9805,0.0,0.6361,0.6416,0.6566,0.66,0.6675,0.6856,0.6916,0.7082,0.7385,0.7453,0.7489,0.7645,0.7787,0.7902,0.7921,0.8764,0.986,1.12,1.112,1.1686,1.2993,1.2338,1.3184,1.5865,1.7511,1.9681,2.2434,2.387,2.4676,2.4756,2.4756,2.4756,2.4756,2.4756,2.4716,2.4636,2.4636,2.4636,2.4636,2.4636,2.4289,2.3741,2.3447,2.2806,2.2176,2.3442,2.3627,0.0,2.5103,2.57,2.5778,2.6029,2.6194,2.6111,2.5357,2.5093,2.4827,2.3808,2.4175,2.5226,2.6952,2.9479,3.1424,3.1318,3.1588,3.1627,3.0864,3.1763,3.283,3.3338,3.5622,3.6483,3.3693,3.457,3.5056,3.3431,3.4784,3.5784,3.5195,3.6925,3.885,4.0752,4.0253,4.0957,4.3662,4.2839,4.3352,4.6026,4.5598,4.3316,3.9026,3.7696,3.609,3.4127,3.5923,3.7947,4.0343,4.2576,4.3711,4.3691,4.3457,4.3008,4.2383,4.1543,4.1172,4.1172,4.1172,4.1172,4.1172,4.1172,4.1172,4.1113,4.0547,4.0156,3.9824,0.0,0.0,0.6559,0.6865,0.6869,0.6876,0.6883,0.7004,0.7146,0.7398,0.7502,0.7645,0.7787,0.7894,0.7928,0.7828,0.846,0.9076,0.9476,1.0229,1.086,1.1289,1.1807,1.3964,1.7915,1.8414,2.053,2.4488,2.4562,2.4783,2.5064,2.5064,2.5064,2.5064,2.5064,2.4903,2.4636,2.4636,2.4636,2.4636,2.4636,2.4289,2.3741,2.3447,2.2418,2.1109,2.0891,0.0,2.089,2.1402,2.2242,2.3225,2.4548,2.5612,0.0,2.6194,2.4992,2.3621,2.3373,2.4084,2.5107,2.5884,2.8028,2.9785,2.8898,2.8834,2.8758,2.7962,3.0665,3.2722,3.169,3.4675,3.7366,3.7665,3.7737,3.7816,3.7737,3.7737,3.702,3.4992,3.5145,3.5443,3.5542,3.6457,3.8203,4.0854,4.1786,4.3222,4.5597,4.3788,4.1442,3.8645,3.595,3.4292,3.3799,3.5812,3.7947,4.0343,4.2576,4.3711,4.3672,4.2851,4.2461,4.2383,4.1543,4.1172,4.1172,4.1172,4.1172,4.1172,4.1172,4.1172,4.1074,4.0234,3.9902,3.9766,0.0,0.0,0.0,0.6849,0.6883,0.6993,0.719,0.7265,0.7312,0.7412,0.7502,0.0,0.0,0.0,0.0,0.0,0.8465,0.8913,0.9268,0.9985,1.0561,1.086,1.145,1.3107,1.5958,1.76,1.9767,2.2583,2.3944,2.469,2.4783,2.4783,2.4783,2.4783,2.4783,2.473,2.4636,2.4636,2.4636,2.4609,2.4222,2.3821,2.342,2.2913,2.1804,2.0468,0.0,0.0,1.93,1.9652,1.9878,2.0132,2.0989,2.1336,2.1496,2.1875,2.2124,2.2368,2.2641,2.4487,2.6474,2.7218,2.9268,3.0824,2.9456,2.913,2.9245,2.9276,3.0069,3.1168,3.2442,3.3913,3.4503,3.3193,3.3371,3.4083,3.554,3.6004,3.6315,3.6797,3.5943,3.4685,3.3125,3.3568,3.5173,3.81,3.7156,3.7678,4.0474,3.9996,3.9109,3.8085,3.7031,3.6347,3.6147,3.8134,3.948,4.0343,4.2576,4.3555,4.3262,4.2695,4.2266,4.1973,4.1426,4.1172,4.1172,4.1172,4.1172,4.1172,4.1172,4.1172,4.1074,4.0215,3.9902,3.9766,0.0,0.0,0.0,0.0,0.0,0.0,0.0,0.0,0.0,0.0,0.0,0.0,0.0,0.0,0.0,0.0,0.0,0.8682,0.8974,0.9598,1.0114,1.0466,1.0955,1.2249,1.4492,1.5994,1.7847,2.0036,2.1462,2.2554,2.3353,2.3443,2.3801,2.4476,2.4476,2.4422,2.4329,2.4329,2.4329,2.4275,2.3688,2.3273,2.2913,2.2098,2.1015,0.0,0.0,0.0,1.7862,1.7943,1.8063,1.825,1.8731,1.9185,1.9666,2.0254,2.1109,2.2044,2.2832,2.4733,2.6661,2.7309,2.8758,2.9775,2.8869,2.8382,2.8302,2.8697,2.8839,2.926,3.0315,3.1144,3.1334,3.0469,3.1308,3.292,3.549,3.6731,3.7525,3.7852,3.7014,3.5458,3.3037,3.3265,3.4086,3.5467,3.4355,3.4839,3.7689,3.8014,3.7942,3.7722,3.7578,3.7745,3.839,3.9689,4.068,4.1537,4.301,4.3476,4.3066,4.2617,4.2207,4.1777,4.1348,4.1172,4.1172,4.1172,4.1172,4.1172,4.1172,4.1172,4.1074,4.0215,3.9902,3.9766,0.0,0.0,0.0,0.0,0.0,0.0,0.0,0.0,0.0,0.0,0.0,0.0,0.0,0.0,0.0,0.0,0.0,0.0,0.8676,0.9103,0.9544,0.993,1.0304,1.1445,1.3569,1.3892,1.5022,1.7053,1.7479,1.8845,2.1007,2.1171,2.2177,2.3984,2.3984,2.391,2.3728,2.3714,2.3688,2.3621,2.3075,2.2579,2.2191,2.1056,0.0,0.0,0.0,0.0,1.6673,1.642,1.6941,1.7742,1.8036,1.9305,2.0815,2.148,2.2031,2.2766,2.3955,2.4917,2.5718,2.6293,2.6627,2.6894,2.7161,2.6547,2.5999,2.6253,2.6932,2.7056,0.0,2.6595,2.8043,2.9613,3.173,3.426,3.7355,3.9685,4.0351,3.8365,3.8373,3.7639,3.5156,3.5178,3.4677,3.3172,3.333,3.47,3.7326,3.7584,3.7705,3.7621,3.7533,3.839,4.0427,4.0511,4.1537,4.3711,4.3691,4.3457,4.3027,4.2598,4.2168,4.1738,4.1348,4.1172,4.1172,4.1172,4.1172,4.1172,4.1172,4.1172,4.1074,4.0215,3.9902,3.9766,0.0,0.0,0.0,0.0,0.0,0.0,0.0,0.0,0.0,0.0,0.0,0.0,0.0,0.0,0.0,0.0,0.0,0.0,0.852,0.8757,0.9083,0.953,0.9944,1.0538,1.1315,1.3112,1.4294,1.4955,1.6556,1.7718,1.8432,1.8497,1.9528,2.127,2.127,2.1944,2.3086,2.2859,2.2645,2.2365,0.0,2.1056,2.0735,0.0,0.0,0.0,0.0,0.0,0.0,0.0,0.0,0.0,0.0,2.0281,2.1162,2.1964,2.2939,2.3955,2.4917,2.5812,2.6573,2.6947,2.6934,2.6787,2.664,2.6106,2.5518,2.5157,2.4929,2.46,2.3973,2.4902,2.5971,2.6578,2.968,3.2964,3.5635,3.8345,4.0447,4.1151,4.0203,3.9112,3.8146,3.6603,3.569,3.5504,3.3754,3.3908,3.6843,3.5406,3.6105,3.9469,3.9554,4.062,4.2844,4.2844,4.3093,4.3691,4.3379,4.3008,4.2578,4.2148,4.1738,4.1328,4.1211,4.1172,4.1172,4.1172,4.1172,4.1172,4.1172,4.1172,4.1074,4.0215,3.9902,3.9766,0.0,0.0,0.0,0.0,0.0,0.0,0.0,0.0,0.0,0.0,0.0,0.0,0.0,0.0,0.0,0.0,0.0,0.0,0.0,0.8431,0.8689,0.9069,0.9327,0.9598,0.9897,1.1253,1.1996,1.2083,0.0,0.0,1.5456,1.5553,1.6918,1.9304,1.9304,2.0235,2.1697,2.1523,0.0,0.0,0.0,0.0,0.0,0.0,0.0,0.0,0.0,0.0,0.0,0.0,0.0,2.0441,2.0869,2.159,2.2445,2.3327,0.0,2.497,2.5852,2.664,2.7215,2.7255,2.7041,2.668,2.6132,2.5451,2.469,2.3834,2.33,2.2859,2.2432,2.3313,2.4693,2.6326,2.9681,3.3242,3.6273,3.9033,4.1133,4.2261,4.1699,4.1121,4.0628,3.9641,3.8749,3.7873,3.5496,3.4874,3.6711,3.6572,3.7587,4.0259,4.1286,4.2409,4.3711,4.3711,4.3711,4.3691,4.3281,4.2851,4.2402,4.1992,4.1562,4.1172,4.1172,4.1172,4.1172,4.1172,4.1172,4.1172,4.1172,4.1172,4.1074,4.0215,3.9902,3.9766,0.0,0.0,0.0,0.0,0.0,0.0,0.0,0.0,0.0,0.0,0.8029,0.0,0.0,0.0,0.0,0.0,0.0,0.0,0.0,0.0,0.0,0.8696,0.873,0.8872,0.9207,0.9357,0.9381,0.9381,0.0,0.0,0.0,0.0,0.0,0.0,0.0,0.0,0.0,0.0,0.0,0.0,0.0,0.0,0.0,0.0,0.0,0.0,0.0,0.0,0.0,0.0,2.0788,2.1456,2.2084,2.3073,2.4168,2.501,2.5491,2.5919,2.672,2.7335,2.7682,2.7402,2.7041,2.6533,2.5651,2.4716,2.3701,2.2539,2.2044,2.1657,2.1149,2.1977,2.3832,2.6979,0.0,3.4154,3.7694,4.0344,4.2129,4.2539,4.293,4.3008,4.2637,4.293,4.2206,3.9902,3.8229,3.7352,3.7244,3.9225,4.0427,4.0764,4.2678,4.3711,4.3711,4.3711,4.3672,4.3613,4.3203,4.2773,4.2324,4.1914,4.1523,4.1172,4.1172,4.1172,4.1172,4.1172,4.1172,4.1172,4.1172,4.1172,4.1074,4.0215,3.9902,3.9766,0.0,0.0,0.0,0.0,0.0,0.0,0.0,0.0,0.0,0.0,0.8217,0.7988,0.0,0.0,0.0,0.0,0.0,0.0,0.0,0.0,0.0,0.8703,0.8832,0.8981,0.9207,0.9357,0.9381,0.9381,0.9456,0.0,0.0,0.0,0.0,0.0,0.0,0.0,0.0,0.0,0.0,0.0,0.0,0.0,0.0,0.0,0.0,0.0,0.0,0.0,0.0,0.0,2.167,2.2699,2.3554,2.4462,2.5331,2.5972,2.6547,2.7041,2.7442,2.7802,2.8073,2.7696,2.7041,2.6239,2.5358,2.4088,0.0,0.0,2.1283,2.0869,2.0775,2.151,2.2821,2.4866,2.9632,3.3852,3.607,4.0087,4.3008,0.0,4.3555,4.3574,4.3496,4.3555,4.2646,4.0319,4.1611,4.1648,3.9818,4.009,4.1202,4.301,4.3526,4.3711,4.3711,4.3711,4.3535,4.3183,4.2754,4.2324,4.1894,4.1484,4.125,4.1172,4.1172,4.1172,4.1172,4.1172,4.1172,4.1172,4.1172,4.1172,4.1074,4.0215,3.9902,3.9766,0.0,0.0,0.0,0.0,0.0,0.0,0.0,0.8452,0.8635,0.9008,0.8872,0.8676,0.8474,0.8364,0.8269,0.0,0.0,0.0,0.0,0.0,0.0,0.0,0.0,0.8893,0.9042,0.9184,0.0,0.0,0.0,0.0,0.0,0.0,0.0,0.0,0.0,0.0,0.0,0.0,0.0,0.0,0.0,0.0,0.0,0.0,0.0,0.0,0.0,0.0,0.0,0.0,2.1643,2.3142,2.4275,2.5264,2.6092,2.668,2.7041,2.7362,2.7802,2.8114,2.8127,2.7589,2.6694,2.5625,2.4436,0.0,0.0,0.0,2.0414,2.0174,2.0027,2.1082,2.2699,2.4815,2.8727,3.2655,3.6105,3.9407,4.1914,4.3223,4.3574,4.3711,4.3711,4.2659,4.095,3.863,4.0596,4.1453,4.0343,4.1453,4.2576,4.3711,4.3711,4.3711,4.3711,4.3711,4.3496,4.3066,4.2637,4.2207,4.1777,4.1367,4.1172,4.1172,4.1172,4.1172,4.1172,4.1172,4.1172,4.1172,4.1172,4.1172,4.1074,4.0215,3.9902,3.9766,0.0,0.0,0.0,0.0,0.0,0.0,0.0,0.8737,0.894,0.9456,0.9496,0.9388,0.9094,0.8798,0.8554,0.0,0.0,0.0,0.0,0.0,0.0,0.0,0.0,0.8906,0.9028,0.0,0.0,0.0,0.0,0.0,0.0,0.0,0.0,0.0,0.0,0.0,0.0,0.0,0.0,0.0,0.0,0.0,0.0,0.0,0.0,0.0,0.0,0.0,0.0,0.0,2.1336,2.2752,2.4235,2.5438,2.6386,2.6854,2.7161,2.7455,2.7923,2.8181,2.8087,2.7415,2.6333,2.505,2.3647,2.2084,0.0,1.988,1.9653,1.9559,1.9457,2.0548,2.2281,0.0,2.7697,3.1311,3.5785,3.8556,4.0898,0.0,4.3457,0.0,4.3711,4.2057,4.009,3.7775,3.9225,4.0511,4.1034,4.2761,4.3711,4.3711,4.3711,4.3711,4.3711,4.3613,4.3359,4.293,4.25,4.207,4.166,4.1328,4.1172,4.1172,4.1172,4.1172,4.1172,4.1172,4.1172,4.1172,4.1172,4.1172,4.1074,4.0312,3.998,3.9785,0.0,0.0,0.0,0.0,0.0,0.0,0.0,0.8825,0.9121,0.9835,0.9869,0.9768,0.9741,0.9175,0.8784,0.0,0.0,0.0,0.0,0.0,0.0,0.0,0.0,0.0,0.0,0.0,0.0,0.0,0.0,0.0,0.0,0.0,0.0,0.0,0.0,0.0,0.0,0.0,0.0,0.0,0.0,0.0,0.0,0.0,0.0,0.0,0.0,0.0,0.0,0.0,0.0,2.1537,2.302,2.4636,2.609,2.6066,0.0,0.0,2.7722,2.7936,2.8087,2.7415,2.6186,2.481,2.3607,0.0,2.0134,1.9533,1.9199,1.9078,1.9319,1.972,2.0596,2.2416,2.6481,3.0493,3.3433,3.7992,4.1562,4.291,0.0,0.0,4.3711,4.3526,4.2409,4.0174,4.0174,4.1202,4.3278,4.3609,4.3711,4.3711,4.3711,4.3711,4.3711,4.332,4.291,4.248,4.2051,4.1641,4.123,4.1191,4.1172,4.1172,4.1172,4.1172,4.1172,4.1172,4.1172,4.1172,4.1172,4.1172,4.1113,4.0644,4.0234,3.9824,0.0,0.0,0.0,0.0,0.0,0.0,0.8879,0.8954,0.9215,1.0195,1.0188,1.0093,1.0093,0.9802,0.9316,0.8804,0.0,0.0,0.0,0.0,0.0,0.0,0.0,0.0,0.0,0.0,0.0,0.9646,0.0,0.0,0.0,0.0,0.0,0.0,0.0,0.0,0.0,0.0,0.0,0.0,0.0,0.0,0.0,0.0,0.0,0.0,0.0,0.0,0.0,0.0,0.0,0.0,2.1122,2.2405,0.0,0.0,2.6146,2.68,2.7509,2.7909,2.8087,2.7415,2.6026,2.4502,2.3313,0.0,1.9853,1.9511,1.9132,1.9011,1.9319,1.9599,2.0147,2.1203,2.375,2.6825,3.0289,3.3947,3.7473,4.0802,4.1992,4.2871,4.3633,4.1202,3.914,3.8289,3.948,4.1286,4.3609,4.3711,4.3711,4.3711,4.3457,4.332,4.332,4.291,4.248,4.2051,4.1875,4.1582,4.1172,4.1172,4.1172,4.1172,4.1172,4.1172,4.1172,4.1172,4.1172,4.1172,4.1172,4.1172,4.1113,4.0684,4.0254,3.9824,0.0,0.0,0.0,0.0,0.0,0.7654,0.8412,0.8795,0.9395,1.031,1.0378,1.0344,1.0344,1.0127,0.9707,0.9188,0.9123,0.0,0.0,0.0,0.0,0.0,0.0,0.0,0.0,0.0,0.9788,0.989,1.0414,1.0743,0.0,0.0,0.0,0.0,0.0,0.0,0.0,0.0,0.0,0.0,0.0,0.0,0.0,0.0,0.0,0.0,0.0,0.0,0.0,0.0,0.0,0.0,0.0,0.0,0.0,0.0,2.5251,2.6026,2.6934,2.7522,2.7819,2.7148,2.5745,2.4195,0.0,2.1216,1.9693,1.9319,1.9065,1.8985,1.9199,1.9479,1.9867,2.0454,2.2133,2.4781,2.8693,3.1575,3.4896,3.9226,0.0,4.1875,4.3027,4.0479,3.88,3.88,4.0343,4.1974,4.3609,4.3594,4.3516,4.3516,4.3223,4.3008,4.2891,4.2461,4.209,4.1797,4.168,4.1465,4.1172,4.1172,4.1172,4.1172,4.1172,4.1172,4.1172,4.1172,4.1172,4.1172,4.1172,4.1172,4.1113,4.0684,4.0254,3.9824,0.0,0.0,0.0,0.0,0.0,0.0,0.6848,0.8319,0.9591,1.0202,1.0405,1.0487,1.0487,1.0093,0.9822,0.9815,0.9544,0.0,0.0,0.0,0.0,0.0,0.0,0.0,0.0,0.0,0.9984,0.9984,1.194,1.2892,1.2892,1.4634,0.0,0.0,0.0,0.0,0.0,0.0,0.0,0.0,0.0,0.0,0.0,0.0,0.0,0.0,0.0,0.0,0.0,0.0,0.0,0.0,0.0,0.0,0.0,0.0,2.4142,2.5585,2.5892,2.6613,2.7134,2.6547,2.5291,2.3888,2.2699,2.1056,1.9639,1.9052,1.8931,1.8918,1.8931,1.9172,1.9559,2.0147,2.236,2.5375,2.9328,3.2348,3.5417,0.0,4.0,4.0879,4.1738,4.2887,4.3609,4.3609,4.3609,4.3711,4.3711,4.3301,4.3086,4.3086,4.3086,4.2871,4.2441,4.2012,4.1797,4.1797,4.1387,4.1172,4.1172,4.1172,4.1172,4.1172,4.1172,4.1172,4.1172,4.1172,4.1172,4.1172,4.1172,4.1172,4.1113,4.0684,4.0254,3.9824,0.0,0.0,0.0,0.0,0.0,0.0,0.0,0.7895,0.9055,0.9863,0.9829,0.989,1.0304,1.0032,0.9903,1.0114,0.9673,0.0,0.0,0.0,0.0,0.0,0.0,0.0,0.0,0.0,1.2123,1.2419,1.4345,1.5216,1.5125,1.5637,1.6536,1.7611,0.0,0.0,0.0,0.0,0.0,0.0,0.0,0.0,0.0,0.0,0.0,0.0,0.0,0.0,0.0,0.0,0.0,0.0,0.0,0.0,0.0,1.9088,0.0,0.0,2.4329,2.5104,2.5585,2.4796,2.3941,2.3033,2.2044,2.0922,1.9933,1.9345,1.9225,1.9225,1.9225,1.9305,1.9819,2.0949,2.1856,2.3487,2.6617,3.0012,0.0,3.6072,3.848,4.0121,4.074,4.1147,4.1259,4.0879,4.2403,4.3144,4.2851,4.2715,4.2773,4.3066,4.25,4.2129,4.1992,4.1582,4.1367,4.1367,4.123,4.1172,4.1172,4.1172,4.1172,4.1172,4.1172,4.1172,4.1172,4.1172,4.1172,4.1172,4.1172,4.1172,4.1113,4.0684,4.0254,3.9824,0.0,0.0,0.0,0.0,0.0,0.0,0.0,0.7742,0.8872,0.949,0.951,0.9673,1.0222,0.9958,0.991,1.0324,0.9917,0.0,0.0,0.0,0.0,0.0,0.0,0.0,0.0,1.2557,1.3497,1.4669,1.6588,1.7543,1.7544,1.8202,1.867,1.91,1.91,0.0,0.0,0.0,0.0,0.0,0.0,0.0,0.0,0.0,0.0,0.0,0.0,0.0,0.0,0.0,0.0,0.0,0.0,0.0,0.0,0.0,1.8791,2.1856,0.0,2.3821,2.4289,2.3741,2.306,2.2325,2.1563,2.0615,1.9773,1.9305,1.9199,1.9199,1.9199,1.9292,1.9706,2.0784,2.0989,2.2382,2.6162,2.9005,3.2133,3.6164,3.858,4.0098,4.0589,4.0905,4.0979,4.0637,4.1982,4.2715,4.2441,4.2285,4.2324,4.2598,4.207,4.1719,4.1562,4.1308,4.1172,4.1172,4.1172,4.1172,4.1172,4.1172,4.1172,4.1172,4.1172,4.1172,0.0,4.1172,4.1172,4.1172,4.1172,4.1172,4.1094,4.0508,4.0117,3.9805,0.0,0.0,0.0,0.0,0.0,0.0,0.0,0.7761,0.896,0.9173,0.9395,0.9741,1.0188,0.9869,0.9856,1.0426,0.0,0.0,0.0,0.0,0.0,0.0,0.0,0.0,1.4831,1.3563,1.4153,1.6619,1.8506,1.9642,2.0027,2.1691,2.1991,2.1176,2.1149,2.0766,0.0,0.0,0.0,0.0,0.0,0.0,0.0,0.0,0.0,0.0,0.0,0.0,0.0,0.0,0.0,0.0,0.0,0.0,0.0,0.0,0.0,0.0,0.0,2.2619,2.306,2.302,2.2405,2.1657,2.1082,2.012,0.0,1.8958,1.8891,1.8905,1.8945,1.9158,1.9466,1.9893,2.0187,2.2086,2.7133,2.9077,3.2368,3.8654,3.9946,4.0627,4.1211,4.1794,4.2242,4.2383,4.2383,4.2363,4.2344,4.1973,4.1758,4.1758,4.1758,4.1562,4.1172,4.1172,4.1172,4.1172,4.1172,4.1172,4.1172,4.1172,4.1172,4.1172,4.1172,4.1172,4.1172,4.1172,4.1172,4.1172,4.1172,4.1152,4.1035,4.0195,3.9883,3.9726,0.0,0.0,0.0,0.0,0.0,0.0,0.0,0.0,0.0,0.0,0.9144,0.9388,0.9727,0.9768,0.9924,0.0,0.0,0.0,0.0,0.0,0.0,0.0,0.0,0.0,1.3252,1.3138,1.428,1.6768,1.8755,2.0527,2.2193,2.2616,2.2405,2.1764,2.155,2.0528,0.0,0.0,0.0,0.0,0.0,0.0,0.0,0.0,0.0,0.0,1.9399,1.943,0.0,0.0,0.0,0.0,0.0,0.0,0.0,0.0,1.6097,1.7179,1.9187,0.0,2.0521,2.0067,1.9973,1.9893,0.0,1.9225,1.8945,1.8651,1.8597,1.8731,1.9185,1.9132,1.9559,2.1203,2.1537,2.2415,2.4806,2.9189,3.4434,4.0492,3.9817,3.9682,4.1931,4.072,4.0378,4.1814,4.1953,4.1816,4.1484,4.1367,4.1328,4.1328,4.1328,4.1269,4.1172,4.1172,4.1172,4.1172,4.1172,4.1172,4.1172,4.1172,4.1172,4.1172,4.1172,4.1172,4.1172,4.1172,4.1172,4.1172,4.1172,4.0976,4.0605,4.0098,3.9668,3.9297,0.0,0.0,0.0,0.0,0.0,0.0,0.0,0.0,0.0,0.0,0.0,0.9323,0.9578,0.9734,0.0,0.0,0.0,0.0,0.0,0.0,0.0,0.0,0.0,1.4194,1.5147,1.4569,1.5564,1.8158,2.0067,2.1735,2.3073,2.3073,2.2686,2.1964,2.1537,2.0272,0.0,0.0,0.0,0.0,0.0,0.0,0.0,0.0,0.0,0.0,1.8929,1.9158,0.0,1.9479,1.9559,1.9245,0.0,0.0,0.0,0.0,1.6174,1.6895,1.7991,1.9038,1.976,1.9573,1.9546,1.9519,1.9359,1.8905,1.8422,1.8317,1.829,1.8424,1.8878,1.9052,1.9573,2.0962,2.1523,2.2889,2.5878,3.0991,3.5787,3.9584,3.9771,4.0201,4.1737,4.0686,4.0432,4.1445,4.1504,4.1406,4.1191,4.1172,4.1172,4.1172,4.1172,4.1172,4.1172,4.1172,4.1172,4.1172,4.1172,4.1172,4.1172,4.1172,4.1172,4.1172,4.1172,4.1172,4.1172,4.1172,4.1172,4.1152,4.0957,4.0723,4.0449,3.9805,3.9414,3.9141,0.0,0.0,0.0,0.0,0.0,0.0,0.0,0.0,0.0,0.0,0.0,0.0,0.0,0.0,0.0,0.0,0.0,0.0,0.0,0.0,0.0,0.0,0.0,1.6347,1.7668,1.6392,1.6882,1.9321,2.1243,2.2559,2.3394,2.3487,2.2993,2.2031,2.1483,2.0349,0.0,0.0,0.0,0.0,0.0,0.0,0.0,0.0,0.0,0.0,0.0,0.0,0.0,1.9367,1.9626,1.9364,1.7848,0.0,0.0,0.0,0.0,0.0,1.7742,1.8771,1.9813,1.982,1.9786,1.9653,1.9613,0.0,0.0,1.8009,1.8035,1.8169,1.8557,1.9105,1.9851,2.0869,2.2129,2.4535,2.8832,3.333,3.6732,3.8244,4.0021,4.1172,4.1172,4.1172,4.1172,4.1172,4.1172,4.1172,4.1172,4.1172,4.1172,4.1172,4.1172,4.1172,4.1172,4.1172,4.1172,4.1172,4.1172,4.1172,4.1172,4.1172,4.1172,4.1172,4.1172,4.1172,4.1172,4.1172,4.1172,4.1133,4.0684,4.0488,4.0332,3.9512,3.916,3.9062,0.0,0.0,0.0,0.0,0.0,0.0,0.0,0.0,0.0,0.0,0.0,0.0,0.0,0.0,0.0,0.0,0.0,0.0,0.0,0.0,0.0,2.0787,1.8823,1.7174,1.6067,1.5927,1.6247,1.7105,1.9658,2.1923,2.3714,2.4209,2.3688,2.2338,2.2004,2.1447,2.0589,0.0,0.0,0.0,0.0,0.0,0.0,0.0,0.0,0.0,0.0,0.0,0.0,1.8246,1.8851,1.8901,1.8134,0.0,0.0,0.0,0.0,0.0,1.8504,1.9252,1.9573,1.8568,1.8661,1.8998,1.8744,1.8557,1.8343,0.0,0.0,1.8584,1.9132,1.9706,2.1074,2.4154,2.728,2.9987,3.2017,3.4656,3.7438,4.0356,4.0997,4.1172,4.1172,4.1172,4.1172,4.1172,4.1172,4.1172,4.1172,4.1172,4.1172,4.1172,4.1172,4.1172,4.1172,4.1172,4.1172,4.1172,4.1172,4.1172,4.1172,4.1172,4.1172,4.1172,4.1172,4.1172,4.1172,4.1172,4.1172,4.1133,4.0684,4.0312,3.9922,3.9394,3.8965,3.8652,0.0,0.0,0.0,0.0,0.0,0.0,0.0,0.0,0.0,0.0,0.0,0.0,0.0,0.0,0.0,0.0,0.0,0.0,0.0,0.0,0.0,2.1208,2.0502,1.9185,1.7543,1.7664,1.8095,1.8783,2.1337,2.3137,2.4222,2.3848,2.3233,2.2392,2.1777,2.0837,1.961,1.8832,0.0,0.0,0.0,0.0,0.0,0.0,0.0,0.0,0.0,0.0,0.0,0.0,1.8138,1.9065,1.8477,0.0,0.0,0.0,0.0,0.0,1.809,1.8744,1.9199,1.8595,1.9199,1.9786,1.9506,1.9185,1.8931,1.8784,1.8865,1.9092,1.9519,2.0201,2.1656,2.4524,2.7791,3.0292,3.1432,3.4719,3.7609,3.9202,4.0431,4.1172,4.1172,4.1172,4.1172,4.1172,4.1172,4.1172,4.1172,4.1172,4.1172,4.1172,4.1172,4.1172,4.1172,4.1172,4.1172,4.1172,4.1172,4.1172,4.1172,4.1172,4.1172,4.1172,4.1172,4.1172,4.1152,4.0918,4.082,4.0762,4.0078,3.9687,3.9473,3.9023,3.875,3.8574,0.0,0.0,0.0,0.0,0.0,0.0,0.0,0.0,0.0,0.0,0.0,0.0,0.0,0.0,0.0,0.0,0.0,0.0,0.0,0.0,1.7357,2.0709,2.1316,2.085,1.9291,1.9905,2.0456,2.0829,2.3284,2.4663,2.4917,2.3808,2.3006,2.2485,2.1683,2.0259,1.8448,1.8052,1.6108,0.0,0.0,0.0,0.0,0.0,0.0,0.0,0.0,0.0,0.0,0.0,0.0,0.0,0.0,0.0,0.0,1.7996,1.7689,1.7649,1.7929,1.845,1.8958,1.9092,1.98,2.0468,2.0441,2.004,1.9693,1.976,1.9886,1.9933,2.008,2.142,2.301,2.4576,2.8175,3.0947,3.1348,3.5285,3.8342,3.8669,4.0197,4.1172,4.1172,4.1172,4.1172,4.1172,4.1172,4.1172,4.1172,4.1172,4.1172,4.1172,4.1172,4.1172,4.1172,4.1172,4.1172,4.1172,4.1172,4.1172,4.1172,4.1172,4.1172,4.1172,4.1074,4.1016,4.0996,4.0566,4.0371,4.0293,3.9512,3.9141,3.9004,3.8691,3.8574,3.8574,0.0,0.0,0.0,0.0,0.0,0.0,0.0,0.0,0.0,0.0,0.0,0.0,0.0,0.0,0.0,0.0,0.0,0.0,0.0,0.0,1.6764,1.8664,2.0541,2.1121,2.0026,2.1739,2.223,2.1375,2.407,2.5571,2.5838,2.493,2.3915,2.2874,2.2191,2.0682,1.8372,1.6754,1.5005,1.3128,0.0,0.0,0.0,0.0,0.0,0.0,0.0,0.0,0.0,0.0,0.0,0.0,0.0,0.0,1.8504,1.8437,1.8023,1.7822,1.8988,1.9078,1.9052,1.9599,1.98,2.0067,2.0869,2.0802,2.0655,2.0922,2.1203,2.1323,2.1069,2.4142,2.6487,2.558,3.1197,3.5239,3.4117,3.7613,4.0453,4.088,4.1094,4.1172,4.1172,4.1172,4.1172,4.1172,4.1172,4.1172,4.1172,4.1172,4.1172,4.1172,4.1172,4.1172,4.1172,4.1172,4.1172,4.1172,4.1172,4.1172,4.1172,4.1172,4.1172,4.1152,4.0742,4.0566,4.0527,4.0117,3.9941,3.9883,3.9394,3.8965,3.8613,3.8594,3.8574,3.8574,0.0,0.0,0.0,0.0,0.0,0.0,0.0,0.0,0.0,0.0,0.0,0.0,0.0,0.0,0.0,0.0,0.0,0.0,0.0,1.39,1.5127,1.7097,1.8006,1.8944,1.9861,2.2377,2.3918,2.4277,2.5489,2.5932,2.5651,2.4409,2.338,2.2552,2.1777,2.0336,1.8372,1.6625,1.4874,1.3128,1.1372,0.0,0.0,0.0,0.0,0.0,0.0,0.0,0.0,0.0,1.4735,1.6906,1.6671,1.7576,1.8691,1.8317,1.7916,1.7675,1.813,1.8584,1.8971,1.9199,1.98,2.0481,2.0989,2.1443,2.1897,2.2392,2.2579,2.2619,2.2512,2.4037,2.5763,2.7219,3.1529,3.5046,3.5957,3.8903,4.0996,4.1152,4.1172,4.1172,4.1172,4.1172,4.1172,4.1172,4.1172,4.1172,4.1172,4.1172,4.1172,4.1172,4.1172,4.1172,4.1172,4.1172,4.1172,4.1172,4.1172,4.1172,4.1172,3.9786,3.9067,3.8825,3.7294,3.7174,3.8191,3.7781,3.8311,3.9414,3.8984,3.8711,3.8574,3.8574,3.8574,3.8574,0.0,0.0,0.0,0.0,0.0,0.0,0.0,0.0,0.0,0.0,0.0,0.0,0.0,0.0,0.0,0.0,0.0,0.0,1.2224,1.2931,1.3901,1.5346,1.6158,1.7286,1.8959,2.1269,2.3551,2.5755,2.6159,2.5999,2.5211,2.3928,2.3046,2.2512,2.1537,1.9902,1.7891,1.6494,1.4558,1.2347,1.1174,1.0541,0.0,0.0,0.0,0.0,0.0,0.0,0.0,0.0,1.3028,1.5409,1.5662,1.6821,1.806,1.8139,1.8103,1.7983,1.7889,1.8384,1.8971,1.9158,1.9947,2.0855,2.151,2.2124,2.2779,2.3581,2.3594,2.35,2.3581,2.4008,2.5024,2.7233,3.1103,3.4418,3.6053,3.9112,4.1172,4.1172,4.1172,4.1172,4.1172,4.1172,4.1172,4.1172,4.1172,4.1172,4.1172,4.1172,4.1172,4.1172,4.1172,4.1172,4.1172,4.1172,4.0783,3.9987,3.9987,4.0063,4.0099,3.777,3.6588,3.6342,3.4587,3.4491,3.5568,3.5181,3.5872,3.7129,3.7459,3.7198,3.6664,3.6664,3.6664,3.6664,0.0,0.0,0.0,0.0,0.0,0.0,0.0,0.0,0.0,0.0,0.0,0.0,0.0,0.0,0.0,0.0,0.0,0.0,1.0704,1.2281,1.3251,1.3251,1.528,1.6583,1.7159,1.8135,2.0705,2.5077,2.5945,2.5694,2.4522,2.3656,2.3153,2.2792,2.163,1.9455,1.6742,1.6095,1.384,1.0717,1.0717,1.0541,0.0,0.0,0.0,0.0,0.0,0.0,0.0,0.0,1.2181,1.3671,1.5812,1.6422,1.659,1.8076,1.8691,1.8851,1.8557,1.8691,1.9065,1.9653,2.0254,2.1082,2.2539,2.2941,2.322,2.4409,2.4195,2.3875,2.4155,2.4449,2.4836,2.5411,3.0175,3.3851,3.412,3.8213,4.1172,4.1172,4.1172,4.1172,4.1172,4.1172,4.1172,4.1172,4.1172,4.1172,4.1172,4.1172,4.1172,4.1172,4.1172,4.1172,4.1172,4.1152,3.989,3.7475,3.7475,3.7596,3.7798,3.531,3.4186,3.4137,3.3347,3.3033,3.3078,3.2637,3.2505,3.2733,3.4676,3.4226,3.2505,3.2505,3.2505,3.2505,0.0,0.0,0.0,0.0,0.0,0.0,0.0,0.0,0.0,0.0,0.0,0.0,0.0,0.0,0.0,0.0,0.0,0.0,1.0405,1.1012,1.133,1.133,1.2125,1.3126,1.4427,1.6511,1.8766,2.1063,2.2455,2.2007,1.9776,2.1772,2.1099,1.8351,1.925,1.7641,1.4319,1.4068,1.2686,1.0711,1.0602,1.0446,0.0,0.0,0.0,0.0,0.0,0.0,0.0,0.0,0.0,0.0,1.3853,0.0,1.6976,1.7906,1.8384,1.8464,1.7742,1.837,1.9279,1.9452,2.0708,2.2178,2.326,2.3661,2.4142,2.5317,2.5264,2.4957,2.4836,2.5064,2.5745,2.7409,2.9683,3.1748,3.3253,3.6426,3.8613,3.8613,4.0181,4.1172,4.1172,4.1172,4.1172,4.1172,4.0879,4.084,4.1152,4.0605,4.041,4.0703,4.043,4.0273,4.0273,3.8839,3.7727,3.6981,3.3963,3.3397,3.4919,3.2666,3.1459,3.1227,2.9477,2.9336,3.0577,3.1928,3.2505,3.2581,3.3171,3.3037,3.2505,3.2505,3.2505,3.2505,0.0,0.0,0.0,0.0,0.0,0.0,0.0,0.0,0.0,0.0,1.0717,1.0717,0.0,0.0,0.0,0.0,0.0,0.0,0.0,1.0534,1.0582,1.0582,1.0758,1.133,1.2417,1.4087,1.5373,1.6149,1.8916,1.9275,1.7389,1.9381,1.8982,1.6654,1.769,1.6469,1.3669,1.3484,1.2339,1.0629,1.0595,1.046,1.0256,0.0,0.0,0.0,0.0,0.0,0.0,0.0,0.0,0.0,1.2061,0.0,1.5664,1.6909,1.7945,1.8597,1.829,1.9082,2.0,2.0468,2.159,2.2926,2.4182,2.469,2.513,2.5959,2.5798,2.5491,2.5438,2.5478,2.5927,2.7307,2.9001,3.0556,3.1714,3.4328,3.6365,3.7162,3.8564,3.9778,4.0587,4.0664,4.0664,4.0664,4.043,4.0391,4.0644,4.0176,4.0019,4.0273,4.0019,3.9505,3.8709,3.7433,3.5941,3.4142,3.1558,3.0548,3.0821,2.9624,2.8942,2.869,2.7239,2.7248,2.8374,3.0438,3.0823,3.0145,3.0977,3.0746,3.0068,3.0068,3.0068,3.0068,0.0,0.0,0.0,0.0,0.0,0.0,0.0,0.0,0.0,0.0,1.0717,1.0717,0.0,0.0,0.0,0.0,0.0,0.0,0.0,0.0,1.0697,1.0697,1.0724,1.0873,1.1158,1.1423,1.1423,1.1145,1.5582,1.7237,1.6261,1.6857,1.6887,1.6481,1.6558,1.5589,1.3849,1.3578,1.2281,1.048,1.0595,1.0487,1.0229,0.993,0.0,0.0,0.0,0.0,0.0,0.0,0.0,0.0,1.0572,1.2,1.3445,1.5425,1.7376,1.9025,1.9506,2.016,2.0989,2.2098,2.2726,2.35,2.517,2.5785,2.6079,2.6333,2.5959,2.5678,2.5945,2.5772,2.5678,2.5959,2.8133,2.974,2.974,3.1889,3.4155,3.5958,3.6533,3.7509,3.941,3.9807,3.9902,3.9902,3.9863,3.9844,3.9902,3.9824,3.9785,3.9824,3.9635,3.8595,3.6692,3.629,3.4091,3.0039,2.9818,2.8583,2.64,2.6667,2.6787,2.6774,2.6507,2.6386,2.6544,2.8374,2.8076,2.6544,2.8374,2.7997,2.6386,2.6386,2.6386,2.6386,0.0,0.0,0.0,0.0,0.0,0.0,0.0,0.0,0.0,0.0,0.0,0.0,0.0,0.0,0.0,0.0,0.0,0.0,0.0,0.0,1.0541,1.0541,1.0772,1.0982,1.1158,1.1118,1.0988,1.0927,1.3592,1.3924,1.2073,1.5329,1.5279,1.2513,1.4058,1.3595,1.1564,1.1063,1.0615,1.0304,1.01,1.0046,1.008,0.989,0.9639,0.0,0.0,0.0,0.0,0.0,0.0,0.0,1.0572,1.2147,1.3614,1.4769,1.6908,1.8795,1.8462,1.9693,2.1189,2.1897,2.3354,2.4823,2.5665,2.6079,2.6319,2.6373,2.6293,2.6226,2.6279,2.6239,2.6226,2.6279,2.6781,2.7179,2.7179,2.9286,3.1057,3.1512,3.4642,3.6954,3.7433,3.8937,3.9902,3.9902,3.9551,3.9512,3.9883,3.9238,3.9004,3.9336,3.7464,3.6235,3.5767,3.2643,3.0531,2.9553,2.7939,2.6915,2.6386,2.6453,2.648,2.648,2.6413,2.6386,2.6465,2.6847,2.6768,2.6465,2.6847,2.6768,2.6386,2.6386,2.6386,2.6386,0.0,0.0,0.0,0.0,0.0,0.0,0.0,0.0,0.0,0.0,0.0,0.0,0.0,0.0,0.0,0.0,0.0,0.0,0.0,0.0,1.0636,1.0711,1.0799,1.0914,1.1056,1.0914,1.0772,1.0772,1.1851,1.1776,1.0839,1.3117,1.3137,1.135,1.2474,1.2098,1.0717,1.0408,1.0249,1.0059,1.0046,0.9998,0.9856,0.9693,0.9429,0.9137,0.8913,0.0,0.0,0.0,0.0,0.0,0.0,0.0,1.2102,1.2915,1.4509,1.6337,1.7579,1.8885,2.04,2.2549,2.4075,2.5197,2.5638,2.5865,2.5972,2.5972,2.6186,2.6346,2.6213,2.6293,2.6346,2.6199,2.6306,2.6386,2.6386,2.7523,2.8697,2.9625,3.1852,3.3667,3.4606,3.5691,3.6787,3.7709,3.7558,3.7539,3.7765,3.7351,3.6757,3.6047,3.4707,3.3624,3.2624,3.05,2.8905,2.7919,2.6925,2.6386,2.6386,2.6386,2.6386,2.6386,2.6386,2.6386,2.6386,2.6386,2.6386,2.6386,2.6386,2.6386,2.6386,2.6386,2.6386,2.6386,0.0,0.0,0.0,0.0,0.0,0.0,0.0,0.0,0.0,0.0,0.0,0.0,0.0,0.0,0.0,0.0,0.0,0.0,0.0,1.0717,1.0785,1.0873,1.088,1.0894,1.0914,1.0812,1.0731,1.0758,1.0582,1.0704,1.1035,1.1301,1.1389,1.1396,1.1525,1.1179,1.0493,1.0541,1.0249,0.9768,0.9992,0.9951,0.9713,0.9415,0.915,0.8844,0.8594,0.856,0.8676,0.8703,0.0,0.0,0.0,0.0,1.0357,1.0915,1.2002,1.3655,1.6368,1.7899,1.965,2.3293,2.4649,2.5157,2.5451,2.5518,2.5518,2.5518,2.5905,2.6159,2.5919,2.6079,2.6172,2.6063,2.6159,2.6333,2.6386,2.6386,2.7004,2.8671,2.9216,3.0053,3.1819,3.2277,3.3171,3.4826,3.4975,3.4975,3.4975,3.4975,3.4226,3.2581,3.2125,3.113,2.9449,2.906,2.8076,2.6386,2.6386,2.6386,2.6386,2.6386,2.6386,2.6386,2.6386,2.6386,2.6386,2.6386,2.6386,2.6386,2.6386,2.6386,2.6386,2.6386,2.6386,2.6386,0.0,0.0,0.0,0.0,0.0,0.0,0.0,0.0,0.0,0.0,1.0717,1.0711,1.069,1.0588,0.0,0.0,0.0,0.0,1.0711,0.0,0.0,1.0873,1.088,1.1009,1.1131,1.086,1.0785,1.0853,1.0629,1.0914,1.1708,1.1491,1.1389,1.1396,1.1409,1.1077,1.0466,1.01,0.9747,0.9435,0.9398,0.9419,0.9408,0.911,0.8919,0.8844,0.8594,0.8492,0.8533,0.8669,0.871,0.0,0.0,0.0,1.0355,1.0188,1.162,1.3393,1.4093,0.0,2.0471,0.0,2.4649,2.5157,0.0,2.5518,2.5518,2.5518,2.5571,2.5625,2.5585,2.5598,2.5705,2.5996,2.6063,2.6106,2.636,2.6386,2.6465,2.6768,2.8374,2.9526,2.9821,3.1437,3.2581,3.2868,3.2868,3.2868,3.2868,3.2868,3.2809,3.2505,3.0746,2.9666,2.9371,2.7684,2.6702,2.6386,2.6386,2.6386,2.6386,2.6386,2.6386,2.6386,2.6386,2.6386,2.6386,2.6386,2.6386,2.6386,2.6386,2.6386,2.6386,2.6386,2.6386,2.6386,0.0,0.0,0.0,0.0,0.0,0.0,0.0,0.0,0.0,0.0,0.0,1.0683,1.0602,1.0609,0.0,0.0,0.0,0.0,1.0588,1.067,0.0,0.0,1.0799,1.0853,1.0914,1.0622,1.0507,1.0575,1.0351,1.0751,1.1708,1.1579,1.1694,1.1993,1.1579,1.1104,1.0582,1.0046,0.9652,0.9367,0.9268,0.934,0.9557,0.8927,0.8838,0.8988,0.8431,0.8289,0.8377,0.8438,0.852,0.856,0.8411,0.0,0.0,0.0,0.9641,1.0853,1.2627,1.6089,1.9732,0.0,2.3171,2.4422,2.4716,2.4903,2.5024,2.5024,2.5024,2.5077,2.5237,2.5411,2.5504,2.5464,2.5598,2.5758,2.5879,2.5905,2.5905,2.5905,2.6653,2.7179,2.7179,2.8071,2.9048,3.026,3.0335,3.0335,3.0335,3.0335,2.9806,2.8606,2.7702,2.7179,2.7179,2.6343,2.5905,2.5905,2.5905,2.5905,2.5905,2.5905,2.6079,2.6386,2.6386,2.6386,2.6386,2.6386,2.6386,2.6386,2.6386,2.6386,2.6386,2.6386,2.6279,2.6172,0.0,0.0,0.0,0.0,0.0,0.0,0.0,0.0,0.0,0.0,0.0,0.0,1.0561,0.0,0.0,0.0,0.0,0.0,1.0439,0.0,0.0,0.0,0.0,1.0663,1.0663,1.0371,1.0243,1.0283,1.0127,1.0577,1.1789,1.1748,1.2128,1.2807,1.1986,1.1307,1.0738,1.0175,0.9788,0.9537,0.9347,0.9469,0.9707,0.915,0.918,0.9344,0.8574,0.837,0.8425,0.8309,0.8343,0.8411,0.8354,0.832,0.0,0.0,0.0,0.882,0.0,0.0,1.7508,1.8907,2.0735,2.2446,0.0,2.358,2.3914,2.4382,2.4583,2.4703,2.493,2.5144,2.5237,2.5104,2.5264,2.5424,2.5504,2.5518,2.5518,2.5518,2.5518,2.5518,2.5518,2.5518,2.6101,2.7665,2.7815,2.7815,2.7815,2.7815,2.7074,2.5518,2.5518,2.5518,2.5518,2.5518,2.5518,2.5518,2.5518,2.5518,2.5518,2.5518,2.5745,2.6172,2.6172,2.6172,2.6172,2.6172,2.6172,2.6172,2.6253,2.6239,2.6172,2.6253,2.6092,2.5879,0.0,0.0,0.0,0.0,0.0,0.0,0.0,0.0,0.0,0.0,0.0,0.0,1.0711,1.0588,1.0493,1.048,0.0,0.0,0.0,0.0,0.0,0.0,0.0,0.0,1.0507,1.0215,1.0134,1.0283,1.0127,1.0806,1.225,1.2108,1.2657,1.3729,1.2698,1.1755,1.084,1.0453,1.0161,0.993,0.97,0.9598,0.9659,1.0039,1.0114,0.9985,0.9371,0.9015,0.8784,0.8411,0.8327,0.8333,0.8327,0.832,0.8241,0.0,0.0,0.0,0.0,1.2152,0.0,1.5752,1.7149,1.8525,0.0,2.1222,2.2044,2.3845,2.4449,2.4636,2.4649,2.4676,2.477,2.5037,2.509,2.5197,2.5478,2.5518,2.5518,2.5518,2.5518,2.5518,2.5518,2.5518,2.5504,2.5657,2.5657,2.5657,2.5657,2.5657,2.5581,2.5518,2.5518,2.5518,2.5518,2.5518,2.5518,2.5518,2.5518,2.5518,2.5518,2.5518,2.5531,2.5558,2.5558,2.5558,2.5558,2.5558,2.5558,2.5585,2.5865,2.5812,2.5598,2.5879,2.5785,2.5585,0.0,0.0,0.0,0.0,0.0,0.0,0.0,0.0,0.0,0.0,0.0,0.0,0.0,1.067,1.0561,1.0371,1.0215,0.0,0.0,0.0,0.0,0.0,0.0,0.0,0.0,1.0249,1.0086,0.9849,0.9883,1.0426,1.143,1.1565,1.1959,1.2542,1.2264,1.1911,1.145,1.0527,1.01,0.9963,0.9727,0.9897,1.0297,1.0073,1.0188,1.0399,0.9802,0.9429,0.9184,0.8982,0.8695,0.8391,0.8347,0.8201,0.8113,0.8008,0.7988,0.8234,0.0,0.0,0.0,1.349,1.5242,1.6928,1.7992,1.9611,2.1138,2.1793,2.306,2.4075,2.4075,2.4382,2.4676,2.4783,2.4796,2.4836,2.493,2.4943,2.4943,2.4943,2.4943,2.4943,2.4943,2.4943,2.4943,2.4943,2.4943,2.4943,2.4943,2.4943,2.4943,2.4943,2.4943,2.4943,2.4943,2.4943,2.4943,2.4943,2.4943,2.4943,2.4943,2.4943,2.4943,2.4943,2.4943,2.517,2.5518,2.5518,2.5518,2.5518,2.5625,2.5611,2.5518,2.5625,2.5598,2.5558,0.0,0.0,0.0,0.0,0.0,0.0,0.0,0.0,1.0717,1.0717,0.0,0.0,0.0,0.0,1.0602,1.0304,1.0141,0.9963,0.9916,1.0073,0.0,0.0,0.0,0.0,0.0,1.0229,1.0032,0.968,0.9727,1.0134,1.0806,1.107,1.1457,1.1972,1.1721,1.1667,1.1701,1.0806,1.0327,1.0267,1.008,1.0276,1.0717,1.067,1.0806,1.0962,1.0514,1.0127,0.9774,0.9429,0.9042,0.8729,0.8479,0.8241,0.7988,0.7988,0.7988,0.8056,0.8404,0.0,0.0,0.0,1.2725,1.4188,1.5476,1.7115,1.8633,1.9445,2.13,2.2769,2.2788,2.3642,2.4382,2.4476,2.4569,2.4636,2.4636,2.4636,2.4636,2.4636,2.4636,2.4636,2.4636,2.4636,2.4636,2.4636,2.4636,2.4636,2.4636,2.4636,2.4636,2.4636,2.4636,2.4636,2.4636,2.4636,2.4636,2.4636,2.4636,2.4636,2.4636,2.4636,2.4636,2.4636,2.4636,2.4863,2.5211,2.5211,2.5211,2.5224,2.5331,2.5304,2.5237,2.5331,2.5371,2.5411,0.0,0.0,0.0,0.0,0.0,0.0,0.0,0.0,1.0717,1.0717,0.0,0.0,0.0,0.0,0.0,1.0317,1.0148,0.993,0.9836,0.9822,0.0,0.0,0.0,0.0,1.0283,1.0134,0.9916,0.9815,0.968,0.9978,1.0683,1.069,1.124,1.2182,1.1165,1.1036,1.1552,1.1246,1.1056,1.0873,1.0772,1.0731,1.0867,1.1884,1.2013,1.1626,1.147,1.1131,1.0643,0.991,0.9449,0.9187,0.8811,0.8404,0.7988,0.7988,0.7988,0.7988,0.0,0.0,0.0,0.0,0.0,0.0,1.2988,0.0,1.4422,1.6877,1.906,2.0592,2.0732,2.2405,2.3763,2.4056,2.4349,2.4623,2.4623,2.4636,2.4636,2.4636,2.4636,2.4636,2.4636,2.4636,2.4636,2.4636,2.4636,2.4636,2.4636,2.4636,2.4636,2.4636,2.4636,2.4636,2.4636,2.4636,2.4636,2.4636,2.4636,2.4636,2.4636,2.4636,2.4636,2.4636,2.4636,2.4636,2.4636,2.4636,2.4636,2.4663,2.4957,2.489,2.4676,2.4957,2.5077,2.5117,0.0,0.0,0.0,0.0,0.0,1.0717,1.0717,1.0717,1.0717,0.0,0.0,0.0,1.0717,1.0717,1.0683,1.0609,1.0365,1.0148,0.9936,0.9883,0.989,0.9977,1.0195,1.0283,1.0283,1.0236,1.0039,0.9666,0.9632,0.9659,0.9754,0.9971,1.0283,1.0597,1.0588,1.0527,1.0402,1.0168,1.0453,1.1063,1.0588,1.0921,1.1701,1.1775,1.1993,1.2237,1.2094,1.1816,1.1457,1.1043,1.0487,0.9822,0.8974,0.8404,0.7988,0.7988,0.7988,0.7988,0.7988,0.0,0.0,0.0,0.0,0.0,0.0,0.0,1.3084,1.4252,1.602,1.7543,1.7957,1.9854,2.1352,2.1481,2.3104,2.4329,2.4329,2.4502,2.4636,2.4636,2.4636,2.4636,2.4636,2.4636,2.4636,2.4636,2.4636,2.4636,2.4636,2.4636,2.4636,2.4636,2.4636,2.4636,2.4636,2.4636,2.4636,2.4636,2.4636,2.4636,2.4636,2.4636,2.4636,2.4636,2.4636,2.4636,2.4636,2.4636,2.4636,2.4649,2.473,2.4716,2.4649,2.473,2.489,2.509,0.0,0.0,0.0,1.0518,1.0772,1.0725,1.0731,1.0772,1.0792,0.0,0.0,0.0,1.0717,1.0941,1.0968,1.0649,1.0466,1.0276,1.0004,0.9842,0.9863,0.9889,1.0161,1.0283,1.0283,1.0283,1.0086,0.97,0.9578,0.9435,0.935,0.9462,0.9625,0.9774,0.9822,0.9856,0.9775,0.9415,0.9836,1.0799,1.0826,1.1253,1.1898,1.2101,1.2311,1.2508,1.2556,1.2372,1.2067,1.1769,1.105,1.012,0.9184,0.8676,0.8312,0.8062,0.8123,0.8289,0.8167,0.818,0.8275,0.8492,0.0,0.0,0.9293,1.028,1.128,1.2075,1.3737,1.5154,1.5632,1.7433,1.8912,1.9019,2.0391,2.2047,2.3766,2.4168,2.4275,2.4275,2.4275,2.4329,2.4449,2.4449,2.4502,2.4623,2.4636,2.4636,2.4636,2.4636,2.4636,2.4636,2.4636,2.4636,2.4636,2.4636,2.4636,2.4636,2.4636,2.4636,2.4636,2.4636,2.4636,2.4636,2.4636,2.4636,2.4636,2.4636,2.4636,2.4636,2.4636,2.4636,2.4636,2.4636,2.4823,2.5077,0.0,0.0,1.0717,1.0717,1.0779,1.084,1.0785,1.0873,1.0847,0.0,1.0833,1.0853,1.0894,1.1328,1.1348,1.0677,1.0555,1.0392,1.0031,0.993,0.9836,0.9822,1.0114,1.027,1.0256,1.027,1.012,0.9795,0.9517,0.9293,0.9187,0.9187,0.9248,0.9293,0.9028,0.9137,0.9476,0.9008,0.9381,1.0351,1.1165,1.1586,1.1803,1.2603,1.2779,1.2637,1.2895,1.2807,1.2528,1.2196,1.1461,1.0566,0.9797,0.9603,0.9435,0.8816,0.8841,0.9019,0.8931,0.8758,0.8661,0.905,0.8742,0.0,0.9456,0.9367,0.9439,1.0344,1.1812,1.3141,1.352,1.5078,1.6432,1.6556,1.7044,1.8746,2.2614,2.3314,2.3469,2.3469,2.3696,2.3875,2.4128,2.4155,2.4262,2.4516,2.4569,2.4609,2.4636,2.4636,2.4636,2.4636,2.4636,2.4636,2.4636,2.4636,2.4636,2.4636,2.4636,2.4636,2.4636,2.4636,2.4636,2.4636,2.4636,2.4636,2.4636,2.4636,2.4636,2.4636,2.4636,2.4636,2.4636,2.4636,2.4796,2.5037,0.0,1.0353,1.0717,1.0717,1.0779,1.0975,1.1063,1.1002,1.1002,1.1402,1.1545,1.1708,1.1959,1.1769,1.1558,1.1409,1.0955,1.0548,1.0256,1.0093,0.9889,0.9829,1.0114,1.0222,1.0038,1.0215,1.0073,0.9652,0.9469,0.9245,0.8981,0.8981,0.8933,0.8838,0.8777,0.8804,0.8906,0.9279,0.9761,1.0304,1.0595,1.1362,1.2345,1.2522,1.2854,1.322,1.3152,1.3091,1.2963,1.2427,1.2683,1.3136,1.231,1.2815,1.3638,1.2837,1.1928,1.1385,1.2393,1.0912,0.9279,1.0278,0.9843,0.0,0.8662,0.8689,0.892,0.9425,0.965,1.0003,1.0642,1.2441,1.3816,1.3861,1.5622,1.7406,1.8702,2.041,2.1474,2.1474,2.2885,2.3794,2.3848,2.3848,2.3875,2.3941,2.4155,2.4396,2.4623,2.4636,2.4636,2.4636,2.4636,2.4636,2.4636,2.4636,2.4636,2.4636,2.4636,2.4636,2.4636,2.4636,2.4636,2.4636,2.4636,2.4636,2.4636,2.4636,2.4636,2.4636,2.4636,2.4636,2.4636,2.4636,2.4676,2.4716,1.0344,1.0616,1.0744,1.0819,1.0955,1.1077,1.1151,1.1165,1.128,1.1579,1.1938,1.2115,1.1972,1.1884,1.1687,1.1314,1.0941,1.0595,1.0297,1.0134,0.9916,0.9829,1.0039,1.0168,1.0168,1.0168,1.0019,0.9713,0.949,0.9191,0.8825,0.8825,0.8825,0.8818,0.8662,0.8764,0.9049,0.913,0.9551,1.0229,1.0975,1.1769,1.2535,1.2834,1.3139,1.339,1.3315,1.3241,1.3071,1.24,1.3175,1.4189,1.3217,1.4185,1.5498,1.4456,1.3855,1.3385,1.2747,1.1548,1.0673,1.1278,1.031,0.0,0.0,0.9406,0.8859,0.9381,0.9252,0.9225,0.9768,1.0728,1.1387,1.1557,1.2774,1.3787,1.4173,1.6917,1.9256,2.0169,2.1172,2.2223,2.323,2.346,2.3607,2.3754,2.3901,2.4115,2.4409,2.4422,2.4489,2.4636,2.4636,2.4636,2.4636,2.4636,2.4636,2.4636,2.4636,2.4636,2.4636,2.4636,2.4636,2.4636,2.4636,2.4636,2.4636,2.4636,2.4636,2.4636,2.4636,2.4636,2.4636,2.4636,2.4636,2.4636,1.0426,1.0595,1.0751,1.0779,1.1029,1.1241,1.1199,1.1314,1.1477,1.1714,1.2244,1.2427,1.2006,1.2101,1.1959,1.1389,1.1036,1.0751,1.0507,1.027,1.0066,0.9917,0.9936,1.0031,1.0188,1.0066,0.9842,0.9693,0.9429,0.9096,0.871,0.871,0.8777,0.8831,0.8696,0.8899,0.9361,0.9022,0.9435,1.0341,1.1525,1.2101,1.2359,1.3017,1.3275,1.3281,1.337,1.3322,1.3186,1.2762,1.3808,1.5167,1.4362,1.5657,1.7213,1.6035,1.5758,1.5418,1.3269,1.2672,1.2516,1.2055,1.1061,1.0357,0.0,0.0,0.0,0.9548,0.932,0.9184,0.0,0.0,0.9557,0.9802,1.0134,1.0405,1.0527,1.3495,1.637,1.827,1.8936,2.0003,2.2047,2.2614,2.3086,2.3554,2.3487,2.3634,2.4102,2.4115,2.4249,2.4543,2.4556,2.4583,2.4636,2.4636,2.4636,2.4636,2.4636,2.4636,2.4636,2.4636,2.4636,2.4636,2.4636,2.4636,2.4636,2.4636,2.4636,2.4636,2.4636,2.4636,2.4636,2.4636,2.4636,2.4636,1.0276,1.0527,1.0683,1.0561,1.0887,1.1206,1.1341,1.1382,1.1586,1.2142,1.2623,1.2983,1.318,1.2874,1.2678,1.2725,1.1864,1.1301,1.1267,1.0744,1.0378,1.0236,1.0114,0.993,0.9876,0.9856,0.9646,0.9282,0.9069,0.8893,0.871,0.871,0.8716,0.8743,0.8974,0.9248,0.9388,0.9469,1.0175,1.1267,1.1552,1.1606,1.1613,1.2474,1.2807,1.2861,1.3261,1.339,1.3521,1.4431,1.5949,1.7414,1.7771,1.9483,2.1111,1.9898,1.8951,1.8116,1.7177,1.6241,1.5021,1.2431,1.3324,1.3718,0.9766,0.0,1.0588,0.914,0.0,0.8818,0.8946,0.0,0.0,0.8999,0.953,0.9903,0.9924,1.0573,1.19,1.4205,1.6029,1.7836,1.9626,2.0707,2.1804,2.2954,2.2485,2.2672,2.3768,2.3821,2.3955,2.4249,2.4249,2.4382,2.4636,2.4636,2.4636,2.4636,2.4636,2.4636,2.4636,2.4636,2.4636,2.4636,2.4636,2.4636,2.4636,2.4636,2.4636,2.4636,2.4636,2.4636,2.4636,2.4636,2.4636,2.4636,1.0249,1.0446,1.0568,1.05,1.0792,1.109,1.124,1.1775,1.2223,1.2393,1.2881,1.3261,1.339,1.3003,1.2793,1.2949,1.2318,1.1762,1.1416,1.107,1.0704,1.0297,1.0134,0.9957,0.9896,0.9788,0.9564,0.9344,0.9055,0.8818,0.8581,0.8581,0.8764,0.9103,0.9232,0.9659,1.027,0.9985,1.0256,1.0887,1.1131,1.1192,1.128,1.261,1.3119,1.3146,1.3336,1.421,1.5248,1.5413,1.7293,1.9639,1.9808,2.0851,2.1884,2.139,2.0004,1.8458,1.794,1.697,1.5936,1.522,1.5214,1.47,1.2311,1.1391,1.0694,0.9286,0.0,0.0,0.0,0.0,0.0,0.0,0.9157,0.9401,0.932,0.0,1.0729,1.299,1.4043,1.5312,1.7402,1.8835,1.9933,2.0772,2.1424,2.2178,2.3193,2.342,2.3647,2.3941,2.3955,2.4088,2.4382,2.4382,2.4476,2.4636,2.4636,2.4636,2.4636,2.4636,2.4636,2.4636,2.4636,2.4636,2.4636,2.4636,2.4636,2.4636,2.4636,2.4636,2.4636,2.4636,2.4636,2.4636,1.0134,1.0304,1.0432,1.0432,1.0683,1.0975,1.1246,1.1938,1.2223,1.1688,1.2086,1.2421,1.2573,1.232,1.2456,1.3308,1.2881,1.2393,1.1911,1.1511,1.1118,1.0724,1.0324,1.0134,1.0168,0.9802,0.9517,0.932,0.9022,0.8784,0.8608,0.8567,0.8825,0.9327,0.949,1.0059,1.0793,1.0507,1.0643,1.1118,1.126,1.1366,1.1662,1.2807,1.3295,1.348,1.4052,1.5267,1.67,1.7253,1.908,2.1222,2.1447,2.2005,2.2432,2.2178,2.1042,1.9565,1.8482,1.8035,1.7647,1.6835,1.6571,1.6034,1.4261,1.2736,1.1351,1.007,0.9328,0.0,0.0,0.0,0.8798,0.8825,0.0,0.9103,0.0,0.9184,0.0,1.1739,1.2479,1.3465,1.5169,1.6581,1.7897,1.9137,2.0015,2.1162,2.2686,2.2953,2.3247,2.3634,2.3647,2.3794,2.4075,2.4168,2.4302,2.4516,2.4596,2.4636,2.4636,2.4636,2.4636,2.4636,2.4636,2.4636,2.4636,2.4636,2.4636,2.4636,2.4636,2.4636,2.4636,2.4636,2.4636,2.4636,0.9836,1.008,1.029,1.029,1.0534,1.0928,1.1518,1.1633,1.1093,0.9704,0.9647,0.9973,1.0491,1.0613,1.1571,1.4048,1.3709,1.3295,1.3125,1.2169,1.166,1.1775,1.0812,1.0337,1.0473,0.991,0.9462,0.9214,0.8866,0.8784,0.8865,0.8771,0.8866,0.9241,0.9828,1.029,1.0744,1.1016,1.1721,1.2637,1.2359,1.2678,1.3281,1.2895,1.3024,1.3645,1.5753,1.6565,1.7124,2.0449,2.1661,2.194,2.2892,2.343,2.3541,2.2659,2.2737,2.251,1.9742,2.058,2.1016,1.5968,1.7173,1.8512,1.4307,1.3546,1.3346,1.1733,1.0651,0.9896,0.9815,0.9673,0.9476,0.0,0.0,0.0,0.0,0.0,0.0,0.947,1.1335,1.2687,1.2963,1.3921,1.5731,1.8494,1.8077,1.9088,2.2271,2.2445,2.2726,2.3327,2.334,2.3487,2.3781,2.4062,2.4209,2.4222,2.4502,2.4636,2.4636,2.4636,2.4636,2.4636,2.4636,2.4636,2.4636,2.4636,2.4636,2.4636,2.4636,2.4636,2.4636,2.4636,2.4636,2.4636,0.8346,0.9375,1.0215,1.0012,1.0304,1.0772,1.1375,1.0774,1.0075,0.9471,0.9662,0.9469,0.8351,0.9683,1.1073,1.213,1.3299,1.3844,1.3498,1.2773,1.2291,1.2142,1.1321,1.0839,1.0799,1.031,0.9856,0.9456,0.9252,0.913,0.9076,0.8933,0.9022,0.9384,0.989,1.0531,1.1179,1.1382,1.1782,1.2291,1.2291,1.2739,1.3383,1.3234,1.3268,1.3645,1.5835,1.7547,1.9219,2.1794,2.3275,2.4033,2.4613,2.4182,2.346,2.334,2.2388,2.137,2.1552,2.1584,2.117,1.9371,1.9771,1.9728,1.6088,1.4551,1.3442,1.1808,1.0681,0.9936,0.9849,0.9707,0.0,0.0,0.0,0.0,0.0,0.0,0.8547,0.8893,0.9846,1.0465,1.0472,1.1896,1.331,1.4595,1.6602,1.8503,2.01,2.1592,2.2512,2.2726,2.2913,2.3166,2.3474,2.3581,2.3821,2.4209,2.4302,2.4449,2.4636,2.4636,2.4636,2.4636,2.4636,2.4636,2.4636,2.4636,2.4636,2.4636,2.4636,2.4636,2.4636,2.4636,2.4636,2.4636,0.7582,0.9016,1.0168,1.0073,0.978,0.9802,1.0318,0.9151,0.7965,0.726,0.7422,0.7159,0.6061,0.8152,1.0009,1.1109,1.323,1.4299,1.3743,1.3295,1.2915,1.2617,1.1938,1.1518,1.143,1.088,1.0371,0.9924,0.9666,0.949,0.9388,0.913,0.9144,0.9401,0.9849,1.0493,1.126,1.1681,1.2088,1.2467,1.2623,1.2969,1.3403,1.3403,1.3887,1.4781,1.6975,1.9167,2.1362,2.354,2.4814,2.5545,2.5518,2.4863,2.4075,2.3955,2.2918,2.1986,2.2823,2.2595,2.2019,2.1542,2.1416,2.075,1.8244,1.6606,1.5064,1.3209,1.199,1.1047,1.0431,1.0053,0.9747,0.0,0.0,0.0,0.0,0.8282,0.8418,0.8608,0.0,0.0,0.0,1.0295,1.1355,1.2515,1.5205,1.743,1.8829,2.1002,2.2311,2.2418,2.2712,2.2953,2.3153,2.3273,2.3514,2.3888,2.4102,2.4302,2.4489,2.4596,2.4636,2.4636,2.4636,2.4636,2.4636,2.4636,2.4636,2.4636,2.4636,2.4636,2.4636,2.4636,2.4636,2.4636,0.7615,0.8908,1.0132,1.0473,0.9098,0.8084,0.8462,0.7041,0.5319,0.3346,0.3201,0.3396,0.3595,0.6002,0.8516,1.084,1.3468,1.4665,1.3946,1.3743,1.3526,1.3241,1.2651,1.2332,1.2325,1.1579,1.0975,1.0527,1.0073,0.9849,0.9822,0.9388,0.9316,0.9401,0.9849,1.0321,1.0941,1.1898,1.263,1.32,1.3342,1.3403,1.3403,1.348,1.4863,1.7057,1.9176,2.1281,2.346,2.566,2.6386,2.6293,2.5718,2.5518,2.5344,2.4489,2.4436,2.4449,2.3621,2.3594,2.3541,2.2365,2.2058,2.1737,2.0575,1.9498,1.8131,1.5913,1.4557,1.3224,1.1592,1.0875,1.0321,0.0,0.0,0.0,0.0,0.0,0.8479,0.8492,0.0,0.0,0.0,0.9184,0.9916,1.2247,1.3887,1.5867,0.0,2.0669,2.2058,2.2392,2.2686,2.2846,2.2928,2.3153,2.3313,2.334,2.3915,2.4195,2.4209,2.4502,2.4636,2.4636,2.4636,2.4636,2.4636,2.4636,2.4636,2.4636,2.4636,2.4636,2.4636,2.4636,2.4636,2.4636,0.7773,0.9467,1.09,1.0975,0.9261,0.8099,0.872,0.8683,0.7305,0.3585,0.4774,0.4652,0.132,0.4905,0.7827,0.8508,1.2492,1.4889,1.4692,1.4224,1.3973,1.4007,1.3329,1.2895,1.2793,1.2047,1.1443,1.0989,1.0541,1.0209,0.9923,0.9754,0.9551,0.9401,0.9849,1.0321,1.0934,1.1789,1.2596,1.3349,1.3383,1.3403,1.3562,1.5185,1.7138,1.9095,1.9664,2.1281,2.346,2.566,2.6386,2.6319,2.5959,2.5692,2.5424,2.4983,2.4756,2.4583,2.4356,2.4356,2.4235,2.35,2.2979,2.2445,2.171,2.0397,1.9122,1.8219,1.7244,1.5706,1.3353,1.2783,1.2035,0.0,0.0,0.0,0.0,0.8343,0.8404,0.8628,0.8526,0.0,0.875,0.8967,0.9398,0.9997,1.2563,1.4793,1.6361,1.9124,2.1109,2.2071,2.2378,2.2645,2.2928,2.2939,2.31,2.3327,2.3701,2.3995,2.4209,2.4502,2.4636,2.4636,2.4636,2.4636,2.4636,2.4636,2.4636,2.4636,2.4636,2.4636,2.4636,2.4636,2.4636,2.4636,0.7848,0.9868,1.1477,1.1616,0.9761,0.8085,0.7595,0.6305,0.4492,0.207,0.3033,0.3296,0.1865,0.5186,0.8069,0.9204,1.2841,1.4977,1.478,1.4516,1.4312,1.4204,1.379,1.3464,1.3261,1.2644,1.204,1.1457,1.0941,1.0507,1.0141,0.9795,0.9537,0.9395,0.9781,1.0145,1.0724,1.1803,1.2623,1.322,1.3349,1.3403,0.0,1.5753,1.7955,1.9988,2.0958,2.274,2.4761,2.5977,2.6386,2.6333,2.6052,2.5838,2.5625,2.5197,2.4957,2.4796,2.4676,2.4636,2.4556,2.4235,2.3888,2.3487,2.2899,2.2117,2.1089,1.978,1.8971,1.7771,1.5366,1.4651,1.368,1.162,0.0,1.0662,1.0269,0.9697,0.9368,0.9377,0.8782,0.837,0.8391,0.8675,0.8907,0.9042,1.1487,1.3625,1.5135,1.7966,2.0257,2.1764,2.2205,2.2565,2.2928,2.2928,2.2953,2.3126,2.3567,2.3861,2.4022,2.4449,2.4636,2.4636,2.4636,2.4636,2.4636,2.4636,2.4636,2.4636,2.4636,2.4636,2.4636,2.4636,2.4636,2.4636,0.8345,1.0185,1.1623,1.2013,0.9877,0.7601,0.6114,0.3039,0.0676,0.0087,0.027,0.1374,0.3568,0.608,0.8637,1.1197,1.3758,1.5018,1.4624,1.4685,1.4563,1.4177,1.4122,1.3973,1.3695,1.3214,1.2596,1.1864,1.1177,1.0697,1.0209,0.9686,0.0,0.0,0.0,1.0086,1.0575,1.1925,1.2691,1.301,1.3288,1.3403,1.3645,1.5753,1.7955,2.015,2.2327,2.4522,2.6386,2.6386,2.6386,2.6346,2.6092,2.6063,2.5929,2.5344,2.5144,2.5024,2.477,2.4663,2.4636,2.4636,2.4636,2.4502,2.3995,2.3888,2.3274,2.1044,2.0464,1.9701,1.757,1.6244,1.5104,1.385,1.3593,1.3367,1.2823,1.1596,1.0664,1.0425,0.928,0.0,0.8368,0.8347,0.8459,0.8797,1.0555,1.2506,1.4556,1.707,1.9396,2.159,2.2098,2.2525,2.2928,2.2928,2.2928,2.2941,2.3474,2.3768,2.3794,2.4369,2.4636,2.4636,2.4636,2.4636,2.4636,2.4636,2.4636,2.4636,2.4636,2.4636,2.4636,2.4676,2.469,2.469,1.0779,1.0237,1.0156,1.161,0.7525,0.4551,0.6036,0.5698,0.4042,0.0451,0.1855,0.3303,0.3774,0.606,0.8637,1.1197,1.3758,1.5147,1.5072,1.4862,1.4706,1.4624,1.4387,1.4177,1.4,1.3315,1.2651,1.202,1.1301,1.0523,0.9897,0.9795,0.9612,0.0,0.0,0.0,1.1599,1.2237,1.2745,1.3152,1.3329,1.3403,1.3645,1.5753,1.7955,2.015,2.2327,2.4522,2.6386,2.6386,2.6386,2.6386,2.6333,2.6146,2.601,2.5838,2.5464,2.5064,2.5024,2.4823,2.4636,2.4636,2.4636,2.4609,2.4502,2.4489,2.4243,2.33,2.313,2.23,1.9578,1.7237,1.5421,1.4693,1.4271,1.4056,1.4364,1.2432,1.1159,1.1498,0.9822,0.8608,0.8459,0.8445,0.8479,0.8554,0.9756,1.1755,1.4741,1.6182,1.8441,2.1844,2.2004,2.2325,2.2859,2.2928,2.2928,2.2941,2.3474,2.3768,2.3794,2.4369,2.4636,2.4636,2.4636,2.4636,2.4636,2.4636,2.4636,2.4636,2.4636,2.4636,2.4663,2.4917,2.4997,2.4997,1.1938,1.1416,1.0969,1.0728,0.742,0.4824,0.4688,0.3802,0.2383,0.0274,0.1107,0.2789,0.5474,0.6867,0.9204,1.2999,1.4516,1.5181,1.5181,1.4903,1.474,1.474,1.4455,1.4231,1.4075,1.3573,1.2935,1.2182,1.1504,1.0751,0.9876,0.97,0.9517,0.9401,0.0,1.0704,0.0,1.2169,1.2603,1.2969,1.3275,1.3403,1.3645,1.5753,1.7955,2.015,2.2327,2.4522,2.6386,2.6386,2.6386,2.6386,2.6386,2.6293,2.6146,2.6077,2.5651,2.5277,2.5117,2.4863,2.4636,2.4636,2.4636,2.4636,2.4636,2.4636,2.4476,2.3888,2.3768,2.3143,2.0999,1.937,1.8079,1.7494,1.7089,1.6884,1.6942,1.5355,1.38,1.2788,1.127,0.9807,0.8508,0.8438,0.8418,0.8262,0.8933,1.0858,1.4355,1.5289,1.7542,2.1405,2.183,2.2191,2.2632,2.2779,2.2939,2.3113,2.3554,2.3848,2.4008,2.4436,2.4636,2.4636,2.4636,2.4636,2.4636,2.4636,2.4636,2.4636,2.4636,2.473,2.489,2.5024,2.5277,2.5518,1.1947,1.1628,1.0867,0.916,0.6815,0.4624,0.3263,0.1309,0.0,0.0,0.0,0.193,0.7052,0.758,0.9677,1.4798,1.5181,1.5181,1.5181,1.4903,1.474,1.474,1.4455,1.4245,1.4122,1.3824,1.3247,1.2386,1.1782,1.1009,1.0093,0.97,0.9557,0.9639,1.0181,1.0833,1.1572,1.2108,1.2522,1.2854,1.3247,1.3403,1.3562,1.5267,1.7302,1.9501,2.1603,2.3872,2.574,2.6228,2.6386,2.6386,2.6386,2.6386,2.6346,2.6119,2.5838,2.5545,2.5251,2.4957,2.4716,2.4649,2.4636,2.4636,2.4636,2.4636,2.4476,2.3888,2.3674,2.318,2.1949,2.1333,2.0735,2.0094,1.9733,1.9492,1.9319,1.7955,1.6319,1.4548,1.2793,1.1008,0.9087,0.8612,0.8343,0.8106,0.8275,0.9936,1.3452,1.4401,1.6597,2.041,2.1422,2.2031,2.2325,2.2686,2.302,2.3327,2.3634,2.3928,2.4209,2.4502,2.4636,2.4636,2.4636,2.4636,2.4636,2.4636,2.4636,2.4649,2.4703,2.4877,2.509,2.5224,2.5558,2.601,1.0083,0.8375,0.7092,0.6443,0.313,0.1169,0.2814,0.1309,0.0,0.0,0.0,0.1898,0.6996,0.7582,0.9677,1.4798,1.5181,1.5181,1.5181,1.4903,1.474,1.474,1.4455,1.4292,1.4278,1.398,1.3451,1.2691,1.2088,1.1267,1.0256,1.0073,1.0127,1.0399,1.0738,1.1301,1.202,1.2345,1.2732,1.3146,1.3329,1.3403,1.3397,1.3645,1.5028,1.722,1.942,2.1603,2.3712,2.574,2.6386,2.6386,2.6386,2.6386,2.6386,2.636,2.6146,2.5852,2.5558,2.5264,2.497,2.4703,2.4636,2.4636,2.4636,2.4636,2.4476,2.3888,2.3327,2.2739,2.2071,2.1897,2.159,2.0735,2.0347,2.0241,2.0481,1.8476,1.702,1.7007,1.3781,1.133,1.0875,0.9317,0.8333,0.8248,0.8147,0.928,1.203,1.348,1.5602,1.8645,2.0631,2.1802,2.2017,2.2579,2.302,2.3327,2.3634,2.3928,2.4209,2.4502,2.4636,2.4636,2.4636,2.4636,2.4636,2.4636,2.4636,2.4663,2.493,2.505,2.5144,2.5678,2.5983,2.6063,1.0446,0.9202,0.7673,0.4905,0.2934,0.163,0.1305,0.0568,0.0,0.0,0.0,0.1905,0.7027,0.7595,0.9677,1.4798,1.5181,1.5181,1.5181,1.4903,1.474,1.474,1.4455,1.4299,1.4299,1.4089,1.3654,1.2996,1.24,1.1619,1.0677,1.0432,1.048,1.0785,1.1267,1.1748,1.2223,1.2617,1.2929,1.3186,1.3342,1.3403,1.3403,1.3403,1.4706,1.6893,1.9095,2.1281,2.346,2.566,2.6386,2.6386,2.6386,2.6386,2.6386,2.6386,2.6186,2.597,2.5598,2.5304,2.501,2.4716,2.4636,2.4636,2.4636,2.4636,2.4476,2.3888,2.3287,2.2739,2.2325,2.1964,2.1681,2.132,2.0802,2.0601,2.0895,1.9976,1.8784,1.7661,1.5072,1.3143,1.2592,1.0031,0.8796,0.9774,0.9431,1.0331,1.2872,1.4645,1.67,1.9219,2.0963,2.1777,2.1789,2.2672,2.33,2.3594,2.3888,2.4182,2.4462,2.4583,2.4636,2.4636,2.4636,2.4636,2.4636,2.4636,2.4743,2.4917,2.5037,2.5291,2.5638,2.5943,2.6066,2.6239,0.9721,0.8572,0.6728,0.2996,0.2187,0.1562,0.019,0.0,0.0286,0.1048,0.1144,0.276,0.7122,0.8258,1.0437,1.4805,1.5181,1.5181,1.5181,1.4903,1.474,1.474,1.4455,1.4299,1.4299,1.4197,1.3885,1.337,1.2861,1.2203,1.1325,1.105,1.105,1.1362,1.1823,1.2203,1.2508,1.2874,1.3105,1.3247,1.3356,1.3403,1.3403,1.3403,1.4375,1.5917,1.8118,2.0301,2.2487,2.4681,2.5819,2.6386,2.6386,2.6386,2.6386,2.6386,2.6239,2.6026,2.5718,2.5438,2.513,2.4836,2.4703,2.4636,2.4636,2.4636,2.4476,2.3888,2.3287,2.2806,2.2592,2.2138,2.175,2.1641,2.1266,2.0949,2.0975,2.0735,1.9981,1.8454,1.6356,1.4839,1.4277,1.1584,1.0412,1.1666,1.1765,1.2187,1.3132,1.5244,1.7305,1.9219,2.0961,2.1804,2.1748,2.2779,2.3474,2.3768,2.4062,2.4356,2.4636,2.4636,2.4636,2.4636,2.4636,2.4636,2.4636,2.4636,2.481,2.509,2.517,2.5518,2.605,2.6052,2.6213,2.6386,0.7367,0.5058,0.2793,0.0461,0.0,0.0,0.0,0.0,0.0858,0.3424,0.3708,0.4751,0.7308,0.987,1.2428,1.4993,1.5181,1.5181,1.5181,1.4903,1.474,1.474,1.4455,1.4299,1.4299,1.4299,1.4143,1.3831,1.3532,1.3078,1.2474,1.2026,1.1979,1.2277,1.2427,1.2664,1.2963,1.3112,1.3261,1.3397,1.3403,1.3403,1.3403,1.3403,1.3403,1.3728,1.5835,1.8037,2.0231,2.2407,2.4602,2.6386,2.6386,2.6386,2.6386,2.6386,2.6386,2.6319,2.6104,2.5732,2.5438,2.5144,2.485,2.4636,2.4636,2.4636,2.4476,2.3888,2.3287,2.2928,2.2859,2.2605,2.2218,2.1708,2.1614,2.14,2.0762,2.0428,2.0134,1.984,1.7604,1.6041,1.5853,1.4265,1.339,1.3844,1.5196,1.4843,1.213,1.4628,1.6698,1.8066,2.0387,2.1762,2.1977,2.2873,2.3474,2.3768,2.4062,2.4356,2.4636,2.4636,2.4636,2.4636,2.4636,2.4636,2.4636,2.4636,2.481,2.5104,2.5398,2.5692,2.5999,2.6279,2.6386,2.6386,0.746,0.5114,0.2818,0.0369,0.0,0.0,0.0,0.0,0.0954,0.3424,0.532,0.7406,0.987,1.0913,1.2428,1.4993,1.5181,1.514,1.5045,1.4848,1.4692,1.459,1.4401,1.4299,1.4299,1.4299,1.4204,1.4,1.3702,1.3302,1.2813,1.2671,1.2705,1.2901,1.3159,1.3322,1.3424,1.3566,1.3654,1.3702,1.3702,1.3702,1.3702,1.3702,1.3702,1.3935,1.6068,1.7256,1.8138,2.0201,2.1362,2.1936,2.1936,2.4031,2.6386,2.6386,2.6386,2.6319,2.6039,2.5892,2.5692,2.5197,2.501,2.489,2.469,2.4329,2.3995,2.3808,2.3287,2.2928,2.2928,2.2619,2.2298,2.1911,2.1748,2.148,2.1029,2.0722,2.0428,2.0134,1.816,1.7122,1.7853,1.5589,1.4401,1.5333,1.5806,1.5797,1.5104,1.7313,1.8836,1.9257,2.0961,2.1897,2.1991,2.3073,2.3674,2.3781,2.4262,2.4543,2.4636,2.4636,2.4636,2.4636,2.4636,2.4636,2.4649,2.485,2.5104,2.5411,2.5705,2.5999,2.6266,2.636,2.6386,2.6386,0.6255,0.3881,0.1736,0.0277,0.0,0.0,0.0,0.0,0.1239,0.4751,0.6648,0.892,1.2428,1.281,1.3451,1.5013,1.5106,1.5038,1.4896,1.474,1.4611,1.4516,1.4373,1.4299,1.4299,1.4299,1.4251,1.4156,1.3912,1.3654,1.3376,1.3315,1.3342,1.3431,1.362,1.3709,1.3715,1.3718,1.3838,1.3838,1.3838,1.3838,1.3838,1.3838,1.3838,1.3995,1.524,1.6289,1.7178,1.8385,1.9293,1.9926,1.9937,2.2338,2.5171,2.5171,2.574,2.6346,2.6172,2.6117,2.5943,2.5504,2.5251,2.4997,2.4703,2.4275,2.3901,2.3794,2.338,2.3006,2.2954,2.2712,2.2485,2.2191,2.1911,2.1617,2.1309,2.0935,2.0561,2.0267,1.9026,1.8395,1.9061,1.744,1.6737,1.7596,1.7865,1.8043,1.8048,1.9188,2.0,2.0441,2.1563,2.2258,2.2485,2.334,2.3821,2.3941,2.4409,2.4636,2.4636,2.4636,2.4636,2.4636,2.4636,2.4636,2.4663,2.4957,2.5251,2.5545,2.5838,2.6132,2.6386,2.6386,2.6386,2.6386,0.4295,0.1807,0.0091,0.0185,0.0093,0.0,0.0,0.0,0.181,0.6932,0.7595,0.9582,1.461,1.5181,1.512,1.497,1.4964,1.4903,1.4753,1.4597,1.4509,1.4496,1.4373,1.4299,1.4299,1.4299,1.4299,1.4299,1.4156,1.4089,1.4082,1.3939,1.3871,1.3871,1.3871,1.3871,1.3871,1.3871,1.3871,1.3871,1.3871,1.3871,1.3871,1.3871,1.3871,1.3871,1.3858,1.5127,1.6875,1.6768,1.8025,1.9634,1.9529,2.1071,2.2923,2.306,2.4681,2.6386,2.6386,2.6186,2.5985,2.6037,2.5518,2.501,2.473,2.4422,2.4128,2.3861,2.3554,2.3233,2.2953,2.2873,2.2752,2.2445,2.2164,2.1884,2.1628,2.1056,2.0601,2.0294,2.0027,1.9746,1.9452,1.9693,1.996,2.0153,2.0762,2.0962,2.0722,2.0214,2.0428,2.1588,2.2138,2.2726,2.3313,2.3647,2.3941,2.4235,2.4502,2.4636,2.4636,2.4636,2.4649,2.4663,2.4663,2.4676,2.4716,2.501,2.5304,2.5571,2.5865,2.6146,2.6386,2.6386,2.6386,2.6386,0.6344,0.289,0.0549,0.2398,0.1213,0.0,0.0,0.0,0.181,0.6932,0.7595,0.9582,1.461,1.5181,1.5079,1.4821,1.4903,1.4903,1.4753,1.4597,1.4462,1.4353,1.4319,1.4299,1.4299,1.4299,1.4299,1.4299,1.4265,1.4245,1.4245,1.4211,1.419,1.419,1.419,1.419,1.419,1.419,1.419,1.419,1.419,1.419,1.419,1.419,1.419,1.4177,1.4061,1.4361,1.4765,1.46,1.4876,1.5293,1.5255,1.7802,2.109,2.2625,2.4681,2.6386,2.6386,2.6333,2.6239,2.609,2.5518,2.5064,2.4997,2.4569,2.4182,2.4115,2.3688,2.33,2.3233,2.302,2.2699,2.2164,2.2031,2.1804,2.1283,2.1096,2.0895,2.0601,2.0508,2.0347,2.0054,2.0294,2.0401,2.018,2.0575,2.0842,2.1002,2.1096,2.1333,2.1614,2.2338,2.2939,2.3327,2.3848,2.4249,2.4529,2.4609,2.4636,2.4636,2.4636,2.4756,2.497,2.497,2.5104,2.5331,2.5625,2.5785,2.5879,2.6172,2.6333,2.6386,2.6386,2.6386,2.6386,0.7324,0.5051,0.3467,0.3595,0.2609,0.1319,0.0191,0.0,0.181,0.6932,0.7565,0.9424,1.4519,1.5025,1.4916,1.4753,1.4814,1.4774,1.4557,1.4462,1.438,1.4306,1.4299,1.4299,1.4299,1.4299,1.4299,1.4299,1.4299,1.4299,1.4299,1.4299,1.4299,1.4299,1.4299,1.4299,1.4299,1.4299,1.4299,1.4299,1.4299,1.4299,1.4299,1.4299,1.4299,1.4292,1.4204,1.4177,1.415,1.4,1.3946,1.3933,1.3865,1.68,2.0517,2.1638,2.4053,2.6386,2.6386,2.6386,2.6319,2.6104,2.5611,2.5237,2.5104,2.473,2.4369,2.4235,2.3955,2.3647,2.338,2.3193,2.2886,2.2285,2.2071,2.183,2.1376,2.1189,2.1096,2.1082,2.1145,2.1069,2.1042,2.1176,2.1149,2.0855,2.1229,2.143,2.1309,2.1977,2.2298,2.2217,2.2752,2.3287,2.3728,2.4182,2.4476,2.4636,2.477,2.4836,2.4836,2.4983,2.513,2.5277,2.5277,2.5371,2.5531,2.5838,2.6037,2.6063,2.6279,2.6386,2.6386,2.6386,2.6386,2.6386,0.804,0.748,0.6646,0.4506,0.3905,0.2915,0.038,0.0,0.1806,0.6917,0.751,0.9326,1.4375,1.4821,1.4733,1.4706,1.4706,1.4597,1.4346,1.4312,1.4299,1.4299,1.4299,1.4299,1.4299,1.4299,1.4299,1.4299,1.4299,1.4299,1.4299,1.4299,1.4299,1.4299,1.4299,1.4299,1.4299,1.4299,1.4299,1.4299,1.4299,1.4299,1.4299,1.4299,1.4299,1.4299,1.4299,1.4299,1.4278,1.415,1.4109,1.4082,1.3953,1.7018,2.0604,2.0604,2.3458,2.6507,2.6466,2.6426,2.6333,2.6079,2.5798,2.5518,2.5264,2.4957,2.4636,2.4382,2.4262,2.4048,2.3554,2.338,2.3126,2.2512,2.2178,2.1871,2.1601,2.1309,2.1269,2.1588,2.1655,2.1775,2.1964,2.1991,2.1897,2.1762,2.2098,2.2205,2.1844,2.2739,2.3193,2.3073,2.3327,2.3714,2.4262,2.4516,2.4663,2.4703,2.4957,2.5104,2.5157,2.5398,2.5545,2.5585,2.5585,2.5598,2.5665,2.5919,2.6026,2.6052,2.6293,2.6386,2.6386,2.6386,2.6386,2.6386,1.018,0.8558,0.6993,0.664,0.4902,0.2816,0.0377,0.0,0.1787,0.6749,0.7432,0.932,1.4218,1.4753,1.4685,1.4557,1.455,1.4529,1.4482,1.4367,1.4299,1.4299,1.4299,1.4299,1.4299,1.4299,1.4299,1.4299,1.4299,1.4299,1.4299,1.4299,1.4299,1.4299,1.4299,1.4299,1.4299,1.4299,1.4299,1.4299,1.4299,1.4299,1.4299,1.4299,1.4299,1.4299,1.4299,1.4299,1.4299,1.4272,1.4265,1.4258,1.4238,1.7231,2.0752,2.0752,2.3772,2.7081,2.6827,2.6573,2.6373,2.6333,2.6106,2.5879,2.5838,2.5398,2.4997,2.4957,2.4556,2.4168,2.4088,2.3661,2.3126,2.2512,2.2178,2.179,2.1256,2.1349,2.1561,2.1614,2.1764,2.1937,2.1977,2.1991,2.2071,2.2271,2.2138,2.2338,2.302,2.2979,2.326,2.3968,2.4048,2.4222,2.4569,2.4609,2.4756,2.501,2.5064,2.5211,2.5451,2.5491,2.5651,2.5892,2.5892,2.6026,2.6253,2.6306,2.6319,2.6333,2.6373,2.6386,2.6386,2.6386,2.6386,2.6386,1.2597,1.1799,1.0244,0.7533,0.625,0.4366,0.0559,0.0,0.1769,0.6771,0.7262,0.9135,1.4068,1.455,1.4475,1.4407,1.4394,1.4394,1.4394,1.434,1.4299,1.4299,1.4299,1.4299,1.4299,1.4299,1.4299,1.4299,1.4299,1.4299,1.4299,1.4299,1.4299,1.4299,1.4299,1.4299,1.4299,1.4299,1.4299,1.4299,1.4299,1.4299,1.4299,1.4299,1.4299,1.4299,1.4299,1.4299,1.4299,1.4299,1.4299,1.4299,1.4299,1.6586,1.9435,2.064,2.3865,2.7001,2.6854,2.6613,2.6386,2.6386,2.6172,2.6037,2.6037,2.5625,2.5264,2.5117,2.4863,2.4583,2.4262,2.3848,2.342,2.2979,2.2392,2.1884,2.1617,2.1563,2.1681,2.1829,2.2044,2.2352,2.2672,2.2712,2.2766,2.2899,2.2926,2.306,2.3313,2.3487,2.3781,2.4195,2.4356,2.4583,2.4877,2.4877,2.5024,2.5317,2.5478,2.5625,2.5758,2.5919,2.6066,2.6186,2.6186,2.6266,2.6386,2.6386,2.6386,2.6386,2.6386,2.6386,2.6386,2.6386,2.6386,2.6386,1.4299,1.4387,1.292,0.7956,0.7205,0.5694,0.0738,0.0461,0.2394,0.6794,0.7642,0.9577,1.4007,1.4367,1.4299,1.4299,1.4299,1.4299,1.4299,1.4299,1.4299,1.4299,1.4299,1.4299,1.4299,1.4299,1.4299,1.4299,1.4299,1.4299,1.4299,1.4299,1.4299,1.4299,1.4299,1.4299,1.4299,1.4299,1.4299,1.4299,1.4299,1.4299,1.4299,1.4299,1.4299,1.4299,1.4299,1.4299,1.4299,1.4299,1.4299,1.4299,1.4299,1.5946,1.8279,2.0529,2.3958,2.7001,2.6854,2.6653,2.6466,2.6413,2.6226,2.6052,2.6052,2.5825,2.5558,2.5331,2.5224,2.5024,2.4502,2.4168,2.3834,2.3394,2.2686,2.2138,2.2004,2.1911,2.2003,2.2164,2.2512,2.2913,2.338,2.3434,2.3434,2.3434,2.3647,2.3701,2.3541,2.3955,2.4262,2.4409,2.4623,2.485,2.5077,2.5144,2.5331,2.5625,2.5852,2.5999,2.6066,2.6293,2.6386,2.6386,2.6386,2.6386,2.6386,2.6386,2.6386,2.6386,2.6386,2.6386,2.6386,2.6386,2.6386,2.6386,1.4299,1.4306,1.2787,0.7959,0.7128,0.5545,0.073,0.1914,0.4276,0.6815,0.9088,1.1444,1.4047,1.4306,1.4299,1.4299,1.4299,1.4299,1.4299,1.4299,1.4299,1.4299,1.4299,1.4299,1.4299,1.4299,1.4299,1.4299,1.4299,1.4299,1.4299,1.4299,1.4299,1.4299,1.4299,1.4299,1.4299,1.4299,1.4299,1.4299,1.4299,1.4299,1.4299,1.4299,1.4299,1.4299,1.4299,1.4299,1.4299,1.4299,1.4299,1.4299,1.4299,1.5946,1.8279,2.0529,2.4287,2.7522,2.6974,2.6814,2.672,2.6453,2.6373,2.636,2.636,2.6132,2.5996,2.597,2.5678,2.5384,2.5077,2.477,2.4302,2.346,2.3033,2.2605,2.2058,2.2432,2.2847,2.2792,2.3313,2.3688,2.3728,2.3741,2.3741,2.3741,2.3754,2.3875,2.4128,2.4182,2.4449,2.4997,2.5037,2.5064,2.5077,2.5344,2.5638,2.5919,2.6023,2.6092,2.636,2.6373,2.6386,2.6386,2.6386,2.6386,2.6386,2.6386,2.6386,2.6386,2.6386,2.6386,2.6386,2.6386,2.6386,2.6386,1.4299,1.4299,1.2774,0.7951,0.7081,0.5486,0.0722,0.2074,0.441,0.6832,0.9224,1.161,1.4033,1.4299,1.4299,1.4299,1.4299,1.4299,1.4299,1.4299,1.4299,1.4299,1.4299,1.4299,1.4299,1.4299,1.4299,1.4299,1.4299,1.4299,1.4299,1.4299,1.4299,1.4299,1.4299,1.4299,1.4299,1.4299,1.4299,1.4299,1.4299,1.4299,1.4299,1.4299,1.4299,1.4299,1.4299,1.4299,1.4299,1.4299,1.4299,1.4299,1.4299,1.4911,1.6378,2.0096,2.3403,2.6083,2.7056,2.7094,2.68,2.668,2.652,2.6386,2.6386,2.6306,2.6172,2.5999,2.5865,2.5705,2.5398,2.4957,2.4583,2.4436,2.3701,2.314,2.31,2.3126,2.3153,2.3153,2.3514,2.3848,2.4022,2.4035,2.4115,2.4289,2.4302,2.4356,2.4462,2.4649,2.485,2.5077,2.5438,2.5625,2.5625,2.5732,2.5932,2.6226,2.6226,2.6279,2.6386,2.6386,2.6386,2.6386,2.6386,2.6386,2.6386,2.6386,2.6386,2.6386,2.6386,2.6386,2.6386,2.6386,2.6386,2.6386,1.4299,1.4299,1.2774,0.7951,0.7057,0.5722,0.1703,0.3134,0.5544,0.7951,1.0357,1.2414,1.4122,1.4299,1.4299,1.4299,1.4299,1.4299,1.4299,1.4299,1.4299,1.4299,1.4299,1.4299,1.4299,1.4299,1.4299,1.4299,1.4299,1.4299,1.4299,1.4299,1.4299,1.4299,1.4299,1.4299,1.4299,1.4299,1.4299,1.4299,1.4299,1.4299,1.4299,1.4299,1.4299,1.4299,1.4299,1.4299,1.4299,1.4299,1.4822,1.5256,1.4557,1.4822,1.6122,2.0096,2.2869,2.5167,2.7297,2.7482,2.7068,2.6987,2.6747,2.6533,2.6533,2.6453,2.6333,2.6132,2.6092,2.5999,2.5705,2.5317,2.5024,2.4957,2.4262,2.3741,2.3768,2.3674,2.3607,2.3607,2.3861,2.4115,2.4315,2.4342,2.4422,2.4623,2.4716,2.481,2.4903,2.5104,2.5264,2.5358,2.5745,2.6077,2.6092,2.6092,2.6186,2.6386,2.6386,2.6386,2.6386,2.6386,2.6386,2.6386,2.6386,2.6386,2.6386,2.6386,2.6386,2.6386,2.6386,2.6386,2.6386,2.6386,2.6386,2.6386,1.4299,1.4299,1.2774,0.7951,0.7146,0.6347,0.3938,0.5633,0.7951,1.0362,1.2774,1.4299,1.4299,1.4299,1.4299,1.4299,1.4299,1.4299,1.4299,1.4299,1.4299,1.4299,1.4299,1.4299,1.4299,1.4299,1.4299,1.4299,1.4299,1.4299,1.4299,1.4299,1.4299,1.4299,1.4299,1.4299,1.4299,1.4299,1.4299,1.4299,1.4299,1.4299,1.4299,1.4299,1.4299,1.4299,1.4299,1.4299,1.4299,1.4299,1.5858,1.7326,1.4992,1.5858,1.8191,2.0529,2.2869,2.5203,2.7532,2.7923,2.7629,2.7348,2.7041,2.6827,2.6827,2.66,2.6386,2.6386,2.6386,2.6306,2.6012,2.6037,2.5665,2.4783,2.4649,2.4436,2.3861,2.4035,2.4209,2.4209,2.4462,2.4649,2.4649,2.4649,2.4649,2.4649,2.4917,2.5211,2.5504,2.5518,2.5651,2.6023,2.6037,2.6092,2.6386,2.6386,2.6386,2.6386,2.6386,2.6386,2.6386,2.6386,2.6386,2.6386,2.6386,2.6386,2.6386,2.6386,2.6386,2.6386,2.6386,2.6386,2.6386,2.6386,2.6386,2.6386,1.4299,1.4299,1.2774,0.7951,0.8486,0.8308,0.4206,0.706,0.9913,1.0629,1.2774,1.4299,1.4299,1.4299,1.4299,1.4299,1.4299,1.4299,1.4299,1.4299,1.4299,1.4299,1.4299,1.4299,1.4299,1.4299,1.4299,1.4299,1.4299,1.4299,1.4299,1.4299,1.4299,1.4299,1.4299,1.4299,1.4299,1.4299,1.4299,1.4299,1.4299,1.4299,1.4299,1.4299,1.4299,1.4299,1.4299,1.4299,1.4299,1.4299,1.4734,1.5256,1.4564,1.4822,1.577,1.8104,2.0443,2.2783,2.5117,2.6863,2.7936,2.7642,2.7348,2.7081,2.6867,2.6747,2.664,2.6426,2.6386,2.636,2.6279,2.6092,2.5943,2.5611,2.5384,2.5197,2.5024,2.5064,2.5117,2.5117,2.5197,2.5251,2.5251,2.5251,2.5251,2.5251,2.5331,2.5424,2.5504,2.5718,2.5865,2.6037,2.6159,2.6306,2.6386,2.6386,2.6386,2.6386,2.6386,2.6386,2.6386,2.6386,2.6386,2.6386,2.6386,2.6386,2.6386,2.6386,2.6386,2.6386,2.6386,2.6386,2.6386,2.6386,2.6386,2.6386,1.4299,1.4299,1.2774,0.7951,0.9108,0.938,0.5544,0.8219,1.1072,1.1971,1.3401,1.4299,1.4299,1.4299,1.4299,1.4299,1.4299,1.4299,1.4299,1.4299,1.4299,1.4299,1.4299,1.4299,1.4299,1.4299,1.4299,1.4299,1.4299,1.4299,1.4299,1.4299,1.4299,1.4299,1.4299,1.4299,1.4299,1.4299,1.4299,1.4299,1.4299,1.4299,1.4299,1.4299,1.4299,1.4299,1.4299,1.4299,1.4299,1.4299,1.4299,1.4476,1.5425,1.508,1.4734,1.7071,1.9401,2.1739,2.4081,2.6418,2.8181,2.7923,2.7655,2.7388,2.7215,2.7081,2.6921,2.6627,2.656,2.6533,2.6413,2.6239,2.6092,2.605,2.5798,2.5651,2.5531,2.5518,2.5518,2.5518,2.5518,2.5518,2.5518,2.5518,2.5558,2.5678,2.5692,2.5732,2.5852,2.6026,2.6132,2.6132,2.6306,2.6386,2.6386,2.6386,2.6386,2.6386,2.6386,2.6386,2.6386,2.6386,2.6386,2.6386,2.6386,2.6386,2.64,2.6507,2.656,2.6573,2.6694,2.6734,2.6734,2.6734,2.6734,2.672,1.4299,1.4299,1.2863,0.8219,0.938,1.018,0.777,0.9464,1.1788,1.4027,1.4299,1.4299,1.4299,1.4299,1.4299,1.4299,1.4299,1.4299,1.4299,1.4299,1.4299,1.4299,1.4299,1.4299,1.4299,1.4299,1.4299,1.4299,1.4299,1.4299,1.4299,1.4299,1.4299,1.4299,1.4299,1.4299,1.4299,1.4299,1.4299,1.4299,1.4299,1.4299,1.4299,1.4299,1.4299,1.4299,1.4299,1.4299,1.4299,1.4299,1.4299,1.4646,1.6809,1.6034,1.4734,1.6896,1.9228,2.1653,2.3824,2.6236,2.8221,2.8221,2.7936,2.7736,2.7709,2.7495,2.7215,2.6921,2.6867,2.6774,2.648,2.6426,2.6333,2.6039,2.6077,2.5905,2.5625,2.5585,2.5585,2.5585,2.5585,2.5585,2.5585,2.5585,2.5705,2.5972,2.6077,2.6106,2.6373,2.6386,2.6386,2.6386,2.6386,2.6386,2.6386,2.6386,2.6386,2.6386,2.6386,2.6386,2.6386,2.6386,2.64,2.6426,2.6426,2.644,2.6493,2.6747,2.6867,2.6894,2.7161,2.7268,2.7268,2.7268,2.7268,2.7228,1.4299,1.4299,1.3401,1.0446,1.1882,1.2686,1.0268,1.1965,1.3673,1.421,1.4299,1.4299,1.4299,1.4299,1.4299,1.4299,1.4299,1.4299,1.4299,1.4299,1.4299,1.4299,1.4299,1.4299,1.4299,1.4299,1.4299,1.4299,1.4299,1.4299,1.4299,1.4299,1.4299,1.4299,1.4299,1.4299,1.4299,1.4299,1.4299,1.4299,1.4299,1.4299,1.4299,1.4299,1.4299,1.4299,1.4299,1.4299,1.4299,1.4299,1.4299,1.4387,1.4911,1.4734,1.4387,1.4911,1.7938,2.1307,2.1825,2.502,2.8221,2.8221,2.8181,2.7989,2.7749,2.7655,2.7522,2.7228,2.7175,2.7081,2.6787,2.6734,2.664,2.6346,2.6293,2.6279,2.6213,2.6199,2.6199,2.6199,2.6199,2.6199,2.6199,2.6199,2.6226,2.6293,2.6293,2.6319,2.6386,2.6386,2.6386,2.6386,2.6386,2.6386,2.6386,2.6386,2.6386,2.6386,2.6386,2.6386,2.6386,2.6386,2.6507,2.6734,2.6734,2.6867,2.7081,2.7148,2.7175,2.7175,2.7241,2.7268,2.7268,2.7268,2.7268,2.7228,1.4299,1.4299,1.3578,1.1161,1.2686,1.3489,1.1072,1.2774,1.4299,1.4299,1.4299,1.4299,1.4299,1.4299,1.4299,1.4299,1.4299,1.4299,1.4299,1.4299,1.4299,1.4299,1.4299,1.4299,1.4299,1.4299,1.4299,1.4299,1.4299,1.4299,1.4299,1.4299,1.4299,1.4299,1.4299,1.4299,1.4299,1.4299,1.4299,1.4299,1.4299,1.4299,1.4299,1.4299,1.4299,1.4299,1.4299,1.4299,1.4299,1.4299,1.4299,1.4299,1.4299,1.4299,1.4299,1.4299,1.6817,1.9836,2.0875,2.3812,2.6758,2.7883,2.8221,2.8181,2.7949,2.7909,2.7566,2.609,2.6713,2.7046,2.559,2.6284,2.6934,2.664,2.66,2.6547,2.6413,2.6386,2.6386,2.6386,2.6386,2.6386,2.6386,2.6386,2.6386,2.6386,2.6386,2.6386,2.6386,2.6386,2.6386,2.6386,2.6386,2.6453,2.66,2.66,2.6667,2.68,2.6667,2.6667,2.68,2.68,2.6894,2.7028,2.7028,2.7121,2.7281,2.7415,2.7468,2.7482,2.7629,2.7765,2.7765,2.7765,2.7591,2.7241,1.4299,1.4299,1.3673,1.1699,1.2952,1.3673,1.161,1.304,1.4299,1.4299,1.4299,1.4299,1.4299,1.4299,1.4299,1.4299,1.4299,1.4299,1.4299,1.4299,1.4299,1.4299,1.4299,1.4299,1.4299,1.4299,1.4299,1.4299,1.4299,1.4299,1.4299,1.4299,1.4299,1.4299,1.4299,1.4299,1.4299,1.4299,1.4299,1.4299,1.4299,1.4299,1.4299,1.4299,1.4299,1.4299,1.4299,1.4299,1.4299,1.4299,1.4299,1.4299,1.4299,1.4299,1.4387,1.4822,1.6553,1.8889,2.1221,2.347,2.5811,2.7714,2.8221,2.8052,2.7701,2.7617,2.6863,2.424,2.5215,2.5895,2.3689,2.4897,2.6234,2.6287,2.6316,2.6318,2.6494,2.6493,2.6466,2.6466,2.6413,2.6386,2.6386,2.6386,2.6386,2.6386,2.6386,2.6386,2.6386,2.6109,2.5884,2.5897,2.5538,2.5667,2.6316,2.6316,2.6635,2.7335,2.7094,2.7081,2.7268,2.7268,2.7295,2.7348,2.7348,2.7362,2.7428,2.7669,2.7513,2.7289,2.7959,2.7968,2.763,2.8052,2.7886,2.7348,1.4299,1.4299,1.421,1.385,1.4122,1.421,1.385,1.4122,1.4299,1.4299,1.4299,1.4299,1.4299,1.4299,1.4299,1.4299,1.4299,1.4299,1.4299,1.4299,1.4299,1.4299,1.4299,1.4299,1.4299,1.4299,1.4299,1.4299,1.4299,1.4299,1.4299,1.4299,1.4299,1.4299,1.4299,1.4299,1.4299,1.4299,1.4299,1.4299,1.4299,1.4299,1.4299,1.4299,1.4299,1.4299,1.4299,1.4299,1.4299,1.4299,1.4299,1.4299,1.4299,1.4299,1.4734,1.6729,1.8976,2.1221,2.3567,2.5981,2.7799,2.8136,2.8221,2.7701,2.5641,2.5203,2.4496,2.2128,2.1859,2.1882,2.1312,2.144,2.221,2.3904,2.4199,2.494,2.6904,2.6921,2.676,2.676,2.6547,2.6386,2.6386,2.6386,2.6386,2.6386,2.6386,2.6386,2.6386,2.4733,2.3794,2.3817,2.2036,2.2157,2.4199,2.4199,2.5335,2.7642,2.7602,2.7468,2.7268,2.7268,2.7402,2.7642,2.7642,2.7789,2.8114,2.8154,2.696,2.5325,2.7435,2.6927,2.5373,2.7448,2.7923,2.7642,1.2509,1.3401,1.4299,1.4299,1.4299,1.4299,1.4299,1.4299,1.4299,1.4299,1.4299,1.4299,1.4299,1.4299,1.4299,1.4299,1.4299,1.4299,1.4299,1.4299,1.4299,1.4299,1.4299,1.4299,1.4299,1.4299,1.4299,1.4299,1.4299,1.4299,1.4299,1.4299,1.4299,1.4299,1.4299,1.4299,1.4299,1.4299,1.4299,1.4299,1.4299,1.4299,1.4299,1.4299,1.4299,1.4299,1.4299,1.4299,1.4299,1.4299,1.4299,1.4299,1.4299,1.4299,1.4734,1.7071,1.854,2.0096,2.3738,2.5458,2.6588,2.7883,2.8221,2.7266,2.3555,2.2783,2.2084,1.9749,2.0269,2.0759,1.9377,2.0134,2.1265,2.1969,2.2105,2.2386,2.3253,2.4398,2.5577,2.6905,2.6961,2.6881,2.6881,2.6881,2.6881,2.6881,2.6881,2.6303,2.4982,2.4102,2.2988,2.1749,2.0764,2.0876,2.2105,2.3374,2.4687,2.6061,2.7349,2.7883,2.7832,2.7832,2.7913,2.7949,2.7949,2.8016,2.8136,2.6758,2.5641,2.4776,2.5811,2.6418,2.6758,2.7799,2.7949,2.7696]}]]